Date StartTime U_cm/s V_cm/s W_cm/s Ustd_cm/s Vstd_cm/s Wstd_cm/s Uvar_(cm/s)^2 Vvar_(cm/s)^2 Wvar_(cm/s)^2 KE_(m/s)^2 TurbulentKE_(m/s)^2 HorizWindSpeed_cm/s FrictionSpeec_cm/s DragCoef SpeedOfSound_m/s SonicTemperature_C Pressure_mb 
12/14/2013  00:00:00     -103.429      -26.227       -6.003       24.657       22.311       16.276      607.983      497.792      264.915        0.640        0.069      106.703       13.067        0.015      329.284       -4.077      873.298
12/14/2013  00:01:00     -120.724      -19.284      -19.160       27.975       21.149       19.353      782.597      447.267      374.548        0.846        0.080      122.255        6.224        0.003      329.224       -4.177      873.317
12/14/2013  00:02:00     -119.045      -28.232      -15.600       22.618       22.474       15.686      511.593      505.061      246.050        0.824        0.063      122.347        9.589        0.006      329.216       -4.189      873.337
12/14/2013  00:03:00     -157.462      -12.565      -16.695       35.799       18.469       17.877     1281.573      341.092      319.597        1.359        0.097      157.962       16.847        0.011      329.154       -4.291      873.362
12/14/2013  00:04:00     -124.003      -16.097      -13.507       39.197       30.339       19.438     1536.395      920.454      377.850        0.933        0.142      125.043       19.204        0.024      329.126       -4.336      873.380
12/14/2013  00:05:00      -99.688       -9.351      -13.000       30.118       25.828       17.012      907.090      667.087      289.393        0.603        0.093      100.126       11.142        0.012      329.114       -4.355      873.401
12/14/2013  00:06:00      -66.299      -10.003       -6.022       33.297       13.733       13.838     1108.681      188.585      191.489        0.301        0.074       67.049       11.532        0.030      329.079       -4.414      873.414
12/14/2013  00:07:00     -112.134      -29.529      -12.961       24.446       21.777       15.835      597.585      474.225      250.738        0.747        0.066      115.957        6.794        0.003      329.044       -4.471      873.435
12/14/2013  00:08:00     -102.162      -28.698       -8.359       25.347       23.438       16.820      642.494      549.332      282.925        0.640        0.074      106.116       12.838        0.015      329.023       -4.503      873.446
12/14/2013  00:09:00     -108.687      -27.910      -10.976       33.986       40.644       20.545     1155.067     1651.896      422.100        0.797        0.161      112.213       12.235        0.012      329.070       -4.428      873.439
12/14/2013  00:10:00     -100.727      -34.538       -0.437       30.199       43.166       22.511      912.002     1863.286      506.723        0.731        0.164      106.484        8.784        0.007      328.998       -4.546      873.443
12/14/2013  00:11:00     -114.763      -36.154      -13.769       34.170       37.787       18.034     1167.569     1427.884      325.225        0.879        0.146      120.323        9.161        0.006      328.972       -4.589      873.465
12/14/2013  00:12:00     -108.981      -19.841       -6.688       36.631       26.748       18.711     1341.816      715.454      350.097        0.736        0.120      110.772       14.747        0.018      328.956       -4.614      873.484
12/14/2013  00:13:00      -93.707      -12.748      -10.291       37.089       38.767       27.507     1375.592     1502.915      756.640        0.634        0.182       94.570       21.806        0.053      328.881       -4.736      873.495
12/14/2013  00:14:00      -69.862      -29.464        1.940       40.230       42.542       25.458     1618.471     1809.817      648.112        0.491        0.204       75.821       17.605        0.054      328.955       -4.616      873.513
12/14/2013  00:15:00      -73.326      -21.834       -8.049       50.437       43.016       26.245     2543.882     1850.395      688.801        0.550        0.254       76.507       20.306        0.070      328.974       -4.584      873.540
12/14/2013  00:16:00      -84.870      -11.917       -8.121       37.031       42.757       23.376     1371.282     1828.141      546.432        0.558        0.187       85.702       18.877        0.049      328.990       -4.560      873.578
12/14/2013  00:17:00      -87.237      -32.192       -6.336       40.676       40.528       26.576     1654.529     1642.479      706.259        0.634        0.200       92.987       13.310        0.020      329.014       -4.520      873.617
12/14/2013  00:18:00      -75.985      -22.267      -10.407       40.180       35.395       22.946     1614.401     1252.833      526.540        0.489        0.170       79.180       12.223        0.024      329.007       -4.531      873.657
12/14/2013  00:19:00      -98.938      -16.333      -10.155       32.532       29.774       20.103     1058.357      886.520      404.150        0.625        0.117      100.277       10.966        0.012      329.011       -4.525      873.692
12/14/2013  00:20:00      -68.808      -19.982      -11.447       26.205       27.575       16.282      686.705      760.400      265.113        0.349        0.086       71.650       15.613        0.047      329.092       -4.393      873.713
12/14/2013  00:21:00      -69.667      -12.455      -15.585       16.059       16.098       12.618      257.904      259.153      159.207        0.296        0.034       70.771        5.969        0.007      329.179       -4.249      873.733
12/14/2013  00:22:00      -65.135      -37.792       -7.593       30.354       17.817       12.419      921.336      317.454      154.235        0.356        0.070       75.305        9.865        0.017      329.202       -4.213      873.735
12/14/2013  00:23:00      -99.946      -28.605      -14.010       19.790       19.049       13.888      391.653      362.859      192.884        0.598        0.047      103.959       11.876        0.013      329.124       -4.341      873.718
12/14/2013  00:24:00     -112.147      -28.020      -15.145       25.772       17.382       14.561      664.199      302.119      212.031        0.738        0.059      115.594       12.206        0.011      329.101       -4.378      873.692
12/14/2013  00:25:00      -85.779      -31.227       -6.754       15.003       17.730       10.947      225.075      314.357      119.845        0.452        0.033       91.286        7.762        0.007      329.120       -4.346      873.670
12/14/2013  00:26:00      -74.166      -16.553       -9.540       16.905       13.949       11.069      285.768      194.570      122.515        0.323        0.030       75.991        5.995        0.006      329.230       -4.167      873.659
12/14/2013  00:27:00      -81.922       -3.599      -16.465       13.021       18.687       10.019      169.540      349.206      100.377        0.381        0.031       82.001        7.650        0.009      329.138       -4.318      873.639
12/14/2013  00:28:00      -85.505      -29.904      -20.906       10.657       19.074        9.544      113.581      363.809       91.083        0.461        0.028       90.584        6.441        0.005      329.197       -4.221      873.612
12/14/2013  00:29:00      -53.023      -31.603      -14.605       33.174       14.835       17.386     1100.536      220.066      302.279        0.282        0.081       61.727       16.009        0.067      329.197       -4.222      873.586
12/14/2013  00:30:00      -74.074      -61.147       -9.088       23.245       18.150       14.181      540.312      329.412      201.109        0.519        0.054       96.052       12.751        0.018      329.180       -4.248      873.575
12/14/2013  00:31:00      -64.676      -47.661       -5.888       14.442       10.058        7.610      208.570      101.161       57.914        0.343        0.018       80.341        4.499        0.003      329.183       -4.244      873.572
12/14/2013  00:32:00      -86.613      -26.351      -11.481       15.561       11.708        9.732      242.147      137.084       94.706        0.440        0.024       90.532        8.229        0.008      329.271       -4.100      873.568
12/14/2013  00:33:00      -82.164      -21.616      -13.192       13.141       18.650       11.752      172.675      347.824      138.114        0.403        0.033       84.960        7.751        0.008      329.277       -4.089      873.564
12/14/2013  00:34:00      -84.690      -30.667       -3.766       17.017       15.526       11.372      289.588      241.068      129.328        0.439        0.033       90.071        8.395        0.009      329.283       -4.081      873.558
12/14/2013  00:35:00      -80.545      -43.174       -0.446       22.202       14.566       11.282      492.920      212.165      127.292        0.459        0.042       91.387        6.243        0.005      329.182       -4.245      873.554
12/14/2013  00:36:00      -83.202      -53.716       -5.349       27.552       16.458       11.589      759.136      270.874      134.305        0.550        0.058       99.035        7.922        0.006      329.245       -4.143      873.553
12/14/2013  00:37:00      -60.128      -47.850       -1.607       25.349       25.598       16.080      642.586      655.276      258.552        0.373        0.078       76.844       12.298        0.026      329.203       -4.210      873.557
12/14/2013  00:38:00      -69.518      -38.235       -0.104       35.491       23.152       17.965     1259.619      536.023      322.756        0.421        0.106       79.339       12.457        0.025      329.204       -4.209      873.562
12/14/2013  00:39:00     -122.558      -78.643       -8.561       42.506       28.383       25.503     1806.774      805.579      650.389        1.227        0.163      145.620       21.327        0.021      329.235       -4.159      873.563
12/14/2013  00:40:00      -91.619      -60.292        1.745       53.974       34.218       23.710     2913.198     1170.876      562.154        0.834        0.232      109.678       27.816        0.064      329.236       -4.157      873.553
12/14/2013  00:41:00      -69.456      -49.107        4.524       30.720       30.179       22.534      943.702      910.775      507.764        0.481        0.118       85.063       17.296        0.041      329.220       -4.183      873.545
12/14/2013  00:42:00      -41.486      -39.124        7.582       25.756       33.274       22.388      663.389     1107.126      501.210        0.279        0.114       57.025       22.633        0.158      329.188       -4.236      873.539
12/14/2013  00:43:00      -66.655      -76.637       -6.909       37.395       30.036       16.626     1398.378      902.151      276.426        0.647        0.129      101.568       18.054        0.032      329.221       -4.179      873.524
12/14/2013  00:44:00      -95.164      -48.086       -9.020       15.057       21.279       15.963      226.708      452.779      254.820        0.619        0.047      106.623       10.848        0.010      329.253       -4.128      873.500
12/14/2013  00:45:00      -86.560      -54.189        4.153       33.104       26.806       16.097     1095.874      718.562      259.103        0.626        0.104      102.122       13.375        0.017      329.238       -4.152      873.470
12/14/2013  00:46:00      -94.096      -38.960       -1.335       37.074       22.542       14.923     1374.479      508.129      222.707        0.624        0.105      101.843       15.367        0.023      329.163       -4.277      873.459
12/14/2013  00:47:00     -109.076      -31.223      -11.737       14.518       21.022       11.008      210.763      441.934      121.170        0.689        0.039      113.457        9.738        0.007      329.120       -4.347      873.466
12/14/2013  00:48:00      -71.009       -9.206       -1.089       26.672       19.292       15.925      711.389      372.167      253.611        0.323        0.067       71.603       11.682        0.027      329.160       -4.281      873.485
12/14/2013  00:49:00     -104.733      -36.264       -0.976       22.445       21.362       13.224      503.780      456.352      174.870        0.671        0.057      110.833       10.246        0.009      329.181       -4.247      873.509
12/14/2013  00:50:00     -127.206      -12.551       -8.804       27.342       20.109       12.620      747.573      404.389      159.257        0.886        0.066      127.824       12.528        0.010      329.060       -4.443      873.543
12/14/2013  00:51:00     -135.380       -7.104       -5.250       26.876       18.827       18.833      722.302      354.468      354.667        0.992        0.072      135.566       12.002        0.008      328.999       -4.544      873.572
12/14/2013  00:52:00      -97.935        5.088       -2.821       46.388       33.089       23.181     2151.850     1094.881      537.370        0.670        0.189       98.067       22.635        0.053      328.964       -4.602      873.599
12/14/2013  00:53:00      -76.509       -2.689       -5.054       33.961       28.002       19.283     1153.375      784.140      371.829        0.410        0.115       76.556       15.335        0.040      328.962       -4.606      873.602
12/14/2013  00:54:00      -75.089        5.885       -1.581       36.496       32.499       20.665     1331.964     1056.170      427.051        0.424        0.141       75.319       16.415        0.047      328.913       -4.686      873.595
12/14/2013  00:55:00      -61.626       -7.538      -10.532       29.882       34.071       16.567      892.930     1160.850      274.478        0.315        0.116       62.085       12.859        0.043      328.852       -4.784      873.575
12/14/2013  00:56:00      -42.642      -15.505       -5.901       16.489       25.962       10.159      271.885      674.046      103.201        0.157        0.052       45.374        6.787        0.022      328.803       -4.863      873.552
12/14/2013  00:57:00      -38.477      -10.184       -3.471       10.478       12.142        9.625      109.791      147.417       92.642        0.097        0.017       39.801        6.938        0.030      328.852       -4.785      873.523
12/14/2013  00:58:00      -30.443      -15.073      -13.075       14.695       12.980        8.708      215.935      168.468       75.832        0.089        0.023       33.970        6.393        0.035      328.942       -4.637      873.520
12/14/2013  00:59:00      -11.232      -13.016      -10.607       12.213       11.257        8.762      149.150      126.722       76.778        0.038        0.018       17.192        2.869        0.028      329.111       -4.361      873.532
12/14/2013  01:00:00      -17.732       -5.435        0.011        9.481        9.365        3.840       89.888       87.701       14.749        0.027        0.010       18.546        4.376        0.056      329.074       -4.419      873.545
12/14/2013  01:01:00      -23.332      -13.483        1.701       15.785       11.570       10.341      249.182      133.855      106.942        0.061        0.024       26.947       10.111        0.141      329.039       -4.479      873.557
12/14/2013  01:02:00      -42.612      -24.124       -8.066       18.067       10.448        8.081      326.405      109.153       65.300        0.148        0.025       48.967        2.752        0.003      329.005       -4.536      873.562
12/14/2013  01:03:00      -42.817      -15.038       -4.647       12.900       12.100       10.958      166.419      146.414      120.073        0.126        0.022       45.381        6.202        0.019      328.929       -4.660      873.551
12/14/2013  01:04:00      -40.838      -11.232       -7.405       10.311        8.711        7.460      106.314       75.878       55.645        0.104        0.012       42.355        5.761        0.018      328.874       -4.750      873.531
12/14/2013  01:05:00      -56.569      -17.983      -10.574        6.998       13.842        8.155       48.971      191.596       66.505        0.197        0.015       59.359        8.118        0.019      329.030       -4.493      873.503
12/14/2013  01:06:00      -45.682       -8.068       -9.433       11.654        5.721        5.736      135.811       32.730       32.897        0.122        0.010       46.389        4.344        0.009      329.022       -4.506      873.472
12/14/2013  01:07:00      -21.046      -13.016       -8.244       16.668        9.396        8.657      277.827       88.276       74.941        0.056        0.022       24.746        7.493        0.092      329.129       -4.331      873.452
12/14/2013  01:08:00      -14.280        2.642       -3.907       19.301       21.381       16.723      372.542      457.144      279.660        0.067        0.055       14.523        5.687        0.153      329.211       -4.197      873.434
12/14/2013  01:09:00        0.400        4.683       11.882       26.830       14.038       12.282      719.872      197.053      150.841        0.062        0.053        4.700        8.338        3.147      329.349       -3.971      873.421
12/14/2013  01:10:00      -10.607       -2.546        4.677       12.816       13.003       12.217      164.257      169.090      149.248        0.031        0.024       10.909        7.414        0.462      329.341       -3.987      873.414
12/14/2013  01:11:00       -0.357        6.347        5.668       18.031       23.986       14.230      325.099      575.313      202.490        0.059        0.055        6.357       15.553        5.985      329.358       -3.957      873.410
12/14/2013  01:12:00      -55.589      -43.097       -2.100       19.383       17.782       11.442      375.691      316.187      130.914        0.289        0.041       70.338       10.274        0.021      328.881       -4.736      873.417
12/14/2013  01:13:00      -74.982      -35.857       -9.911       15.157       15.571        7.819      229.740      242.457       61.137        0.377        0.027       83.115        3.683        0.002      328.817       -4.841      873.430
12/14/2013  01:14:00      -63.963      -12.230       -9.839       17.944       11.671       10.416      321.982      136.213      108.488        0.245        0.028       65.122        7.026        0.012      328.901       -4.704      873.447
12/14/2013  01:15:00      -62.013       -0.021      -16.630       19.459       14.745       10.476      378.650      217.409      109.753        0.241        0.035       62.013        6.754        0.012      328.954       -4.617      873.464
12/14/2013  01:16:00      -62.157      -27.830       -7.630       20.314       12.226       11.666      412.652      149.468      136.088        0.270        0.035       68.103        9.564        0.020      328.807       -4.858      873.464
12/14/2013  01:17:00      -76.581      -21.104      -10.913       13.925       15.472       10.336      193.909      239.372      106.834        0.348        0.027       79.436        6.830        0.007      328.752       -4.947      873.460
12/14/2013  01:18:00      -61.500      -35.485      -10.098       13.861       13.053       11.802      192.129      170.393      139.280        0.282        0.025       71.003        3.584        0.003      328.777       -4.907      873.450
12/14/2013  01:19:00      -76.694      -34.761      -12.163       13.700       16.785       12.068      187.685      281.752      145.625        0.393        0.031       84.204        8.547        0.010      328.795       -4.876      873.449
12/14/2013  01:20:00      -82.333      -38.815      -10.570       14.158       15.594       10.348      200.449      243.181      107.073        0.447        0.028       91.024        4.416        0.002      328.787       -4.890      873.462
12/14/2013  01:21:00      -74.680      -17.471      -12.393       13.386       15.728        9.202      179.176      247.368       84.671        0.327        0.026       76.696        1.883        0.001      328.845       -4.794      873.477
12/14/2013  01:22:00      -76.588      -39.110       -7.849       14.544       10.329        7.000      211.533      106.685       49.004        0.391        0.018       85.996        3.401        0.002      328.910       -4.688      873.485
12/14/2013  01:23:00      -69.055      -50.049       -8.350       14.769       17.232       12.583      218.127      296.933      158.322        0.401        0.034       85.285        9.526        0.012      328.939       -4.643      873.486
12/14/2013  01:24:00      -64.131      -47.461       -5.218       22.508       16.302       15.108      506.601      265.749      228.260        0.370        0.050       79.783       11.644        0.021      328.956       -4.615      873.468
12/14/2013  01:25:00      -73.186      -43.431       -5.890       21.559       16.442       11.043      464.787      270.349      121.941        0.407        0.043       85.103        9.935        0.014      328.814       -4.846      873.446
12/14/2013  01:26:00      -78.630      -52.045       -8.684       18.379       13.257       14.017      337.805      175.748      196.486        0.484        0.036       94.294        6.523        0.005      328.701       -5.031      873.435
12/14/2013  01:27:00      -75.642      -37.364       -6.075       25.211       16.429       10.995      635.577      269.919      120.900        0.409        0.051       84.367        8.316        0.010      328.720       -4.999      873.426
12/14/2013  01:28:00      -87.419      -25.052       -9.277       18.902       18.452       15.232      357.290      340.476      232.014        0.464        0.046       90.937       11.905        0.017      328.750       -4.950      873.423
12/14/2013  01:29:00      -82.660      -20.721       -3.705       24.315       22.831       16.922      591.207      521.267      286.363        0.434        0.070       85.217       12.405        0.021      328.784       -4.894      873.412
12/14/2013  01:30:00      -94.373      -29.089       -3.460       22.351       25.763       15.192      499.580      663.728      230.796        0.558        0.070       98.755       10.425        0.011      328.792       -4.881      873.419
12/14/2013  01:31:00      -83.407      -22.236        0.182       30.134       23.673       15.516      908.046      560.405      240.742        0.458        0.085       86.320       14.970        0.030      328.758       -4.937      873.430
12/14/2013  01:32:00      -83.870      -27.554        1.996       28.578       25.152       17.595      816.678      632.635      309.567        0.478        0.088       88.280       18.225        0.043      328.732       -4.979      873.447
12/14/2013  01:33:00      -97.213      -24.659        3.469       30.775       22.725       14.972      947.114      516.441      224.157        0.588        0.084      100.292       15.945        0.025      328.684       -5.059      873.473
12/14/2013  01:34:00      -89.012      -13.354        0.623       25.865       24.513       16.637      668.980      600.896      276.794        0.482        0.077       90.008       14.433        0.026      328.610       -5.178      873.482
12/14/2013  01:35:00      -95.221      -17.756        0.455       36.579       31.081       17.730     1338.039      966.056      314.340        0.600        0.131       96.862       18.122        0.035      328.624       -5.155      873.482
12/14/2013  01:36:00     -100.177      -32.703        2.366       39.723       35.060       19.944     1577.912     1229.186      397.754        0.716        0.160      105.380       20.794        0.039      328.656       -5.104      873.485
12/14/2013  01:37:00     -112.993      -34.311       -2.488       32.209       33.356       18.510     1037.427     1112.595      342.608        0.822        0.125      118.088       17.081        0.021      328.706       -5.023      873.498
12/14/2013  01:38:00      -92.905      -35.290        5.393       37.647       33.909       17.867     1417.309     1149.807      319.246        0.640        0.144       99.382       21.843        0.048      328.656       -5.104      873.522
12/14/2013  01:39:00     -109.695      -45.543       -2.517       24.189       25.552       15.648      585.107      652.909      244.873        0.780        0.074      118.774       12.965        0.012      328.709       -5.018      873.549
12/14/2013  01:40:00      -97.332      -56.381       -4.076       33.358       31.165       14.298     1112.780      971.264      204.426        0.748        0.114      112.482       13.256        0.014      328.727       -4.987      873.556
12/14/2013  01:41:00     -115.546      -44.619      -10.490       15.421       21.912       14.260      237.813      480.133      203.350        0.819        0.046      123.862        9.707        0.006      328.669       -5.082      873.557
12/14/2013  01:42:00      -86.593      -57.328       -4.192       33.657       17.706       14.407     1132.802      313.489      207.551        0.623        0.083      103.850       13.755        0.018      328.641       -5.127      873.555
12/14/2013  01:43:00      -64.069      -44.841       -4.156       20.332       22.787       11.791      413.395      519.255      139.026        0.360        0.054       78.202        8.228        0.011      328.649       -5.116      873.563
12/14/2013  01:44:00      -34.443      -29.736        2.822       19.413       30.293       14.278      376.867      917.670      203.872        0.179        0.075       45.503        8.872        0.038      328.683       -5.060      873.579
12/14/2013  01:45:00      -38.647      -24.871       -1.297       18.647       14.537        8.447      347.704      211.325       71.348        0.137        0.032       45.958        5.528        0.014      328.696       -5.038      873.598
12/14/2013  01:46:00      -34.517      -14.359       -2.893       13.171       12.387        8.651      173.473      153.444       74.837        0.090        0.020       37.384        7.477        0.040      328.731       -4.981      873.603
12/14/2013  01:47:00      -58.449       -8.756       -5.265       18.423       14.337       11.129      339.394      205.542      123.860        0.209        0.033       59.102        6.663        0.013      328.783       -4.896      873.597
12/14/2013  01:48:00      -63.752      -23.619       -3.290       14.276       12.929        9.894      203.805      167.170       97.888        0.255        0.023       67.987        6.232        0.008      328.765       -4.925      873.586
12/14/2013  01:49:00      -67.509      -25.933       -4.714       11.037       16.943       11.170      121.818      287.050      124.758        0.289        0.027       72.319        6.805        0.009      328.721       -4.998      873.594
12/14/2013  01:50:00      -68.066        1.160       -8.653       12.622       14.759        7.368      159.316      217.826       54.282        0.257        0.022       68.076        2.842        0.002      328.647       -5.118      873.631
12/14/2013  01:51:00      -68.272        1.227       -8.942       10.012       13.401        9.257      100.239      179.596       85.701        0.255        0.018       68.283        2.652        0.002      328.637       -5.135      873.670
12/14/2013  01:52:00      -74.900       -6.156      -13.076       12.525       16.141       13.279      156.878      260.518      176.340        0.321        0.030       75.152        8.752        0.014      328.609       -5.182      873.692
12/14/2013  01:53:00     -107.542      -15.404      -15.758       15.764       19.825       10.700      248.515      393.024      114.495        0.640        0.038      108.640        4.556        0.002      328.571       -5.242      873.696
12/14/2013  01:54:00      -99.930       -8.849      -16.580       12.898       11.953       11.978      166.367      142.877      143.474        0.540        0.023      100.321        5.966        0.004      328.454       -5.433      873.699
12/14/2013  01:55:00      -80.016      -21.621       -4.756       19.339       15.995       13.911      374.001      255.824      193.508        0.386        0.041       82.886       11.381        0.019      328.423       -5.482      873.703
12/14/2013  01:56:00      -75.962       -9.081      -10.120       15.106        9.941        8.637      228.198       98.826       74.598        0.318        0.020       76.503        7.439        0.009      328.398       -5.524      873.722
12/14/2013  01:57:00      -53.836      -12.649      -10.453        8.383       10.777        7.213       70.271      116.148       52.031        0.170        0.012       55.302        3.576        0.004      328.469       -5.407      873.736
12/14/2013  01:58:00      -59.159      -10.827       -9.033       10.081        7.938        7.525      101.635       63.019       56.623        0.196        0.011       60.141        0.962        0.000      328.418       -5.490      873.738
12/14/2013  01:59:00      -55.466      -22.217      -10.548       20.511       11.785        8.845      420.722      138.876       78.228        0.216        0.032       59.750        2.846        0.002      328.369       -5.572      873.738
12/14/2013  02:00:00      -64.763      -17.553       -9.270       14.566       12.939       12.589      212.164      167.421      158.484        0.256        0.027       67.099        6.355        0.009      328.386       -5.544      873.744
12/14/2013  02:01:00      -56.916      -22.359      -13.259       15.462       11.205       11.561      239.061      125.561      133.647        0.221        0.025       61.150        5.994        0.010      328.362       -5.584      873.756
12/14/2013  02:02:00      -62.212      -25.214      -19.422       20.528       15.894       13.506      421.418      252.611      182.415        0.287        0.043       67.127        9.843        0.022      328.299       -5.685      873.774
12/14/2013  02:03:00      -38.564      -30.988       -5.575       23.648       17.084       13.144      559.233      291.873      172.767        0.175        0.051       49.472        9.365        0.036      328.492       -5.372      873.771
12/14/2013  02:04:00      -47.442      -17.241       -9.772       16.064       12.619       10.912      258.038      159.235      119.069        0.159        0.027       50.478        7.517        0.022      328.424       -5.481      873.759
12/14/2013  02:05:00      -46.440      -27.958      -11.862       14.907       12.523        9.706      222.209      156.825       94.200        0.178        0.024       54.206        5.052        0.009      328.364       -5.579      873.757
12/14/2013  02:06:00      -60.462       -6.607       -8.080       14.974       12.172        9.912      224.229      148.147       98.251        0.212        0.024       60.822        7.454        0.015      328.255       -5.757      873.761
12/14/2013  02:07:00      -78.968      -11.531      -13.409        8.610       11.544        8.412       74.130      133.273       70.765        0.341        0.014       79.805        4.470        0.003      328.226       -5.804      873.766
12/14/2013  02:08:00      -82.627      -15.574      -12.081       12.634       11.832        9.396      159.608      139.999       88.292        0.380        0.019       84.082        5.590        0.004      328.235       -5.788      873.768
12/14/2013  02:09:00      -70.492       -7.602       -9.317       14.175       12.400        9.577      200.933      153.759       91.721        0.278        0.022       70.900        5.574        0.006      328.240       -5.782      873.770
12/14/2013  02:10:00      -69.696       -3.634      -10.477       17.974       10.466       11.352      323.055      109.532      128.862        0.277        0.028       69.790        3.574        0.003      328.240       -5.782      873.776
12/14/2013  02:11:00      -81.911       -9.283       -5.962       20.623       12.362       11.378      425.305      152.817      129.454        0.377        0.035       82.435       10.155        0.015      328.189       -5.865      873.794
12/14/2013  02:12:00      -80.907      -25.098       -9.160       14.295       14.914       11.311      204.351      222.429      127.942        0.391        0.028       84.710        3.416        0.002      328.234       -5.792      873.807
12/14/2013  02:13:00      -72.585      -23.721      -16.709       17.197       15.659       12.838      295.744      245.193      164.825        0.341        0.035       76.362        8.050        0.011      328.231       -5.797      873.810
12/14/2013  02:14:00      -61.023      -25.311      -11.816       11.753       11.611        9.568      138.127      134.817       91.552        0.243        0.018       66.064        4.729        0.005      328.261       -5.748      873.807
12/14/2013  02:15:00      -77.041      -23.688      -14.676       14.446       12.580       11.443      208.687      158.261      130.948        0.360        0.025       80.600        6.798        0.007      328.213       -5.827      873.800
12/14/2013  02:16:00      -70.430      -15.725       -8.472       16.436       11.817        9.487      270.132      139.640       89.996        0.289        0.025       72.164        5.394        0.006      328.267       -5.736      873.797
12/14/2013  02:17:00      -65.326      -13.421       -9.771       14.531       11.399        8.223      211.154      129.936       67.612        0.248        0.020       66.690        3.502        0.003      328.248       -5.768      873.798
12/14/2013  02:18:00      -57.481      -13.513       -9.042        8.308        9.532        6.265       69.019       90.853       39.255        0.188        0.010       59.048        4.082        0.005      328.430       -5.472      873.797
12/14/2013  02:19:00      -43.673      -24.023      -11.560        8.178       11.107        6.740       66.876      123.366       45.431        0.143        0.012       49.844        4.097        0.007      328.368       -5.574      873.792
12/14/2013  02:20:00      -45.835      -23.148      -14.412       11.947       12.957        7.041      142.742      167.887       49.580        0.160        0.018       51.349        5.447        0.011      328.485       -5.381      873.789
12/14/2013  02:21:00      -35.660      -20.230       -9.583       12.860       13.304       10.668      165.386      177.005      113.803        0.111        0.023       40.999        7.025        0.029      328.383       -5.548      873.802
12/14/2013  02:22:00      -10.166      -13.303       -7.748       12.207        6.838        6.239      149.023       46.755       38.925        0.029        0.012       16.742        5.853        0.122      328.611       -5.177      873.827
12/14/2013  02:23:00       -5.381      -13.808       -0.805        7.683        5.742        6.110       59.034       32.968       37.334        0.017        0.006       14.820        2.960        0.040      328.570       -5.243      873.846
12/14/2013  02:24:00        6.049       -2.137        1.443        5.800        5.303        6.274       33.640       28.127       39.365        0.007        0.005        6.415        3.190        0.247      328.706       -5.023      873.842
12/14/2013  02:25:00       14.169        7.368        6.115        6.878        7.813       10.496       47.312       61.039      110.159        0.026        0.011       15.970        6.531        0.167      328.810       -4.854      873.822
12/14/2013  02:26:00       11.968        7.155       12.770       10.481        5.429        5.951      109.855       29.474       35.413        0.027        0.009       13.944        3.527        0.064      328.722       -4.997      873.810
12/14/2013  02:27:00        9.352        8.194       12.222       12.732        7.509        6.756      162.114       56.392       45.642        0.028        0.013       12.435        6.438        0.268      328.745       -4.958      873.816
12/14/2013  02:28:00        0.487        5.792       10.537        8.923        6.731        6.739       79.611       45.306       45.417        0.016        0.009        5.813        5.347        0.846      328.725       -4.990      873.822
12/14/2013  02:29:00        1.657       15.020       11.761        5.598        6.045        6.508       31.334       36.536       42.360        0.024        0.006       15.111        4.435        0.086      328.726       -4.989      873.830
12/14/2013  02:30:00       17.191       12.668        9.190        6.645        5.042        6.826       44.156       25.417       46.592        0.033        0.006       21.355        4.352        0.042      328.658       -5.102      873.837
12/14/2013  02:31:00       27.161       20.111        9.958       10.092        6.856        7.920      101.842       47.011       62.720        0.073        0.011       33.796        6.713        0.039      328.591       -5.208      873.855
12/14/2013  02:32:00       43.083       17.795        3.789        6.126        8.371        7.301       37.524       70.075       53.299        0.117        0.008       46.614        5.160        0.012      328.612       -5.174      873.870
12/14/2013  02:33:00       39.425       15.588        1.895       10.563        5.910        7.437      111.567       34.927       55.308        0.100        0.010       42.395        6.414        0.023      328.627       -5.148      873.877
12/14/2013  02:34:00       28.711       14.345        5.987        8.656        5.591        6.458       74.919       31.265       41.709        0.061        0.007       32.095        5.519        0.030      328.624       -5.153      873.871
12/14/2013  02:35:00       -8.140        0.694        1.927       17.112       15.138        8.767      292.830      229.147       76.865        0.033        0.030        8.169       11.860        2.108      328.588       -5.216      873.856
12/14/2013  02:36:00      -28.628      -19.099       -3.035        9.594        9.318        6.794       92.042       86.832       46.152        0.071        0.011       34.414        5.081        0.022      328.259       -5.750      873.834
12/14/2013  02:37:00      -36.586      -15.011       -9.084       10.394        8.507        6.584      108.032       72.374       43.351        0.094        0.011       39.546        2.964        0.006      328.210       -5.830      873.820
12/14/2013  02:38:00      -40.771      -24.210       -7.595       11.026        6.409        6.204      121.575       41.080       38.490        0.125        0.010       47.417        2.240        0.002      328.257       -5.754      873.823
12/14/2013  02:39:00      -65.673      -16.694       -8.799        9.092        8.671        8.926       82.667       75.190       79.667        0.245        0.012       67.762        2.218        0.001      328.229       -5.801      873.821
12/14/2013  02:40:00      -83.694      -37.215       -5.737       11.079       16.962        7.288      122.738      287.726       53.117        0.444        0.023       91.595        4.672        0.003      328.200       -5.847      873.826
12/14/2013  02:41:00      -97.011      -19.294      -12.795       12.075       15.561       10.505      145.817      242.146      110.354        0.522        0.025       98.911        8.705        0.008      328.161       -5.911      873.820
12/14/2013  02:42:00      -79.844      -26.844        1.039       26.880       24.306       17.243      722.525      590.783      297.320        0.435        0.081       84.235       16.052        0.036      328.152       -5.926      873.817
12/14/2013  02:43:00      -77.839      -20.252       -0.676       30.647       22.755       14.011      939.222      517.805      196.319        0.406        0.083       80.431       14.272        0.031      328.064       -6.069      873.821
12/14/2013  02:44:00      -84.105      -30.149        1.750       30.024       33.087       16.466      901.451     1094.728      271.115        0.513        0.113       89.345       12.555        0.020      328.111       -5.991      873.812
12/14/2013  02:45:00     -101.521      -56.980        0.109       34.806       30.364       26.497     1211.433      921.980      702.078        0.819        0.142      116.419       19.968        0.029      328.164       -5.905      873.804
12/14/2013  02:46:00      -95.777      -34.446        1.962       38.797       26.936       20.770     1505.243      725.552      431.396        0.651        0.133      101.783       13.608        0.018      328.239       -5.783      873.822
12/14/2013  02:47:00      -44.280      -19.730        4.543       24.049       26.816       11.817      578.367      719.087      139.651        0.190        0.072       48.477       10.598        0.048      328.292       -5.697      873.844
12/14/2013  02:48:00      -84.533      -16.633       -2.405       29.508       22.125       17.432      870.751      489.496      303.876        0.455        0.083       86.154       15.991        0.034      328.198       -5.848      873.840
12/14/2013  02:49:00     -105.403      -45.801       -0.487       34.205       26.084       17.999     1169.988      680.367      323.947        0.769        0.109      114.924       13.691        0.014      328.278       -5.720      873.813
12/14/2013  02:50:00     -114.807      -38.471       -2.317       25.938       21.682       13.917      672.784      470.130      193.672        0.800        0.067      121.081        7.426        0.004      328.303       -5.679      873.808
12/14/2013  02:51:00      -68.036      -24.064        4.582       27.324       23.028       14.184      746.580      530.298      201.173        0.335        0.074       72.167       13.377        0.034      328.249       -5.768      873.833
12/14/2013  02:52:00      -89.599       24.968       -0.386       22.749       15.735       11.740      517.533      247.599      137.833        0.478        0.045       93.013        7.905        0.007      328.154       -5.922      873.856
12/14/2013  02:53:00      -53.049       24.653       -4.186       24.884       19.001       11.393      619.210      361.031      129.803        0.227        0.056       58.497        7.144        0.015      328.221       -5.812      873.855
12/14/2013  02:54:00      -58.226       -1.340       -5.368       17.968       18.321       11.404      322.850      335.673      130.055        0.210        0.039       58.241       10.283        0.031      328.396       -5.527      873.845
12/14/2013  02:55:00      -90.290      -34.061      -14.341       14.750       16.274        9.913      217.574      264.833       98.261        0.505        0.029       96.501        9.548        0.010      328.328       -5.638      873.815
12/14/2013  02:56:00      -85.128      -28.245       -7.060       19.076       14.002       14.674      363.888      196.067      215.325        0.443        0.039       89.691       12.783        0.020      328.261       -5.748      873.776
12/14/2013  02:57:00      -75.413      -31.883      -11.430       15.093       16.967       13.219      227.789      287.877      174.729        0.376        0.035       81.876       11.327        0.019      328.167       -5.903      873.769
12/14/2013  02:58:00      -67.022       -4.561       -4.641       13.868       15.118        8.940      192.313      228.557       79.920        0.252        0.025       67.177        7.943        0.014      328.166       -5.903      873.789
12/14/2013  02:59:00      -66.418       -2.055      -10.180       16.015       12.043        9.880      256.487      145.039       97.613        0.251        0.025       66.450        4.834        0.005      328.183       -5.874      873.815
12/14/2013  03:00:00      -42.516      -30.523      -16.706       13.619       16.436        9.010      185.468      270.142       81.172        0.178        0.027       52.338        6.326        0.015      328.245       -5.774      873.819
12/14/2013  03:01:00      -52.458      -23.985      -14.010       17.892       11.519       11.262      320.134      132.696      126.842        0.205        0.029       57.682        3.945        0.005      328.188       -5.868      873.818
12/14/2013  03:02:00      -56.072      -34.695       -7.463       17.415       14.241       13.289      303.299      202.817      176.607        0.254        0.034       65.938        7.014        0.011      328.165       -5.904      873.829
12/14/2013  03:03:00      -68.170       -3.427      -11.565       14.705       14.624       11.190      216.227      213.861      125.222        0.267        0.028       68.256        8.868        0.017      328.166       -5.902      873.842
12/14/2013  03:04:00      -42.642      -19.210      -13.309       12.779       15.014       11.903      163.295      225.410      141.672        0.145        0.027       46.770        5.673        0.015      328.229       -5.800      873.862
12/14/2013  03:05:00      -45.697      -11.833      -14.806       14.435        9.015       10.866      208.356       81.278      118.067        0.143        0.020       47.204        5.400        0.013      328.244       -5.775      873.887
12/14/2013  03:06:00      -52.372       -1.129       -8.802       11.350        8.877       11.046      128.817       78.802      122.019        0.158        0.016       52.385        9.587        0.033      328.234       -5.792      873.892
12/14/2013  03:07:00      -44.173       -8.684       -4.441        9.865        8.290        7.131       97.326       68.726       50.848        0.113        0.011       45.019        4.114        0.008      328.270       -5.732      873.897
12/14/2013  03:08:00      -48.424      -13.023      -11.853        6.957        8.328        7.238       48.406       69.351       52.386        0.141        0.009       50.145        4.130        0.007      328.234       -5.790      873.909
12/14/2013  03:09:00      -34.000      -12.284       -7.641        7.021        7.838        5.994       49.298       61.429       35.922        0.076        0.007       36.151        2.683        0.006      328.267       -5.736      873.923
12/14/2013  03:10:00      -34.144      -14.446       -0.663       10.219       10.914        7.812      104.434      119.120       61.028        0.083        0.014       37.074        5.374        0.021      328.221       -5.814      873.934
12/14/2013  03:11:00      -45.619      -14.997       -5.594       10.361        8.490        8.373      107.351       72.083       70.104        0.129        0.012       48.021        4.665        0.009      328.147       -5.934      873.928
12/14/2013  03:12:00      -50.396      -27.005      -10.374       13.708       12.059        9.979      187.899      145.408       99.582        0.190        0.022       57.176        5.997        0.011      328.079       -6.045      873.928
12/14/2013  03:13:00      -53.753      -11.479       -7.128        8.366        9.781        6.452       69.988       95.670       41.624        0.164        0.010       54.965        2.730        0.002      328.013       -6.152      873.932
12/14/2013  03:14:00      -58.743      -18.266      -10.579        8.593        8.599        7.292       73.845       73.939       53.169        0.205        0.010       61.518        2.583        0.002      328.003       -6.168      873.937
12/14/2013  03:15:00      -84.514      -15.471      -14.007       14.484        8.285        7.543      209.784       68.635       56.902        0.396        0.017       85.918        3.579        0.002      327.951       -6.253      873.918
12/14/2013  03:16:00      -88.253      -11.758      -13.800       15.199       12.991        8.643      231.020      168.775       74.697        0.430        0.024       89.033        6.454        0.005      327.911       -6.316      873.904
12/14/2013  03:17:00      -81.622      -13.526      -15.542       12.507       10.865        8.969      156.418      118.055       80.438        0.372        0.018       82.735        6.146        0.006      327.867       -6.388      873.910
12/14/2013  03:18:00      -82.948      -21.375       -9.509       16.522       13.300       11.009      272.984      176.897      121.188        0.400        0.029       85.657        7.217        0.007      327.877       -6.372      873.914
12/14/2013  03:19:00      -62.315      -24.512      -15.722       15.254       12.962       11.013      232.675      168.005      121.281        0.263        0.026       66.963        4.773        0.005      327.935       -6.279      873.900
12/14/2013  03:20:00      -77.431      -20.432      -15.132       17.637       14.148       14.027      311.058      200.171      196.760        0.367        0.035       80.082        7.089        0.008      327.826       -6.456      873.886
12/14/2013  03:21:00      -74.483      -12.578      -14.818       16.387       12.790       11.532      268.549      163.580      132.991        0.325        0.028       75.537        9.542        0.016      327.802       -6.496      873.874
12/14/2013  03:22:00      -75.152      -15.084      -11.924       15.795       11.166       11.873      249.470      124.679      140.980        0.327        0.026       76.651        9.218        0.014      327.831       -6.447      873.871
12/14/2013  03:23:00      -90.370      -19.354      -15.310       11.107       14.029        8.389      123.358      196.807       70.384        0.458        0.020       92.419        1.263        0.000      327.789       -6.517      873.879
12/14/2013  03:24:00     -108.200      -20.805      -14.996       19.837       17.219       15.811      393.520      296.491      249.980        0.665        0.047      110.182        7.511        0.005      327.712       -6.641      873.897
12/14/2013  03:25:00     -132.861      -25.912      -13.453       25.744       23.571       13.046      662.768      555.584      170.205        0.995        0.069      135.364       11.874        0.008      327.719       -6.630      873.899
12/14/2013  03:26:00     -120.084      -15.689      -13.653       27.697       27.938       19.353      767.136      780.526      374.528        0.839        0.096      121.104       14.350        0.014      327.657       -6.731      873.888
12/14/2013  03:27:00     -101.129      -25.971       -7.529       28.805       34.473       16.720      829.721     1188.403      279.546        0.663        0.115      104.410       10.880        0.011      327.683       -6.689      873.895
12/14/2013  03:28:00     -143.000      -12.539      -14.537       22.569       17.530       15.240      509.345      307.305      232.251        1.093        0.052      143.548        6.309        0.002      327.647       -6.747      873.904
12/14/2013  03:29:00     -130.992      -11.409      -14.705       36.413       25.710       18.363     1325.924      661.024      337.207        0.991        0.116      131.488       20.774        0.025      327.634       -6.769      873.895
12/14/2013  03:30:00     -125.931       -4.474      -13.269       34.424       24.679       26.495     1184.980      609.069      701.964        0.927        0.125      126.010       13.231        0.011      327.634       -6.770      873.892
12/14/2013  03:31:00     -143.097      -22.038      -15.406       27.540       25.141       18.176      758.458      632.076      330.349        1.146        0.086      144.784       11.255        0.006      327.632       -6.772      873.898
12/14/2013  03:32:00     -150.839      -32.530      -16.545       29.434       31.198       21.877      866.384      973.304      478.621        1.320        0.116      154.307       13.347        0.007      327.594       -6.834      873.914
12/14/2013  03:33:00     -141.971      -44.210       -3.139       30.201       36.697       24.071      912.112     1346.686      579.429        1.248        0.142      148.696       17.650        0.014      327.555       -6.897      873.906
12/14/2013  03:34:00     -133.270      -39.036       -2.419       41.686       35.944       21.234     1737.746     1291.967      450.868        1.138        0.174      138.869       20.293        0.021      327.662       -6.724      873.884
12/14/2013  03:35:00     -131.379      -24.811       -9.055       37.319       31.936       20.906     1392.685     1019.938      437.045        1.040        0.142      133.701       17.540        0.017      327.591       -6.838      873.878
12/14/2013  03:36:00     -113.019      -21.817       -6.298       41.556       29.334       21.824     1726.905      860.490      476.303        0.818        0.153      115.105       23.078        0.040      327.652       -6.739      873.870
12/14/2013  03:37:00     -137.981      -24.796      -13.426       20.713       19.605       17.144      429.042      384.366      293.905        1.047        0.055      140.191       14.022        0.010      327.677       -6.699      873.865
12/14/2013  03:38:00      -97.148      -32.077       -6.788       25.851       24.331       15.973      668.266      591.992      255.145        0.601        0.076      102.306       13.938        0.019      327.763       -6.558      873.854
12/14/2013  03:39:00      -96.568      -18.236       -7.957       25.291       22.614       14.024      639.647      511.372      196.686        0.553        0.067       98.274       13.061        0.018      327.810       -6.482      873.837
12/14/2013  03:40:00      -70.894      -20.879       -6.659       21.133       20.241       15.999      446.622      409.696      255.970        0.331        0.056       73.905        7.920        0.011      327.837       -6.438      873.817
12/14/2013  03:41:00      -63.578      -34.675       -6.128       17.964       24.360       12.383      322.718      593.419      153.330        0.318        0.053       72.419       10.620        0.022      327.911       -6.316      873.802
12/14/2013  03:42:00      -71.564      -28.046       -0.911       21.470       20.016       13.601      460.959      400.650      184.980        0.348        0.052       76.863       11.496        0.022      327.937       -6.275      873.808
12/14/2013  03:43:00      -84.258      -37.099       -9.404       18.460       21.491       14.031      340.772      461.874      196.865        0.478        0.050       92.064        8.371        0.008      328.004       -6.166      873.813
12/14/2013  03:44:00      -71.047      -28.695       -4.080       17.247       15.248       12.061      297.452      232.508      145.478        0.328        0.034       76.623        9.563        0.016      328.041       -6.106      873.816
12/14/2013  03:45:00      -86.071      -33.209       -5.663       13.505       15.380       13.217      182.394      236.540      174.687        0.457        0.030       92.255       10.265        0.012      328.096       -6.017      873.814
12/14/2013  03:46:00      -88.374      -28.697      -11.150       23.383       15.813        9.430      546.784      250.037       88.933        0.482        0.044       92.916        9.279        0.010      328.119       -5.979      873.809
12/14/2013  03:47:00      -57.265      -13.444       -5.826       13.326       15.113       11.542      177.573      228.392      133.216        0.202        0.027       58.822        7.309        0.015      328.126       -5.967      873.788
12/14/2013  03:48:00      -69.383       -4.103       -6.635       25.121       11.335       12.120      631.081      128.482      146.886        0.289        0.045       69.504       12.413        0.032      328.123       -5.972      873.762
12/14/2013  03:49:00      -98.429        6.366      -10.773        9.211        6.570        6.076       84.843       43.164       36.912        0.500        0.008       98.635        2.621        0.001      328.068       -6.060      873.756
12/14/2013  03:50:00      -99.999       -2.247      -11.555        9.412        7.705        8.740       88.583       59.370       76.383        0.518        0.011      100.024        3.378        0.001      328.051       -6.090      873.765
12/14/2013  03:51:00      -97.349      -18.082       -7.196       18.309       17.383       14.578      335.207      302.185      212.516        0.535        0.042       99.014       12.523        0.016      328.046       -6.097      873.782
12/14/2013  03:52:00     -111.798      -16.120       -9.479       15.099       15.650       15.428      227.976      244.925      238.025        0.678        0.036      112.954       10.210        0.008      327.985       -6.197      873.793
12/14/2013  03:53:00      -96.071      -27.623       -7.517       24.263       16.074       14.203      588.688      258.384      201.720        0.555        0.052       99.964       11.366        0.013      327.944       -6.264      873.813
12/14/2013  03:54:00     -100.428      -16.062       -5.949       26.928       22.415       20.098      725.143      502.449      403.939        0.601        0.082      101.705       16.404        0.026      327.840       -6.434      873.832
12/14/2013  03:55:00      -99.278       -9.012      -10.348       17.148       19.325       14.711      294.040      373.447      216.401        0.546        0.044       99.687        9.497        0.009      327.720       -6.629      873.849
12/14/2013  03:56:00     -120.056      -17.531      -16.582       19.132       15.205       16.557      366.021      231.200      274.136        0.793        0.044      121.330       13.018        0.012      327.685       -6.685      873.857
12/14/2013  03:57:00      -72.339      -46.587       -4.795       25.815       20.394       16.456      666.438      415.908      270.794        0.439        0.068       86.042       12.688        0.022      327.700       -6.661      873.859
12/14/2013  03:58:00      -86.430      -13.730       -3.081       28.925       17.063       15.481      836.658      291.159      239.663        0.452        0.068       87.513        8.145        0.009      327.656       -6.734      873.860
12/14/2013  03:59:00      -79.802      -29.003       -3.590       23.339       21.975       15.435      544.691      482.889      238.254        0.424        0.063       84.909       12.455        0.022      327.665       -6.718      873.869
12/14/2013  04:00:00      -97.047      -13.352      -14.285       18.240       15.530       12.219      332.697      241.186      149.292        0.526        0.036       97.961       10.419        0.011      327.686       -6.684      873.876
12/14/2013  04:01:00      -69.385      -27.718       -9.990       12.175       14.426       11.966      148.220      208.109      143.197        0.309        0.025       74.716        5.433        0.005      327.731       -6.611      873.879
12/14/2013  04:02:00      -85.183       -3.817       -9.933       28.310       17.871       14.999      801.437      319.371      224.974        0.436        0.067       85.268       10.035        0.014      327.664       -6.719      873.880
12/14/2013  04:03:00     -116.561        7.793       -9.616       18.958       15.423       17.771      359.392      237.867      315.810        0.733        0.046      116.822       12.485        0.011      327.572       -6.869      873.882
12/14/2013  04:04:00     -102.846      -19.892      -11.659       22.827       17.099       15.326      521.064      292.361      234.874        0.608        0.052      104.752       12.031        0.013      327.565       -6.882      873.884
12/14/2013  04:05:00      -89.479      -31.911       -9.677       21.782       27.737       11.804      474.462      769.349      139.333        0.525        0.069       94.999        8.050        0.007      327.588       -6.843      873.882
12/14/2013  04:06:00      -79.735      -38.588      -10.547       12.592       20.021       12.254      158.561      400.844      150.170        0.433        0.035       88.582        9.321        0.011      327.608       -6.810      873.872
12/14/2013  04:07:00      -87.381      -45.672      -16.244       21.956       16.425       12.081      482.047      269.768      145.958        0.544        0.045       98.597       10.463        0.011      327.676       -6.700      873.858
12/14/2013  04:08:00      -67.204      -41.974       -2.995       34.894       24.947       19.649     1217.624      622.367      386.099        0.426        0.111       79.236       22.324        0.079      327.653       -6.738      873.861
12/14/2013  04:09:00      -90.079      -19.619      -10.378       18.804       21.255       12.526      353.578      451.772      156.888        0.478        0.048       92.191        8.078        0.008      327.596       -6.830      873.872
12/14/2013  04:10:00      -76.733      -10.018      -10.259       14.563       16.640       13.757      212.084      276.899      189.247        0.339        0.034       77.384        9.962        0.017      327.635       -6.768      873.883
12/14/2013  04:11:00      -80.945       -8.549       -8.566       18.854       13.193        9.704      355.486      174.048       94.175        0.366        0.031       81.395        5.309        0.004      327.651       -6.742      873.885
12/14/2013  04:12:00     -116.854       -8.557      -13.205       16.505       11.617       10.273      272.413      134.954      105.527        0.721        0.026      117.167        4.486        0.001      327.639       -6.760      873.879
12/14/2013  04:13:00     -106.777      -30.211      -10.903       18.006       19.452       15.298      324.219      378.387      234.027        0.668        0.047      110.969       10.280        0.009      327.626       -6.782      873.871
12/14/2013  04:14:00      -81.851      -18.012      -10.289       17.557       15.352       13.912      308.265      235.693      193.546        0.393        0.037       83.810        8.446        0.010      327.659       -6.728      873.851
12/14/2013  04:15:00      -92.886       -4.936      -12.041       15.570       10.990       11.662      242.427      120.774      136.011        0.465        0.025       93.017        9.326        0.010      327.636       -6.765      873.841
12/14/2013  04:16:00     -112.904       -1.423      -16.389       19.312       11.642       12.569      372.950      135.535      157.975        0.684        0.033      112.913        6.246        0.003      327.622       -6.788      873.845
12/14/2013  04:17:00      -80.486       -9.927      -11.649       17.052       10.879       11.295      290.756      118.352      127.574        0.362        0.027       81.096        7.751        0.009      327.638       -6.761      873.855
12/14/2013  04:18:00      -88.181       -5.935      -13.596       12.821        9.158        8.251      164.371       83.861       68.075        0.416        0.016       88.380        3.232        0.001      327.653       -6.738      873.864
12/14/2013  04:19:00      -54.127       -6.829       -8.720       18.315       10.103        7.573      335.433      102.071       57.356        0.177        0.025       54.556        5.545        0.010      327.700       -6.662      873.880
12/14/2013  04:20:00      -51.145       -7.399       -7.595       18.077        6.735        7.210      326.794       45.366       51.983        0.158        0.021       51.677        6.497        0.016      327.681       -6.690      873.901
12/14/2013  04:21:00      -59.049       -7.884      -14.053       10.288        9.425        7.100      105.851       88.829       50.409        0.200        0.012       59.573        4.732        0.006      327.689       -6.680      873.920
12/14/2013  04:22:00      -53.077       -5.585       -7.044        9.513        6.659        7.204       90.504       44.336       51.896        0.154        0.009       53.370        1.335        0.001      327.698       -6.666      873.928
12/14/2013  04:23:00      -66.850      -18.004      -15.148        7.502        8.397        7.382       56.275       70.508       54.491        0.260        0.009       69.231        3.157        0.002      327.697       -6.665      873.923
12/14/2013  04:24:00      -86.047      -16.178      -10.651       16.851       13.270       11.558      283.943      176.096      133.595        0.419        0.030       87.555        7.477        0.007      327.663       -6.721      873.924
12/14/2013  04:25:00      -87.181       -4.978       -9.786       15.879       17.087       11.967      252.144      291.971      143.217        0.420        0.034       87.323        3.885        0.002      327.587       -6.844      873.934
12/14/2013  04:26:00      -88.305        1.301      -10.663       15.024       10.203       11.111      225.722      104.098      123.454        0.418        0.023       88.314        8.846        0.010      327.616       -6.798      873.958
12/14/2013  04:27:00      -63.226      -17.991      -10.391        9.512        8.884        8.069       90.482       78.928       65.107        0.233        0.012       65.736        5.717        0.008      327.653       -6.738      873.995
12/14/2013  04:28:00      -75.125      -14.428      -12.638       15.249       12.604       10.617      232.533      158.870      112.724        0.326        0.025       76.498        5.945        0.006      327.631       -6.774      874.042
12/14/2013  04:29:00      -89.920      -12.425      -12.244       16.789       13.180       10.347      281.857      173.722      107.067        0.448        0.028       90.774        9.536        0.011      327.614       -6.800      874.067
12/14/2013  04:30:00      -80.912       -8.538       -6.512       24.893       15.090       11.767      619.681      227.714      138.461        0.382        0.049       81.361       11.781        0.021      327.589       -6.841      874.088
12/14/2013  04:31:00      -64.127      -17.930       -7.787       19.768       14.780       10.817      390.757      218.455      117.003        0.261        0.036       66.586       10.657        0.026      327.560       -6.889      874.105
12/14/2013  04:32:00      -51.881      -23.978       -9.685       16.294       10.739       13.096      265.501      115.327      171.502        0.196        0.028       57.154       11.020        0.037      327.693       -6.673      874.121
12/14/2013  04:33:00      -56.615      -20.603      -16.404       16.827       14.579       10.665      283.144      212.547      113.740        0.225        0.030       60.247        3.973        0.004      327.670       -6.710      874.120
12/14/2013  04:34:00      -78.965      -10.898      -10.093       14.074       12.163       10.453      198.068      147.937      109.264        0.346        0.023       79.713        5.318        0.004      327.607       -6.812      874.119
12/14/2013  04:35:00     -111.847      -11.532      -10.949       16.272       15.090       14.747      264.782      227.720      217.488        0.674        0.035      112.440        6.548        0.003      327.618       -6.795      874.129
12/14/2013  04:36:00     -101.498      -14.149      -11.786       23.577       19.481       13.186      555.859      379.512      173.879        0.587        0.055      102.480        8.036        0.006      327.578       -6.859      874.151
12/14/2013  04:37:00      -70.356       -7.975      -11.787       16.982       11.525       10.476      288.371      132.836      109.740        0.284        0.027       70.806       10.035        0.020      327.633       -6.770      874.174
12/14/2013  04:38:00      -87.959      -12.408      -14.171        9.771       10.524        8.430       95.466      110.756       71.066        0.418        0.014       88.830        5.459        0.004      327.686       -6.682      874.194
12/14/2013  04:39:00     -105.037       -6.871      -16.738       17.382       14.731       11.352      302.137      216.989      128.872        0.600        0.032      105.261        7.616        0.005      327.627       -6.780      874.208
12/14/2013  04:40:00      -89.449        6.720      -12.002       22.818       20.013       17.093      520.648      400.513      292.187        0.470        0.061       89.701       13.276        0.022      327.654       -6.736      874.231
12/14/2013  04:41:00      -91.433        2.388      -13.672       23.719       17.643       17.417      562.584      311.276      303.366        0.486        0.059       91.464       10.704        0.014      327.675       -6.701      874.245
12/14/2013  04:42:00      -75.159       -9.703      -10.200       18.511       17.286       11.869      342.675      298.808      140.865        0.331        0.039       75.783        8.352        0.012      327.656       -6.733      874.244
12/14/2013  04:43:00      -76.236       -8.080       -8.279       13.199       11.573       10.063      174.217      133.939      101.264        0.318        0.020       76.663        7.244        0.009      327.636       -6.767      874.232
12/14/2013  04:44:00      -55.347      -12.556       -6.849       11.070       14.020        9.539      122.548      196.557       90.997        0.184        0.021       56.754        5.807        0.010      327.693       -6.672      874.232
12/14/2013  04:45:00      -48.834        0.684       -6.954        8.136        7.840        8.430       66.201       61.461       71.067        0.132        0.010       48.838        4.910        0.010      327.805       -6.490      874.235
12/14/2013  04:46:00      -44.443       -0.191       -5.632       13.678       10.964        9.019      187.092      120.207       81.341        0.120        0.019       44.443        7.760        0.030      327.994       -6.182      874.235
12/14/2013  04:47:00      -61.335      -16.750       -6.497       10.108        9.620        9.719      102.178       92.551       94.459        0.219        0.014       63.581        5.004        0.006      327.934       -6.277      874.226
12/14/2013  04:48:00      -51.935       -5.885      -10.108       11.886        7.944        6.488      141.277       63.102       42.093        0.154        0.012       52.267        4.424        0.007      327.906       -6.326      874.214
12/14/2013  04:49:00      -36.272        0.249       -4.898       19.904        8.682        8.198      396.189       75.386       67.213        0.094        0.027       36.273        9.230        0.065      328.042       -6.106      874.201
12/14/2013  04:50:00      -31.545        1.683       -2.177        5.882        9.871        8.224       34.598       97.440       67.640        0.060        0.010       31.590        4.482        0.020      328.032       -6.120      874.206
12/14/2013  04:51:00      -13.841       -3.109        0.805        7.704        6.818        4.146       59.355       46.484       17.186        0.016        0.006       14.186        3.276        0.053      328.019       -6.140      874.222
12/14/2013  04:52:00      -13.262      -10.220       -1.684       17.654       10.098        7.289      311.656      101.973       53.129        0.037        0.023       16.743        5.257        0.099      328.109       -5.994      874.232
12/14/2013  04:53:00      -58.803      -15.642      -11.104       18.579       11.669        6.991      345.162      136.159       48.869        0.218        0.027       60.847        4.604        0.006      327.840       -6.433      874.221
12/14/2013  04:54:00      -82.409       -0.328       -8.692       18.123       15.302       11.821      328.436      234.139      139.732        0.378        0.035       82.409        4.463        0.003      327.703       -6.655      874.214
12/14/2013  04:55:00      -91.779       -3.154       -6.598       29.134       16.626       14.054      848.762      276.424      197.520        0.490        0.066       91.833       10.921        0.014      327.659       -6.728      874.213
12/14/2013  04:56:00      -90.118       -6.859      -13.205       17.383       21.896       14.359      302.180      479.452      206.191        0.467        0.049       90.379       11.014        0.015      327.655       -6.735      874.224
12/14/2013  04:57:00      -81.970       -7.829       -6.822       12.916       12.691       10.843      166.834      161.058      117.575        0.364        0.022       82.343        5.559        0.005      327.707       -6.651      874.239
12/14/2013  04:58:00      -75.339      -24.210       -7.836       15.958       14.473       13.677      254.666      209.456      187.058        0.349        0.033       79.133       10.994        0.019      327.744       -6.589      874.250
12/14/2013  04:59:00      -70.594      -22.801       -4.053       20.457       16.595       15.219      418.502      275.398      231.603        0.322        0.046       74.185       12.110        0.027      327.738       -6.599      874.269
12/14/2013  05:00:00      -55.953       -6.379       -2.641       23.820       17.243       19.289      567.380      297.337      372.074        0.221        0.062       56.315       19.053        0.114      327.658       -6.730      874.300
12/14/2013  05:01:00      -72.814      -10.464       -8.841       13.176       10.844        9.187      173.614      117.583       84.404        0.293        0.019       73.562        6.742        0.008      327.669       -6.711      874.336
12/14/2013  05:02:00      -85.767       -2.023      -11.511       19.604       12.816       13.581      384.306      164.256      184.431        0.411        0.037       85.791        9.785        0.013      327.671       -6.708      874.365
12/14/2013  05:03:00      -70.920       -2.500      -12.767       20.222       17.139       12.678      408.924      293.738      160.732        0.303        0.043       70.964        7.765        0.012      327.607       -6.811      874.387
12/14/2013  05:04:00      -79.363      -11.925       -9.655       21.361       21.597       11.426      456.303      466.416      130.560        0.379        0.053       80.254        7.364        0.008      327.592       -6.838      874.420
12/14/2013  05:05:00      -87.890      -17.652       -8.963       20.480       17.864       13.710      419.441      319.133      187.961        0.452        0.046       89.645        6.622        0.005      327.584       -6.849      874.448
12/14/2013  05:06:00     -109.264      -15.281      -15.035       19.651       16.532       12.463      386.152      273.295      155.319        0.661        0.041      110.327        7.750        0.005      327.602       -6.820      874.463
12/14/2013  05:07:00      -95.751      -15.894      -11.226       27.548       15.574       13.871      758.913      242.563      192.398        0.537        0.060       97.061       15.644        0.026      327.568       -6.876      874.470
12/14/2013  05:08:00      -95.486       -5.682      -11.616       15.882       11.369       11.107      252.253      129.253      123.363        0.489        0.025       95.655        6.340        0.004      327.604       -6.817      874.482
12/14/2013  05:09:00      -68.500      -15.511      -10.033       10.758        8.682        9.146      115.740       75.375       83.657        0.265        0.014       70.235        5.399        0.006      327.766       -6.553      874.489
12/14/2013  05:10:00      -44.014      -12.992        0.565       14.835       13.895       13.235      220.072      193.079      175.175        0.135        0.029       45.891        9.650        0.044      327.757       -6.570      874.497
12/14/2013  05:11:00      -47.270       -7.648       -7.191        9.437       10.498        7.444       89.051      110.217       55.417        0.130        0.013       47.885        6.610        0.019      327.808       -6.486      874.511
12/14/2013  05:12:00      -35.622      -14.586       -1.238        8.664        8.244        7.753       75.072       67.964       60.116        0.084        0.010       38.493        6.855        0.032      327.846       -6.423      874.522
12/14/2013  05:13:00      -32.587       -3.877      -10.088        7.312        6.882        3.835       53.469       47.368       14.707        0.065        0.006       32.817        2.369        0.005      327.921       -6.301      874.525
12/14/2013  05:14:00      -27.828        1.866       -2.439        9.539        5.473        5.755       90.983       29.950       33.124        0.047        0.008       27.890        3.674        0.017      327.973       -6.215      874.524
12/14/2013  05:15:00      -11.892      -12.654        4.512       11.370        9.200        5.425      129.276       84.648       29.431        0.028        0.012       17.366        5.282        0.093      328.119       -5.979      874.519
12/14/2013  05:16:00       -4.274      -10.973       -3.599        7.602        8.979        4.987       57.796       80.618       24.866        0.016        0.008       11.776        2.662        0.051      328.070       -6.059      874.520
12/14/2013  05:17:00      -15.851      -13.040       -6.340       10.318        8.017        5.495      106.451       64.272       30.199        0.033        0.010       20.526        3.039        0.022      327.998       -6.175      874.545
12/14/2013  05:18:00      -27.837      -13.903       -4.827        9.252        5.310        3.460       85.596       28.193       11.974        0.056        0.006       31.116        2.648        0.007      327.974       -6.215      874.571
12/14/2013  05:19:00      -53.846      -16.531       -4.908       12.600        8.785        5.134      158.767       77.182       26.358        0.173        0.013       56.327        2.863        0.003      327.922       -6.299      874.586
12/14/2013  05:20:00      -84.264       -9.265      -11.702       10.967        8.393        9.328      120.268       70.448       87.004        0.380        0.014       84.772        5.449        0.004      327.706       -6.651      874.586
12/14/2013  05:21:00      -64.907      -14.690      -11.719       16.299       17.907        9.952      265.671      320.670       99.046        0.263        0.034       66.548        6.099        0.008      327.735       -6.605      874.584
12/14/2013  05:22:00      -98.683      -25.835      -14.767       21.158       15.965        9.950      447.670      254.892       98.999        0.571        0.040      102.008       10.035        0.010      327.804       -6.492      874.587
12/14/2013  05:23:00     -110.560      -21.488       -8.257       22.458       20.275       13.928      504.341      411.090      193.984        0.693        0.055      112.629       10.771        0.009      327.743       -6.590      874.575
12/14/2013  05:24:00     -128.436      -47.275      -11.488       21.462       19.996       15.141      460.620      399.822      229.256        0.998        0.054      136.860       12.690        0.009      327.713       -6.640      874.565
12/14/2013  05:25:00     -103.948      -17.562       -6.805       17.073       15.391       13.753      291.489      236.890      189.146        0.594        0.036      105.421        8.124        0.006      327.662       -6.723      874.569
12/14/2013  05:26:00      -73.547       -8.991       -8.260       13.938       14.370        9.928      194.256      206.495       98.568        0.303        0.025       74.094        4.903        0.004      327.698       -6.663      874.584
12/14/2013  05:27:00      -66.066      -13.089       -7.522        9.779       11.056       12.641       95.631      122.246      159.790        0.249        0.019       67.350        8.483        0.016      327.824       -6.459      874.597
12/14/2013  05:28:00      -71.796      -17.907       -6.349       16.199       13.900        8.550      262.405      193.211       73.111        0.302        0.026       73.995        3.949        0.003      327.867       -6.389      874.585
12/14/2013  05:29:00      -71.128      -33.793        0.318       23.817       16.411        9.698      567.229      269.313       94.057        0.357        0.047       78.747        7.688        0.010      327.793       -6.511      874.577
12/14/2013  05:30:00      -61.371      -37.664        3.010       30.437       23.569       17.270      926.394      555.496      298.270        0.349        0.089       72.006       12.946        0.032      327.807       -6.487      874.569
12/14/2013  05:31:00      -53.935      -44.764        1.021       37.516       21.182       14.007     1407.451      448.671      196.196        0.348        0.103       70.092       10.803        0.024      327.820       -6.466      874.579
12/14/2013  05:32:00      -72.826      -48.180        3.114       26.378       22.893       15.496      695.773      524.102      240.139        0.455        0.073       87.320       10.117        0.013      327.862       -6.397      874.598
12/14/2013  05:33:00     -105.980      -66.577       -4.097       31.684       19.847       18.369     1003.905      393.917      337.431        0.871        0.087      125.157        6.625        0.003      327.868       -6.388      874.599
12/14/2013  05:34:00      -87.423      -58.017       -2.686       49.923       29.734       27.139     2492.259      884.138      736.544        0.756        0.206      104.923       25.296        0.058      327.910       -6.319      874.580
12/14/2013  05:35:00      -99.479      -68.938       -5.893       46.855       34.527       26.202     2195.362     1192.096      686.543        0.938        0.204      121.031       25.822        0.046      327.882       -6.364      874.555
12/14/2013  05:36:00      -98.712      -48.846        4.123       56.772       50.164       38.789     3223.106     2516.470     1504.587        0.969        0.362      110.137       30.447        0.076      327.831       -6.448      874.538
12/14/2013  05:37:00      -48.278      -35.995        0.428       47.961       39.866       30.321     2300.296     1589.261      919.387        0.422        0.240       60.220       21.917        0.132      327.830       -6.449      874.541
12/14/2013  05:38:00      -54.320      -64.752       -5.573       55.376       51.098       26.118     3066.474     2611.020      682.143        0.677        0.318       84.519       26.755        0.100      327.763       -6.560      874.532
12/14/2013  05:39:00      -64.923      -47.860       11.650       55.570       50.747       38.586     3087.977     2575.304     1488.888        0.690        0.358       80.657       30.516        0.143      327.646       -6.751      874.528
12/14/2013  05:40:00     -150.175     -117.691      -15.193       58.965       62.105       33.513     3476.823     3857.077     1123.126        2.254        0.423      190.798       26.313        0.019      327.654       -6.739      874.529
12/14/2013  05:41:00     -162.296     -119.915       -6.962       57.246       35.626       36.596     3277.159     1269.223     1339.282        2.333        0.294      201.791       26.263        0.017      327.646       -6.750      874.539
12/14/2013  05:42:00     -146.031      -82.829       -5.667       46.852       43.687       28.420     2195.107     1908.521      807.722        1.656        0.246      167.886       21.876        0.017      327.637       -6.764      874.540
12/14/2013  05:43:00     -126.799      -96.392       -6.268       64.507       45.412       30.888     4161.106     2062.206      954.070        1.629        0.359      159.278       29.799        0.035      327.723       -6.624      874.540
12/14/2013  05:44:00     -118.868      -89.357       -8.500       74.690       47.576       39.972     5578.579     2263.474     1597.750        1.581        0.472      148.709       42.939        0.083      327.800       -6.500      874.539
12/14/2013  05:45:00     -140.381      -92.418        2.324       54.546       39.390       31.902     2975.232     1551.574     1017.728        1.690        0.277      168.071       23.440        0.019      327.832       -6.446      874.539
12/14/2013  05:46:00     -141.750     -112.866       -7.643       42.256       57.588       26.357     1785.576     3316.376      694.685        1.934        0.290      181.196       24.213        0.018      327.909       -6.323      874.548
12/14/2013  05:47:00     -125.302     -109.024       -6.624       40.953       44.755       32.023     1677.165     2003.044     1025.454        1.617        0.235      166.093       23.913        0.021      327.923       -6.298      874.557
12/14/2013  05:48:00     -109.855      -94.541        0.122       35.293       35.831       27.210     1245.612     1283.849      740.389        1.214        0.163      144.935       21.778        0.023      327.897       -6.340      874.576
12/14/2013  05:49:00      -66.579      -57.309        4.329       53.072       39.714       18.813     2816.662     1577.165      353.946        0.624        0.237       87.847       20.588        0.055      327.925       -6.295      874.595
12/14/2013  05:50:00     -108.562      -32.133      -12.298       17.891       27.807       14.607      320.104      773.205      213.376        0.714        0.065      113.218        5.585        0.002      327.842       -6.430      874.606
12/14/2013  05:51:00      -83.870      -20.606        4.528       25.802       27.732       16.505      665.750      769.051      272.414        0.459        0.085       86.364       15.244        0.031      327.747       -6.585      874.604
12/14/2013  05:52:00      -84.674      -10.641        1.507       24.053       18.398       17.282      578.538      338.470      298.679        0.425        0.061       85.340       12.510        0.021      327.682       -6.689      874.599
12/14/2013  05:53:00      -72.700      -19.128        2.494       29.622       30.059       18.343      877.484      903.516      336.456        0.389        0.106       75.175       18.952        0.064      327.732       -6.609      874.591
12/14/2013  05:54:00      -81.412      -12.754       -1.266       29.086       19.571       15.005      845.995      383.014      225.155        0.412        0.073       82.405       15.304        0.034      327.678       -6.696      874.589
12/14/2013  05:55:00      -85.872      -23.481        2.557       34.415       21.313       18.502     1184.413      454.230      342.321        0.496        0.099       89.024       15.619        0.031      327.597       -6.828      874.592
12/14/2013  05:56:00     -118.831      -25.637       -4.359       31.439       17.332       14.664      988.441      300.391      215.041        0.815        0.075      121.565       14.912        0.015      327.652       -6.739      874.598
12/14/2013  05:57:00     -109.027       -6.518       -1.337       39.231       23.964       21.033     1539.043      574.283      442.400        0.724        0.128      109.221       22.642        0.043      327.562       -6.885      874.599
12/14/2013  05:58:00     -126.043      -12.878       -4.883       40.363       17.495       18.597     1629.164      306.077      345.858        0.918        0.114      126.700       21.672        0.029      327.518       -6.957      874.582
12/14/2013  05:59:00     -130.549      -14.642       -8.465       21.760       15.985       12.931      473.496      255.516      167.209        0.911        0.045      131.368       10.471        0.006      327.466       -7.041      874.579
12/14/2013  06:00:00      -98.172       -3.308       -4.390       29.347       20.197       20.009      861.259      407.907      400.342        0.567        0.083       98.228       19.464        0.039      327.427       -7.106      874.588
12/14/2013  06:01:00     -101.274       -5.738       -6.442       31.003       17.262       18.635      961.198      297.986      347.264        0.597        0.080      101.436       17.096        0.028      327.468       -7.039      874.604
12/14/2013  06:02:00     -126.308      -16.080       -5.586       22.572       18.852       15.033      509.484      355.400      225.990        0.867        0.055      127.328       11.667        0.008      327.530       -6.936      874.614
12/14/2013  06:03:00     -113.765      -16.214       -1.784       32.022       25.482       18.254     1025.377      649.325      333.196        0.761        0.100      114.915       18.779        0.027      327.503       -6.981      874.609
12/14/2013  06:04:00     -116.710      -11.232       -8.064       27.383       16.914       14.716      749.823      286.073      216.559        0.753        0.063      117.249       12.971        0.012      327.470       -7.035      874.612
12/14/2013  06:05:00      -97.658      -12.444       -5.943       16.349       16.334       14.058      267.304      266.798      197.618        0.523        0.037       98.448        9.193        0.009      327.467       -7.041      874.615
12/14/2013  06:06:00      -76.303      -23.700      -11.970       14.718       13.082        9.147      216.608      171.132       83.676        0.350        0.024       79.899        6.292        0.006      327.532       -6.935      874.614
12/14/2013  06:07:00      -73.287      -18.987      -10.269       21.027       17.586       10.348      442.155      309.270      107.084        0.335        0.043       75.707        6.762        0.008      327.515       -6.963      874.619
12/14/2013  06:08:00      -65.276      -20.717       -2.363       25.626       23.105       10.739      656.701      533.849      115.336        0.300        0.065       68.485       10.735        0.025      327.620       -6.792      874.621
12/14/2013  06:09:00      -72.615      -23.811       -4.981       23.230       20.743       14.125      539.627      430.256      199.514        0.352        0.058       76.419       11.049        0.021      327.590       -6.840      874.631
12/14/2013  06:10:00      -89.044      -10.679       -7.242       23.454       26.855       18.070      550.106      721.176      326.538        0.485        0.080       89.682       14.887        0.028      327.602       -6.821      874.639
12/14/2013  06:11:00      -89.422        2.902      -10.468       28.356       17.677       17.548      804.052      312.493      307.935        0.477        0.071       89.469       13.984        0.024      327.487       -7.007      874.648
12/14/2013  06:12:00     -109.161        4.065      -13.892       28.543       18.867       13.535      814.700      355.957      183.199        0.674        0.068      109.236       14.112        0.017      327.441       -7.083      874.660
12/14/2013  06:13:00     -107.991       -0.528      -10.492       21.128       19.104       16.752      446.383      364.951      280.636        0.643        0.055      107.992        8.385        0.006      327.452       -7.065      874.677
12/14/2013  06:14:00      -87.596        0.754       -6.906       22.497       16.334       13.974      506.135      266.788      195.279        0.434        0.048       87.599       12.485        0.020      327.393       -7.159      874.684
12/14/2013  06:15:00      -56.921      -17.822      -12.353       17.317       15.536        8.922      299.875      241.382       79.605        0.217        0.031       59.646        6.144        0.011      327.461       -7.050      874.695
12/14/2013  06:16:00      -57.255      -24.593       -5.769       12.071       12.019        8.695      145.715      144.465       75.602        0.214        0.018       62.313        6.024        0.009      327.554       -6.899      874.697
12/14/2013  06:17:00      -61.927      -29.866       -3.653       15.681       13.696       11.188      245.888      187.576      125.170        0.265        0.028       68.753        3.654        0.003      327.561       -6.887      874.697
12/14/2013  06:18:00      -70.421      -20.447       -8.448       12.533       13.680       10.424      157.083      187.148      108.658        0.295        0.023       73.330        5.931        0.007      327.446       -7.074      874.704
12/14/2013  06:19:00      -68.421      -21.913       -4.516       18.561       20.678        9.693      344.511      427.577       93.948        0.302        0.043       71.845        5.864        0.007      327.427       -7.105      874.700
12/14/2013  06:20:00      -87.748      -15.018      -12.859       15.064       14.176        8.450      226.928      200.966       71.398        0.429        0.025       89.024        5.162        0.003      327.458       -7.055      874.686
12/14/2013  06:21:00      -75.577      -22.162      -11.692       11.983       11.439       12.837      143.600      130.847      164.799        0.339        0.022       78.760        5.703        0.005      327.506       -6.977      874.662
12/14/2013  06:22:00      -49.460      -23.498      -11.959       13.832       11.885       11.731      191.318      141.256      137.612        0.181        0.024       54.758        4.400        0.006      327.499       -6.989      874.633
12/14/2013  06:23:00      -41.865      -31.966       -7.900       17.155       15.113       14.657      294.308      228.390      214.820        0.179        0.037       52.674        8.959        0.029      327.490       -7.000      874.612
12/14/2013  06:24:00      -51.127      -22.297       -0.816       16.925       14.820       12.962      286.471      219.625      168.026        0.189        0.034       55.777        3.586        0.004      327.520       -6.953      874.602
12/14/2013  06:25:00      -13.167        2.919        0.095       11.788        6.127        8.079      138.957       37.537       65.267        0.021        0.012       13.486        7.712        0.327      327.539       -6.923      874.599
12/14/2013  06:26:00      -35.598      -22.238       -7.959       13.000       15.577        7.013      168.995      242.640       49.188        0.114        0.023       41.973        6.522        0.024      327.702       -6.658      874.612
12/14/2013  06:27:00      -32.608       -8.128       -1.031       10.889       11.518        9.668      118.564      132.657       93.471        0.074        0.017       33.606        5.992        0.032      327.686       -6.683      874.634
12/14/2013  06:28:00      -34.392        1.085        0.420       10.496        9.865        8.915      110.157       97.327       79.472        0.074        0.014       34.409        5.050        0.022      327.504       -6.980      874.656
12/14/2013  06:29:00      -29.140       -3.500       -7.904        6.447        6.891        4.788       41.563       47.483       22.924        0.052        0.006       29.349        2.158        0.005      327.546       -6.910      874.677
12/14/2013  06:30:00      -25.200      -12.266       -1.547        7.314        7.466        4.494       53.489       55.734       20.200        0.046        0.006       28.027        2.772        0.010      327.667       -6.714      874.700
12/14/2013  06:31:00      -15.031       -7.223       -3.141        5.512        4.942        5.520       30.378       24.425       30.472        0.019        0.004       16.677        4.480        0.072      327.650       -6.742      874.723
12/14/2013  06:32:00      -15.682        3.656       -0.786        4.652        6.098        3.219       21.646       37.186       10.365        0.016        0.003       16.102        1.162        0.005      327.646       -6.751      874.738
12/14/2013  06:33:00      -11.240        7.122       -2.456       11.911        7.316        8.002      141.868       53.522       64.027        0.022        0.013       13.306        4.845        0.133      327.644       -6.753      874.758
12/14/2013  06:34:00      -25.085        4.373       -4.589        6.356        4.733        5.794       40.396       22.401       33.574        0.038        0.005       25.463        3.558        0.020      327.696       -6.669      874.776
12/14/2013  06:35:00      -18.728        8.442       -5.337        7.533        5.771        5.116       56.751       33.304       26.178        0.028        0.006       20.543        2.142        0.011      327.655       -6.735      874.797
12/14/2013  06:36:00      -19.581        0.761        5.806        8.034        6.354        6.217       64.549       40.375       38.651        0.028        0.007       19.596        2.392        0.015      327.587       -6.844      874.811
12/14/2013  06:37:00      -10.341       -3.769       -1.057        5.639        5.338        2.582       31.803       28.489        6.664        0.009        0.003       11.007        0.661        0.004      327.616       -6.799      874.820
12/14/2013  06:38:00       -4.914        4.385        7.797        5.314        6.685        5.098       28.241       44.696       25.991        0.010        0.005        6.586        2.237        0.115      327.596       -6.829      874.839
12/14/2013  06:39:00       -0.336       11.322        8.343       13.907       12.286        8.302      193.401      150.958       68.920        0.031        0.021       11.327        8.363        0.545      327.523       -6.947      874.859
12/14/2013  06:40:00        4.411       22.854        0.416        7.853        9.016        6.405       61.672       81.286       41.030        0.036        0.009       23.275        5.569        0.057      327.536       -6.927      874.874
12/14/2013  06:41:00       -4.593       18.711       -3.062       22.527        9.073        7.067      507.455       82.328       49.941        0.051        0.032       19.267        3.744        0.038      327.462       -7.048      874.892
12/14/2013  06:42:00      -12.885       16.906        7.957       16.989       17.801       15.649      288.614      316.859      244.901        0.068        0.043       21.257       13.753        0.419      327.573       -6.868      874.925
12/14/2013  06:43:00       -2.450        8.634       11.429       13.173       11.163       12.021      173.519      124.613      144.499        0.033        0.022        8.975        6.935        0.597      327.440       -7.084      874.966
12/14/2013  06:44:00      -23.901       14.773        1.601       16.652       14.026        7.501      277.274      196.728       56.260        0.066        0.027       28.098        3.550        0.016      327.417       -7.121      874.992
12/14/2013  06:45:00      -24.442        1.363        0.347       13.003       10.956        8.244      169.076      120.042       67.964        0.048        0.018       24.480        6.579        0.072      327.287       -7.331      875.003
12/14/2013  06:46:00      -56.935       -1.382       -6.184        8.667       11.131        6.223       75.112      123.890       38.728        0.176        0.012       56.951        3.841        0.005      327.242       -7.405      875.011
12/14/2013  06:47:00      -50.216       -7.652       -8.693       18.247       17.079       11.581      332.936      291.698      134.124        0.171        0.038       50.796        9.503        0.035      327.104       -7.630      875.022
12/14/2013  06:48:00      -58.693       -1.496      -12.659       17.805       13.473       10.290      317.018      181.515      105.878        0.211        0.030       58.712       10.126        0.030      327.094       -7.646      875.044
12/14/2013  06:49:00      -47.752        0.245      -11.389       15.562       15.374       11.879      242.166      236.373      141.109        0.151        0.031       47.752        9.655        0.041      327.134       -7.583      875.069
12/14/2013  06:50:00      -59.951       -7.439      -11.121       12.165       12.102        9.837      147.992      146.449       96.765        0.208        0.020       60.410        4.952        0.007      327.129       -7.590      875.088
12/14/2013  06:51:00      -61.129       -5.003      -13.970       15.984       13.345       12.970      255.498      178.090      168.231        0.228        0.030       61.333        7.969        0.017      327.175       -7.514      875.101
12/14/2013  06:52:00      -67.892       -4.511      -12.301       16.294       12.373        9.376      265.494      153.084       87.918        0.264        0.025       68.042        8.499        0.016      327.094       -7.645      875.108
12/14/2013  06:53:00      -68.645       -7.113      -13.338        8.371       11.222        9.366       70.081      125.926       87.728        0.261        0.014       69.013        4.251        0.004      326.983       -7.826      875.126
12/14/2013  06:54:00      -56.410      -15.915       -8.178       11.506        8.567        9.103      132.396       73.394       82.869        0.190        0.014       58.612        6.378        0.012      327.010       -7.783      875.140
12/14/2013  06:55:00      -49.566      -24.240      -10.353       10.788       11.613        9.574      116.384      134.861       91.653        0.175        0.017       55.176        7.034        0.016      327.105       -7.627      875.162
12/14/2013  06:56:00      -47.220      -11.959      -10.699       10.777       11.799        7.470      116.134      139.224       55.794        0.140        0.016       48.711        5.439        0.012      327.015       -7.773      875.173
12/14/2013  06:57:00      -42.100      -10.287       -9.048       10.030       11.220        8.913      100.599      125.877       79.442        0.113        0.015       43.338        5.332        0.015      327.075       -7.676      875.181
12/14/2013  06:58:00      -37.498      -14.939       -9.104        9.239        8.631        5.165       85.353       74.498       26.673        0.095        0.009       40.365        5.366        0.018      327.179       -7.508      875.187
12/14/2013  06:59:00      -28.923      -18.008       -8.262        5.010        5.036        4.128       25.099       25.365       17.038        0.065        0.003       34.071        2.456        0.005      327.260       -7.376      875.192
12/14/2013  07:00:00      -57.156       -8.575       -5.922       16.886        9.289        9.916      285.128       86.283       98.322        0.192        0.023       57.796        6.553        0.013      327.058       -7.705      875.199
12/14/2013  07:01:00      -52.379      -16.324       -7.208       14.196        9.909        8.505      201.514       98.179       72.333        0.172        0.019       54.864        5.167        0.009      327.059       -7.703      875.218
12/14/2013  07:02:00      -64.187      -11.742      -10.123       11.308       10.670       10.425      127.865      113.852      108.688        0.236        0.018       65.252        6.652        0.010      327.111       -7.618      875.225
12/14/2013  07:03:00      -66.321      -10.594       -5.484       14.868       10.955        8.754      221.054      120.023       76.634        0.248        0.021       67.162        6.962        0.011      327.139       -7.573      875.219
12/14/2013  07:04:00      -60.973      -10.148       -6.178       14.316        9.626        9.961      204.961       92.662       99.216        0.213        0.020       61.812        7.420        0.014      327.140       -7.572      875.223
12/14/2013  07:05:00      -69.258      -17.518      -10.154       11.113       10.311        9.742      123.500      106.321       94.907        0.277        0.016       71.440        4.876        0.005      327.162       -7.535      875.228
12/14/2013  07:06:00      -76.261      -26.508       -4.440       19.006       15.087       11.608      361.209      227.608      134.753        0.363        0.036       80.737       10.317        0.016      327.157       -7.544      875.247
12/14/2013  07:07:00      -92.554      -13.848       -8.161       12.679       13.369       12.420      160.745      178.718      154.267        0.466        0.025       93.585        5.177        0.003      327.089       -7.654      875.269
12/14/2013  07:08:00      -88.577       -4.680      -14.130       16.208       11.790        8.776      262.692      138.993       77.021        0.427        0.024       88.701        6.149        0.005      327.144       -7.564      875.293
12/14/2013  07:09:00      -49.722      -28.516       -5.608       17.926       23.678       14.783      321.348      560.667      218.534        0.221        0.055       57.319       11.342        0.039      327.247       -7.397      875.318
12/14/2013  07:10:00      -68.772      -10.423      -10.900       11.964       13.953        8.738      143.146      194.678       76.356        0.269        0.021       69.557        3.337        0.002      327.173       -7.519      875.345
12/14/2013  07:11:00      -71.427      -20.361       -9.281       12.696       11.878        9.565      161.192      141.078       91.491        0.300        0.020       74.273        6.355        0.007      327.182       -7.503      875.370
12/14/2013  07:12:00      -69.686      -17.770       -7.671       15.669       11.325        9.946      245.523      128.253       98.922        0.285        0.024       71.916        7.640        0.011      327.190       -7.490      875.396
12/14/2013  07:13:00      -72.009      -15.977       -8.226       12.737       18.076       12.245      162.234      326.757      149.951        0.307        0.032       73.760        9.322        0.016      327.199       -7.475      875.402
12/14/2013  07:14:00      -79.071      -18.293       -8.041       11.837       13.777        8.736      140.120      189.815       76.310        0.353        0.020       81.159        4.114        0.003      327.219       -7.443      875.413
12/14/2013  07:15:00      -84.388      -20.570       -8.790       13.737       13.996       10.523      188.701      195.899      110.726        0.406        0.025       86.859        4.322        0.002      327.193       -7.485      875.424
12/14/2013  07:16:00      -99.754      -28.369      -11.520       16.760       15.076       12.059      280.896      227.276      145.425        0.577        0.033      103.710        9.656        0.009      327.221       -7.440      875.444
12/14/2013  07:17:00      -77.598      -23.025       -1.976       33.478       21.762       17.268     1120.753      473.569      298.177        0.422        0.095       80.942       13.375        0.027      327.245       -7.400      875.452
12/14/2013  07:18:00      -64.660      -35.256       -0.455       15.181       13.117       10.559      230.459      172.049      111.500        0.297        0.026       73.647        6.701        0.008      327.274       -7.354      875.451
12/14/2013  07:19:00      -74.448      -51.561       -5.964       20.163       18.817        9.627      406.551      354.092       92.687        0.454        0.043       90.560        4.743        0.003      327.281       -7.342      875.460
12/14/2013  07:20:00      -44.351      -22.950        1.727       31.280       19.985       14.835      978.423      399.415      220.071        0.205        0.080       49.937       15.818        0.100      327.244       -7.402      875.478
12/14/2013  07:21:00      -44.330      -23.844       -0.819       16.263       19.561        9.704      264.484      382.633       94.158        0.164        0.037       50.335        6.950        0.019      327.364       -7.207      875.513
12/14/2013  07:22:00      -22.634       -8.242       -8.427       16.349       10.035        8.362      267.278      100.708       69.917        0.054        0.022       24.088        6.037        0.063      327.481       -7.017      875.541
12/14/2013  07:23:00      -54.718      -10.960      -12.513       14.826        9.683        8.015      219.802       93.763       64.245        0.182        0.019       55.805        6.516        0.014      327.441       -7.083      875.559
12/14/2013  07:24:00      -52.710       -6.535       -5.288        7.573        9.823        8.343       57.349       96.483       69.605        0.154        0.011       53.114        4.125        0.006      327.457       -7.057      875.572
12/14/2013  07:25:00      -37.446       -4.438       -5.941        6.455        8.285        6.321       41.668       68.636       39.959        0.080        0.008       37.708        4.797        0.016      327.526       -6.944      875.583
12/14/2013  07:26:00      -36.284      -15.971       -9.476        9.718       10.532        8.534       94.439      110.932       72.830        0.097        0.014       39.643        6.845        0.030      327.568       -6.876      875.593
12/14/2013  07:27:00      -61.272      -21.196       -9.205       14.422        9.603        7.744      208.008       92.226       59.974        0.232        0.018       64.835        4.348        0.004      327.429       -7.102      875.602
12/14/2013  07:28:00      -91.661      -32.212       -9.394       16.127       12.296        8.248      260.076      151.183       68.025        0.500        0.024       97.156        3.823        0.002      327.401       -7.148      875.612
12/14/2013  07:29:00      -87.774      -28.762      -11.372       16.408       19.447       12.374      269.221      378.183      153.108        0.473        0.040       92.366        9.978        0.012      327.414       -7.126      875.631
12/14/2013  07:30:00      -75.490      -15.068       -1.038       21.469       14.571       11.745      460.897      212.318      137.947        0.337        0.041       76.979       12.488        0.026      327.356       -7.220      875.656
12/14/2013  07:31:00      -90.358       -9.187       -8.413       15.974       16.610       11.606      255.167      275.881      134.693        0.449        0.033       90.824        9.513        0.011      327.332       -7.260      875.671
12/14/2013  07:32:00     -119.491        2.664      -18.248       12.863        9.496       12.258      165.444       90.166      150.261        0.751        0.020      119.520        6.323        0.003      327.327       -7.268      875.672
12/14/2013  07:33:00      -96.739        1.492       -5.889       22.582       22.751       21.724      509.968      517.608      471.922        0.545        0.075       96.751       19.681        0.041      327.305       -7.304      875.681
12/14/2013  07:34:00     -101.121      -10.846      -12.431       20.777       14.928       12.402      431.694      222.857      153.816        0.565        0.040      101.701        7.034        0.005      327.323       -7.274      875.694
12/14/2013  07:35:00     -106.485       -4.291       -9.254       19.737       23.800       14.598      389.532      566.451      213.100        0.631        0.058      106.571        9.315        0.008      327.302       -7.308      875.705
12/14/2013  07:36:00      -78.502      -11.122      -10.952       14.352       13.894       10.159      205.988      193.048      103.202        0.345        0.025       79.286        7.575        0.009      327.359       -7.215      875.715
12/14/2013  07:37:00      -65.187        8.742       -3.407       19.117       12.130       15.687      365.460      147.129      246.069        0.255        0.038       65.770        8.137        0.015      327.327       -7.268      875.727
12/14/2013  07:38:00      -41.714       -7.470      -10.061       13.752       14.364        6.764      189.110      206.323       45.754        0.117        0.022       42.378        3.854        0.008      327.414       -7.127      875.711
12/14/2013  07:39:00      -46.886       16.270       -4.668        7.029        7.839        7.486       49.406       61.456       56.045        0.133        0.008       49.629        5.680        0.013      327.426       -7.106      875.698
12/14/2013  07:40:00      -31.363        6.289       -3.429        5.856        7.578        6.423       34.289       57.433       41.253        0.058        0.007       31.987        2.063        0.004      327.462       -7.048      875.682
12/14/2013  07:41:00      -42.281       12.494       -8.096        6.001        5.597        6.060       36.016       31.328       36.719        0.106        0.005       44.089        3.287        0.006      327.519       -6.957      875.657
12/14/2013  07:42:00      -43.485       11.888       -9.793       10.681        7.525        8.138      114.087       56.629       66.235        0.118        0.012       45.081        3.234        0.005      327.517       -6.958      875.648
12/14/2013  07:43:00      -37.737       -0.459       -7.150       16.017        8.048        8.526      256.547       64.774       72.700        0.093        0.020       37.740        5.911        0.025      327.562       -6.887      875.634
12/14/2013  07:44:00      -44.720        0.472       -4.989        9.202        6.645        7.057       84.668       44.162       49.801        0.110        0.009       44.722        4.849        0.012      327.565       -6.881      875.602
12/14/2013  07:45:00      -38.921       -0.229       -6.491        8.218        4.161        4.285       67.536       17.314       18.362        0.083        0.005       38.921        1.557        0.002      327.582       -6.855      875.578
12/14/2013  07:46:00      -31.610        2.863       -2.401        6.022        5.494        4.436       36.270       30.181       19.678        0.055        0.004       31.739        3.545        0.012      327.610       -6.808      875.570
12/14/2013  07:47:00      -21.880        1.019       -0.281        9.113        7.262        4.740       83.050       52.735       22.468        0.032        0.008       21.903        5.417        0.061      327.685       -6.688      875.555
12/14/2013  07:48:00       -6.217       -0.699       -0.448        5.075        4.263        5.005       25.759       18.172       25.047        0.005        0.003        6.256        1.078        0.030      327.863       -6.396      875.552
12/14/2013  07:49:00      -17.375       -0.822        2.285        8.738        8.468        6.081       76.361       71.706       36.978        0.025        0.009       17.394        5.071        0.085      327.781       -6.528      875.542
12/14/2013  07:50:00      -23.730       -9.812       -0.222        9.153        5.882        4.131       83.786       34.601       17.061        0.040        0.007       25.679        3.969        0.024      327.728       -6.616      875.540
12/14/2013  07:51:00      -31.465       -7.167       -2.419        6.200        9.077        4.865       38.446       82.400       23.664        0.060        0.007       32.271        2.171        0.005      327.703       -6.656      875.538
12/14/2013  07:52:00      -25.907        4.686       -0.535        9.910        8.604        5.740       98.207       74.024       32.946        0.045        0.010       26.327        4.248        0.026      327.733       -6.608      875.545
12/14/2013  07:53:00      -41.618       10.461       -0.341        6.972        6.042        7.304       48.606       36.506       53.350        0.099        0.007       42.913        3.908        0.008      327.743       -6.590      875.568
12/14/2013  07:54:00      -23.445        8.591        5.096       13.631       10.495        9.998      185.796      110.136       99.956        0.052        0.020       24.969        9.189        0.135      327.893       -6.347      875.578
12/14/2013  07:55:00      -19.323        8.103        3.437        6.041        6.562        6.247       36.490       43.055       39.029        0.028        0.006       20.953        3.355        0.026      327.854       -6.411      875.604
12/14/2013  07:56:00      -27.902       -3.803       -3.032        9.879        9.620        6.230       97.592       92.535       38.812        0.052        0.011       28.161        4.829        0.029      327.841       -6.432      875.616
12/14/2013  07:57:00      -41.630       -8.004       -1.910       13.603        8.328        7.155      185.048       69.355       51.199        0.105        0.015       42.393        7.923        0.035      327.779       -6.533      875.614
12/14/2013  07:58:00      -51.307        2.013       -2.826        9.590        6.076        5.191       91.969       36.919       26.949        0.140        0.008       51.347        3.577        0.005      327.655       -6.734      875.621
12/14/2013  07:59:00      -59.884       -2.825       -5.043       13.681       10.505       10.057      187.169      110.347      101.146        0.201        0.020       59.950        7.887        0.017      327.692       -6.673      875.621
12/14/2013  08:00:00      -48.478       -9.280        0.587       15.671       10.470        8.971      245.582      109.627       80.474        0.144        0.022       49.358        7.771        0.025      327.763       -6.559      875.620
12/14/2013  08:01:00      -29.314      -14.949        4.683       13.408       12.469        8.170      179.783      155.468       66.750        0.075        0.020       32.906        3.425        0.011      327.799       -6.501      875.618
12/14/2013  08:02:00      -17.998      -14.255       -4.979       10.683        8.100        6.820      114.123       65.611       46.518        0.039        0.011       22.959        3.897        0.029      327.901       -6.334      875.615
12/14/2013  08:03:00       -7.189        0.480       -1.816        8.776        6.869        6.988       77.022       47.183       48.831        0.011        0.009        7.205        2.249        0.097      328.105       -6.001      875.629
12/14/2013  08:04:00       -5.784       11.722       24.182        6.113       10.005        9.525       37.369      100.102       90.718        0.049        0.011       13.071        5.941        0.207      328.507       -5.347      875.628
12/14/2013  08:05:00       12.593       26.237       27.260       16.417       15.628        8.505      269.532      244.249       72.331        0.109        0.029       29.102        5.896        0.041      328.233       -5.792      875.614
12/14/2013  08:06:00       34.921       27.099        0.420       10.858       10.671       13.143      117.899      113.870      172.740        0.118        0.020       44.202        5.658        0.016      327.983       -6.200      875.581
12/14/2013  08:07:00       14.789       38.797       21.150       16.934       11.291       24.163      286.765      127.479      583.857        0.158        0.050       41.520       18.764        0.204      328.156       -5.918      875.554
12/14/2013  08:08:00       14.909       32.060       28.689       13.714       13.947       16.294      188.068      194.532      265.487        0.136        0.032       35.357        8.493        0.058      328.223       -5.809      875.548
12/14/2013  08:09:00       17.543       25.818       18.409       21.280       13.389       11.768      452.832      179.277      138.487        0.104        0.039       31.214        8.381        0.072      328.251       -5.763      875.554
12/14/2013  08:10:00       -6.950        0.106       17.990        7.530       10.737        8.679       56.697      115.290       75.320        0.031        0.012        6.951        4.364        0.394      328.632       -5.142      875.563
12/14/2013  08:11:00       -3.432       12.008       28.561       11.130       14.832       13.281      123.879      219.984      176.386        0.075        0.026       12.489       11.786        0.890      328.707       -5.021      875.566
12/14/2013  08:12:00       22.639       23.335        4.571       16.772       17.851       15.032      281.283      318.651      225.957        0.095        0.041       32.512       12.387        0.145      328.257       -5.753      875.564
12/14/2013  08:13:00       -3.962       23.645       11.065       18.639       20.728       12.250      347.418      429.661      150.070        0.081        0.046       23.975       14.974        0.390      328.279       -5.718      875.560
12/14/2013  08:14:00      -10.743       -2.507       14.786        8.683       10.618        9.149       75.386      112.752       83.712        0.031        0.014       11.031        7.705        0.488      328.513       -5.337      875.557
12/14/2013  08:15:00       -6.243       16.478       35.351        6.860       14.232       15.394       47.058      202.539      236.961        0.102        0.024       17.621       11.976        0.462      328.757       -4.939      875.543
12/14/2013  08:16:00      -11.968        2.878       26.672       10.952       10.616       12.777      119.953      112.707      163.260        0.063        0.020       12.309       11.542        0.879      328.665       -5.088      875.518
12/14/2013  08:17:00       13.142       25.258       29.399       22.009       24.412       17.303      484.402      595.922      299.400        0.153        0.069       28.473       17.057        0.359      328.279       -5.719      875.518
12/14/2013  08:18:00       12.818       45.559       30.536       14.171       19.022       14.130      200.807      361.840      199.648        0.197        0.038       47.328        4.753        0.010      328.378       -5.557      875.520
12/14/2013  08:19:00       61.894       57.494       15.913       19.160       16.397       27.670      367.121      268.871      765.624        0.440        0.070       84.477       11.314        0.018      328.316       -5.658      875.522
12/14/2013  08:20:00       13.973       40.953       39.580       31.342       28.464       20.911      982.331      810.172      437.254        0.283        0.111       43.271       20.059        0.215      328.489       -5.375      875.540
12/14/2013  08:21:00       -2.470       26.711       55.668       17.036       28.915       14.125      290.226      836.076      199.523        0.257        0.066       26.825       14.525        0.293      328.586       -5.218      875.553
12/14/2013  08:22:00        0.022       32.127       55.411       14.289       32.690       16.029      204.165     1068.638      256.933        0.282        0.076       32.127       16.901        0.277      328.536       -5.299      875.566
12/14/2013  08:23:00       14.401       16.715       36.991       23.194       22.729       21.137      537.981      516.625      446.769        0.168        0.075       22.063       12.654        0.329      328.556       -5.267      875.567
12/14/2013  08:24:00       13.851       23.418       35.579       22.471       23.304       16.989      504.959      543.081      288.629        0.167        0.067       27.208        8.755        0.104      328.537       -5.298      875.565
12/14/2013  08:25:00        0.791       25.276       32.418       23.516       16.970       14.085      552.981      287.982      198.393        0.136        0.052       25.288       11.345        0.201      328.657       -5.102      875.583
12/14/2013  08:26:00        9.592        6.317       23.946       20.465       18.968       20.202      418.832      359.793      408.132        0.095        0.059       11.485       17.313        2.272      328.682       -5.061      875.599
12/14/2013  08:27:00       42.238       33.197       22.895       37.440       20.369       25.665     1401.720      414.889      658.673        0.294        0.124       53.723       23.762        0.196      328.487       -5.378      875.623
12/14/2013  08:28:00       10.431       31.935       34.154       23.217       21.241       19.498      539.017      451.194      380.183        0.183        0.069       33.595       11.055        0.108      328.461       -5.422      875.648
12/14/2013  08:29:00      -14.400       -7.072       -1.806       22.036       14.921       10.718      485.574      222.645      114.877        0.054        0.041       16.043        3.858        0.058      328.447       -5.444      875.677
12/14/2013  08:30:00       -4.602        0.457       15.214       17.561       22.197       17.722      308.393      492.718      314.080        0.068        0.056        4.625       17.468       14.265      328.717       -5.004      875.696
12/14/2013  08:31:00      -23.930       -3.340        2.936       30.953       21.271       15.942      958.063      452.464      254.150        0.113        0.083       24.162       11.722        0.235      328.629       -5.147      875.702
12/14/2013  08:32:00      -34.162       -4.716        0.955       22.171       19.887       11.441      491.556      395.507      130.898        0.110        0.051       34.486        8.929        0.067      328.524       -5.319      875.719
12/14/2013  08:33:00      -25.131        7.529       11.484       19.488       16.131       12.178      379.788      260.194      148.292        0.080        0.039       26.235        9.981        0.145      328.683       -5.060      875.737
12/14/2013  08:34:00        1.045       10.802        6.785       16.635       14.493       17.725      276.735      210.054      314.193        0.048        0.040       10.852       13.683        1.590      328.720       -4.998      875.740
12/14/2013  08:35:00        5.985       18.248       15.319       10.229       10.078       10.890      104.636      101.558      118.590        0.046        0.016       19.204        8.771        0.209      328.962       -4.605      875.751
12/14/2013  08:36:00       21.396       25.563       15.319       25.909       23.264       18.152      671.298      541.203      329.503        0.144        0.077       33.336        9.571        0.082      328.794       -4.877      875.775
12/14/2013  08:37:00       78.119       35.983        6.272       34.142       21.118       22.598     1165.667      445.989      510.681        0.478        0.106       86.007        9.038        0.011      328.451       -5.438      875.801
12/14/2013  08:38:00       38.616       36.246        3.978       39.101       29.497       27.074     1528.903      870.066      733.005        0.298        0.157       52.962       21.617        0.167      328.489       -5.377      875.846
12/14/2013  08:39:00       43.512       40.736       -3.769       23.247       31.295       24.680      540.417      979.400      609.127        0.285        0.106       59.605       21.875        0.135      328.669       -5.084      875.879
12/14/2013  08:40:00       52.038       58.015       -1.679       34.522       30.033       20.885     1191.768      902.005      436.173        0.430        0.126       77.934        9.913        0.016      328.570       -5.244      875.903
12/14/2013  08:41:00      114.399       63.240        4.009       20.665       18.176       18.338      427.035      330.349      336.279        0.910        0.055      130.715        6.006        0.002      328.395       -5.528      875.931
12/14/2013  08:42:00      104.943       52.703       -3.910       21.222       21.950       16.485      450.367      481.785      271.769        0.750        0.060      117.434       11.137        0.009      328.366       -5.577      875.950
12/14/2013  08:43:00       88.203       64.201        9.051       23.635       27.399       20.855      558.624      750.720      434.924        0.686        0.087      109.094       13.253        0.015      328.581       -5.226      875.971
12/14/2013  08:44:00       17.963       21.689       11.444       20.679       16.313       24.648      427.615      266.119      607.546        0.111        0.065       28.162       11.043        0.154      328.762       -4.930      875.980
12/14/2013  08:45:00        4.038       43.932       38.350       16.800       20.566       22.653      282.248      422.945      513.168        0.232        0.061       44.117       12.521        0.081      329.028       -4.497      875.985
12/14/2013  08:46:00       12.125       51.135       45.347       27.507       21.844       17.969      756.658      477.182      322.901        0.319        0.078       52.553       15.292        0.085      328.975       -4.584      875.990
12/14/2013  08:47:00       59.513       48.674        0.907       20.985       17.174       24.142      440.358      294.945      582.829        0.361        0.066       76.883       16.501        0.046      328.574       -5.237      875.988
12/14/2013  08:48:00       27.577       38.541       -0.241       26.583       27.642       19.645      706.639      764.106      385.910        0.205        0.093       47.391       21.421        0.204      328.950       -4.624      875.990
12/14/2013  08:49:00       67.748       50.523        8.776       32.734       19.504       23.889     1071.530      380.417      570.704        0.462        0.101       84.512       11.530        0.019      328.796       -4.875      875.999
12/14/2013  08:50:00       44.178       36.859        5.145       40.440       20.505       20.539     1635.359      420.468      421.867        0.291        0.124       57.535       14.117        0.060      328.891       -4.720      876.003
12/14/2013  08:51:00       51.578       42.089        9.229       31.385       26.287       22.923      985.021      691.007      525.452        0.336        0.110       66.572       18.948        0.081      328.864       -4.764      876.007
12/14/2013  08:52:00       11.905       47.571       -4.868       16.666       32.736       19.701      277.764     1071.673      388.124        0.208        0.087       49.038       14.804        0.091      328.844       -4.795      875.995
12/14/2013  08:53:00       57.123       39.168        8.794       32.537       23.281       21.382     1058.647      542.019      457.200        0.347        0.103       69.261       19.751        0.081      329.041       -4.476      875.987
12/14/2013  08:54:00       68.477       50.931        5.716       16.620       16.701       21.243      276.230      278.923      451.256        0.416        0.050       85.341        8.498        0.010      328.782       -4.898      875.984
12/14/2013  08:55:00       69.942       44.832        6.632       25.768       28.308       19.751      663.998      801.331      390.113        0.440        0.093       83.077        9.564        0.013      328.796       -4.875      875.985
12/14/2013  08:56:00       51.513       48.973        6.021       27.591       24.200       26.233      761.264      585.651      688.151        0.356        0.102       71.077       17.374        0.060      328.976       -4.582      875.970
12/14/2013  08:57:00       51.326       52.173       -6.890       27.963       21.422       20.302      781.910      458.913      412.152        0.353        0.083       73.187       14.875        0.041      329.077       -4.416      875.958
12/14/2013  08:58:00       49.073       54.581        7.460       23.299       25.558       23.155      542.852      653.231      536.151        0.359        0.087       73.398       11.721        0.026      329.066       -4.435      875.966
12/14/2013  08:59:00       13.410       44.249       28.241       22.716       24.022       32.022      515.997      577.054     1025.420        0.253        0.106       46.236       19.159        0.172      329.294       -4.062      875.982
12/14/2013  09:00:00       47.980       48.215       52.263       27.381       27.040       19.111      749.742      731.159      365.242        0.460        0.092       68.020        8.895        0.017      329.115       -4.354      876.003
12/14/2013  09:01:00       39.411       30.797        5.226       26.780       18.193       24.848      717.143      331.002      617.434        0.210        0.083       50.017       18.784        0.141      329.126       -4.336      876.031
12/14/2013  09:02:00       62.032       41.561       -0.212       20.743       20.548       22.662      430.286      422.201      513.579        0.347        0.068       74.668       13.030        0.030      329.095       -4.388      876.047
12/14/2013  09:03:00       69.331       65.876       -1.982       25.861       20.433       23.444      668.781      417.509      549.642        0.539        0.082       95.637       16.343        0.029      329.046       -4.466      876.058
12/14/2013  09:04:00       74.285       63.990      -14.250       21.597       28.106       17.883      466.440      789.928      319.794        0.570        0.079       98.046        6.889        0.005      328.935       -4.649      876.074
12/14/2013  09:05:00       66.116       30.446        5.011       19.739       15.162       15.356      389.617      229.887      235.814        0.309        0.043       72.790        7.621        0.011      329.117       -4.351      876.082
12/14/2013  09:06:00       69.940       26.979        3.345       29.085       16.614       26.319      845.938      276.031      692.681        0.372        0.091       74.963       18.799        0.063      329.150       -4.296      876.097
12/14/2013  09:07:00       75.906       70.188       31.140       35.712       21.936       29.734     1275.341      481.186      884.082        0.715        0.132      103.383       26.523        0.066      329.219       -4.186      876.111
12/14/2013  09:08:00       72.526       66.532        2.219       37.469       21.485       29.371     1403.906      461.609      862.667        0.621        0.136       98.420        6.290        0.004      329.087       -4.401      876.126
12/14/2013  09:09:00       79.507       75.206       10.045       23.409       18.771       19.501      547.974      352.340      380.284        0.668        0.064      109.441       14.802        0.018      329.041       -4.476      876.128
12/14/2013  09:10:00       74.203       52.896       18.337       32.311       20.344       27.312     1044.026      413.884      745.928        0.542        0.110       91.127       17.966        0.039      329.207       -4.204      876.133
12/14/2013  09:11:00       54.416       53.579       11.132       38.854       25.578       28.291     1509.645      654.216      800.403        0.446        0.148       76.366       24.210        0.101      329.355       -3.963      876.133
12/14/2013  09:12:00       35.954       70.112       41.052       37.071       23.044       35.698     1374.273      531.030     1274.364        0.554        0.159       78.793       19.520        0.061      329.454       -3.799      876.138
12/14/2013  09:13:00       84.945       72.163        9.600       24.085       19.578       31.828      580.101      383.307     1013.044        0.725        0.099      111.459       15.361        0.019      329.188       -4.236      876.132
12/14/2013  09:14:00       60.608       33.572        0.563       28.728       27.457       21.818      825.282      753.893      476.043        0.343        0.103       69.285        9.746        0.020      329.377       -3.926      876.140
12/14/2013  09:15:00        5.927       18.240       39.365       25.160       33.061       25.498      633.050     1093.032      650.163        0.215        0.119       19.179       19.701        1.055      329.745       -3.323      876.157
12/14/2013  09:16:00       -9.255       40.284       70.719       17.367       39.895       26.944      301.619     1591.581      725.953        0.466        0.131       41.333       28.227        0.466      329.865       -3.127      876.180
12/14/2013  09:17:00        0.222       50.736       68.463       16.119       31.973       22.117      259.834     1022.297      489.172        0.452        0.089       50.736       12.487        0.061      329.571       -3.611      876.209
12/14/2013  09:18:00       16.154       69.343       81.251       45.374       36.951       22.654     2058.763     1365.388      513.184        0.780        0.197       71.200       23.514        0.109      329.531       -3.675      876.220
12/14/2013  09:19:00       48.752       57.515       19.758       48.805       25.450       21.229     2381.945      647.683      450.658        0.478        0.174       75.397       19.097        0.064      329.400       -3.888      876.225
12/14/2013  09:20:00        3.696       12.188       48.512       18.155       25.263       14.979      329.598      638.215      224.360        0.185        0.060       12.736       12.044        0.894      330.035       -2.849      876.223
12/14/2013  09:21:00       39.686       60.761       52.569       36.284       32.549       27.117     1316.522     1059.436      735.338        0.557        0.156       72.573       24.351        0.113      329.750       -3.317      876.229
12/14/2013  09:22:00        1.858       52.845       67.866       25.690       24.482       22.994      659.959      599.361      528.745        0.459        0.089       52.878       17.377        0.108      329.893       -3.083      876.243
12/14/2013  09:23:00       74.469       70.655       31.369       49.218       25.174       48.795     2422.415      633.755     2380.971        0.848        0.272      102.653       39.880        0.151      329.479       -3.760      876.271
12/14/2013  09:24:00       15.422       27.127        2.070       25.518       15.669       19.467      651.188      245.523      378.952        0.113        0.064       31.204       14.704        0.222      329.691       -3.414      876.284
12/14/2013  09:25:00       17.188       33.314       45.541       38.266       35.919       34.325     1464.253     1290.196     1178.229        0.371        0.197       37.487       33.578        0.802      330.049       -2.826      876.299
12/14/2013  09:26:00       46.477       90.165       81.624       30.474       26.489       16.288      928.638      701.684      265.287        0.942        0.095      101.439       13.497        0.018      329.587       -3.585      876.297
12/14/2013  09:27:00       66.701       70.381       44.413       35.624       37.400       37.887     1269.044     1398.770     1435.404        0.774        0.205       96.967       31.702        0.107      329.573       -3.606      876.293
12/14/2013  09:28:00       46.384       69.617       54.047       36.231       32.933       32.496     1312.715     1084.576     1056.020        0.669        0.173       83.654       25.211        0.091      329.641       -3.494      876.281
12/14/2013  09:29:00       24.598       37.206       41.806       28.014       19.220       26.746      784.763      369.389      715.330        0.280        0.093       44.602       18.904        0.180      329.788       -3.254      876.283
12/14/2013  09:30:00       41.480        2.456       37.902       30.414       37.957       26.594      925.003     1440.714      707.243        0.312        0.154       41.553       25.049        0.363      329.905       -3.062      876.282
12/14/2013  09:31:00       88.803       92.935       55.813       51.871       24.178       32.471     2690.579      584.581     1054.346        1.198        0.216      128.541       28.803        0.050      329.574       -3.604      876.276
12/14/2013  09:32:00       88.241       68.869       40.011       48.540       35.626       27.153     2356.151     1269.237      737.289        0.925        0.218      111.935       14.438        0.017      329.636       -3.502      876.282
12/14/2013  09:33:00       42.090       40.938       56.139       50.500       43.023       41.451     2550.282     1850.992     1718.192        0.636        0.306       58.715       39.582        0.454      329.858       -3.138      876.287
12/14/2013  09:34:00       -4.033       44.254       79.683       28.071       42.178       28.931      787.978     1779.012      836.989        0.586        0.170       44.437       26.032        0.343      330.141       -2.678      876.283
12/14/2013  09:35:00       37.851       86.521       22.816       29.114       32.745       38.474      847.636     1072.228     1480.234        0.642        0.170       94.439       28.249        0.089      329.712       -3.379      876.287
12/14/2013  09:36:00        4.021       47.426        7.484       22.461       41.279       24.918      504.491     1703.933      620.894        0.257        0.141       47.596       27.944        0.345      330.132       -2.690      876.300
12/14/2013  09:37:00       17.159       28.563       37.118       28.380       27.930       25.632      805.440      780.110      657.008        0.236        0.112       33.321       10.735        0.104      330.301       -2.413      876.315
12/14/2013  09:38:00       69.555       54.039       -4.867       28.397       36.942       30.727      806.416     1364.705      944.163        0.545        0.156       88.080       20.816        0.056      329.711       -3.380      876.328
12/14/2013  09:39:00       45.017       17.060       -6.935       21.927       17.198       17.722      480.803      295.779      314.054        0.173        0.055       48.141        7.936        0.027      329.811       -3.215      876.343
12/14/2013  09:40:00       46.992       50.138       17.279       42.170       38.348       28.423     1778.302     1470.567      807.879        0.454        0.203       68.717       12.689        0.034      329.982       -2.936      876.344
12/14/2013  09:41:00       47.149       60.851        8.771       35.398       37.728       33.765     1253.000     1423.369     1140.072        0.491        0.191       76.979       29.161        0.144      329.920       -3.038      876.339
12/14/2013  09:42:00       45.588       56.786        8.883       24.182       26.010       30.235      584.772      676.540      914.177        0.378        0.109       72.821       18.698        0.066      329.921       -3.035      876.335
12/14/2013  09:43:00       82.819       73.077        1.582       20.517       18.740       20.865      420.937      351.177      435.344        0.670        0.060      110.450        7.409        0.005      329.683       -3.426      876.331
12/14/2013  09:44:00       86.085       64.212        7.216       22.093       15.597       21.456      488.111      243.262      460.354        0.639        0.060      107.395        4.606        0.002      329.723       -3.359      876.330
12/14/2013  09:45:00       70.210       54.718       24.133       28.505       20.946       28.613      812.552      438.717      818.708        0.529        0.103       89.014       16.726        0.035      329.889       -3.088      876.329
12/14/2013  09:46:00       36.401       55.109       48.344       32.558       23.437       22.051     1059.996      549.287      486.265        0.440        0.105       66.046       12.203        0.034      330.258       -2.484      876.308
12/14/2013  09:47:00       53.019       70.933       62.356       41.438       33.592       36.057     1717.118     1128.416     1300.107        0.794        0.207       88.558       27.662        0.098      330.006       -2.898      876.298
12/14/2013  09:48:00       58.580       52.984       59.634       28.290       34.021       20.449      800.298     1157.432      418.181        0.608        0.119       78.986       16.702        0.045      329.949       -2.990      876.297
12/14/2013  09:49:00       68.960       47.087       24.663       23.991       19.979       25.705      575.570      399.175      660.735        0.461        0.082       83.503       17.102        0.042      329.860       -3.136      876.283
12/14/2013  09:50:00       39.611        4.775       29.520       27.687       34.521       27.362      766.564     1191.698      748.678        0.258        0.135       39.898       14.919        0.140      330.183       -2.607      876.288
12/14/2013  09:51:00       55.998       44.274       54.856       35.774       32.917       35.562     1279.762     1083.509     1264.670        0.587        0.181       71.386       19.987        0.078      330.133       -2.688      876.288
12/14/2013  09:52:00       67.861       38.561       11.354       31.903       19.793       27.206     1017.819      391.763      740.153        0.418        0.107       78.052       14.901        0.036      330.157       -2.650      876.311
12/14/2013  09:53:00       52.107       67.437       -8.584       27.862       31.931       22.566      776.277     1019.567      509.243        0.482        0.115       85.223       11.932        0.020      330.159       -2.647      876.333
12/14/2013  09:54:00        9.659       46.063       -3.622       19.936       35.229       27.083      397.425     1241.066      733.515        0.230        0.119       47.065       14.213        0.091      330.249       -2.500      876.355
12/14/2013  09:55:00       32.380       30.642       16.963       25.407       22.741       17.095      645.515      517.153      292.231        0.186        0.073       44.580       17.669        0.157      330.406       -2.241      876.369
12/14/2013  09:56:00       48.689       34.576      -12.215       16.545       24.085       18.047      273.748      580.108      325.710        0.245        0.059       59.717       11.822        0.039      330.240       -2.514      876.381
12/14/2013  09:57:00      -11.001       44.080        4.185       28.985       26.246       20.562      840.125      688.831      422.805        0.202        0.098       45.432       18.792        0.171      330.448       -2.172      876.374
12/14/2013  09:58:00       -8.915       14.317       35.130       10.670       26.340       21.190      113.856      693.785      449.007        0.139        0.063       16.865       18.917        1.258      330.908       -1.418      876.366
12/14/2013  09:59:00       19.074       30.936       43.340       26.632       26.002       19.590      709.240      676.088      383.750        0.248        0.088       36.343       21.367        0.346      330.724       -1.719      876.352
12/14/2013  10:00:00        4.025       19.838       31.958       19.755       28.491       19.094      390.248      811.712      364.591        0.150        0.078       20.242       13.427        0.440      331.013       -1.247      876.342
12/14/2013  10:01:00       19.563       34.700        7.166       48.317       44.364       26.959     2334.574     1968.174      726.770        0.333        0.251       39.834       21.298        0.286      330.696       -1.767      876.340
12/14/2013  10:02:00       68.715       42.112      -11.183       24.974       26.404       22.373      623.721      697.167      500.539        0.422        0.091       80.592       12.104        0.023      330.392       -2.266      876.347
12/14/2013  10:03:00       64.819       51.276        9.958       26.111       32.872       35.115      681.803     1080.569     1233.084        0.496        0.150       82.648       17.641        0.046      330.522       -2.051      876.347
12/14/2013  10:04:00       73.213       58.099      -12.766       18.714       19.940       19.527      350.221      397.614      381.287        0.501        0.056       93.465       14.018        0.022      330.357       -2.322      876.335
12/14/2013  10:05:00       38.285       38.073       26.212       31.858       22.705       26.370     1014.901      515.500      695.355        0.291        0.111       53.994       17.454        0.104      330.504       -2.080      876.304
12/14/2013  10:06:00       -8.241       72.815       85.500       23.974       34.697       25.189      574.740     1203.890      634.499        0.755        0.121       73.280       22.431        0.094      330.818       -1.565      876.281
12/14/2013  10:07:00       67.346       80.519       59.187       67.841       37.572       41.317     4602.429     1411.621     1707.100        1.112        0.386      104.970       40.275        0.147      330.618       -1.894      876.259
12/14/2013  10:08:00       91.707       84.410        3.024       39.868       34.413       29.486     1589.440     1184.274      869.423        0.959        0.182      124.640       20.465        0.027      330.471       -2.136      876.248
12/14/2013  10:09:00       76.851       60.378       55.925       61.427       55.030       43.513     3773.313     3028.276     1893.354        1.069        0.435       97.732       45.448        0.216      330.738       -1.697      876.240
12/14/2013  10:10:00       14.197       80.852       75.233       48.818       45.585       35.941     2383.212     2078.008     1291.783        0.907        0.288       82.089       31.474        0.147      330.935       -1.373      876.232
12/14/2013  10:11:00       14.752       71.111       91.350       62.166       51.042       48.150     3864.646     2605.319     2318.458        1.120        0.439       72.625       47.130        0.421      331.000       -1.267      876.226
12/14/2013  10:12:00       70.135       53.768       24.124       53.973       37.845       36.139     2913.095     1432.271     1306.045        0.702        0.283       88.374       24.728        0.078      330.756       -1.667      876.211
12/14/2013  10:13:00       88.571       86.068       64.755       62.359       42.803       48.885     3888.590     1832.126     2389.713        1.378        0.406      123.501       37.888        0.094      330.664       -1.819      876.185
12/14/2013  10:14:00       93.368       79.111       34.284       54.038       45.296       45.198     2920.145     2051.699     2042.863        1.158        0.351      122.377       32.776        0.072      330.714       -1.736      876.180
12/14/2013  10:15:00       89.026       71.445       22.934       52.701       31.074       40.353     2777.418      965.617     1628.356        0.946        0.269      114.149       35.933        0.099      330.539       -2.023      876.161
12/14/2013  10:16:00      107.678       62.009       -8.344       27.279       22.017       22.063      744.144      484.737      486.765        0.861        0.086      124.257       20.195        0.026      330.373       -2.295      876.154
12/14/2013  10:17:00       40.913       66.344       61.030       33.439       40.138       42.069     1118.153     1611.092     1769.784        0.715        0.225       77.945       22.127        0.081      330.726       -1.717      876.138
12/14/2013  10:18:00       16.109       55.315       79.448       34.323       47.354       31.121     1178.075     2242.428      968.524        0.701        0.219       57.612       33.268        0.333      330.764       -1.654      876.132
12/14/2013  10:19:00       41.066       90.106      101.440       40.345       41.669       22.410     1627.720     1736.308      502.207        1.198        0.193       99.022       21.131        0.046      330.865       -1.489      876.135
12/14/2013  10:20:00       46.828       61.960       75.499       33.043       35.483       20.631     1091.852     1259.058      425.620        0.725        0.139       77.665       20.166        0.067      330.911       -1.413      876.134
12/14/2013  10:21:00       78.179       67.731       52.429       40.255       31.074       42.871     1620.502      965.575     1837.959        0.894        0.221      103.438       31.724        0.094      330.763       -1.657      876.136
12/14/2013  10:22:00       97.156       88.032       51.653       36.534       34.061       40.849     1334.717     1160.141     1668.644        1.201        0.208      131.107       27.302        0.043      330.679       -1.793      876.127
12/14/2013  10:23:00       55.262       43.338       40.514       43.030       30.886       35.492     1851.574      953.950     1259.674        0.532        0.203       70.229       32.754        0.218      330.778       -1.632      876.118
12/14/2013  10:24:00       69.420       80.538       57.858       57.975       27.219       41.055     3361.123      740.883     1685.509        1.022        0.289      106.327       40.018        0.142      330.841       -1.528      876.090
12/14/2013  10:25:00       65.849       81.432       58.940       35.592       22.086       32.258     1266.766      487.783     1040.576        0.862        0.140      104.724       16.685        0.025      330.670       -1.809      876.080
12/14/2013  10:26:00       42.732       76.476       90.436       30.234       32.238       15.211      914.114     1039.302      231.366        0.902        0.109       87.605       17.605        0.040      330.866       -1.487      876.083
12/14/2013  10:27:00       54.797       53.105       43.758       31.949       37.289       40.017     1020.742     1390.496     1601.400        0.587        0.201       76.308       23.416        0.094      331.025       -1.226      876.094
12/14/2013  10:28:00       25.729       51.823       36.706       33.578       33.904       26.234     1127.479     1149.470      688.211        0.383        0.148       57.858       13.485        0.054      331.100       -1.103      876.111
12/14/2013  10:29:00       92.566       68.744        5.306       35.371       27.272       26.058     1251.093      743.739      678.997        0.800        0.134      115.301       19.814        0.030      330.827       -1.551      876.100
12/14/2013  10:30:00       34.567       59.252       -0.759       25.326       29.817       27.025      641.392      889.056      730.332        0.348        0.113       68.598       23.505        0.117      331.064       -1.161      876.091
12/14/2013  10:31:00       60.666       38.106        2.791       25.212       23.835       25.259      635.660      568.103      638.028        0.349        0.092       71.641       16.747        0.055      330.942       -1.361      876.052
12/14/2013  10:32:00       78.945       70.383       -0.707       31.634       15.980       20.964     1000.688      255.375      439.494        0.644        0.085      105.764       17.229        0.027      330.683       -1.787      876.013
12/14/2013  10:33:00       78.210       73.078        1.685       25.308       22.207       20.626      640.507      493.148      425.414        0.651        0.078      107.038       10.213        0.009      330.856       -1.504      875.983
12/14/2013  10:34:00       69.181       67.928       -2.253       27.215       41.293       27.270      740.633     1705.078      743.670        0.630        0.159       96.954       18.983        0.038      331.092       -1.116      875.981
12/14/2013  10:35:00       23.953       86.391       91.921       42.703       46.369       40.683     1823.542     2150.101     1655.119        1.106        0.281       89.650       33.238        0.137      331.210       -0.921      875.982
12/14/2013  10:36:00      119.148       82.966       47.804       31.228       29.090       29.941      975.169      846.218      896.478        1.304        0.136      145.188       21.840        0.023      330.761       -1.659      875.999
12/14/2013  10:37:00       76.175       27.599       35.008       57.226       54.863       42.216     3274.825     3009.960     1782.223        0.793        0.403       81.021       46.091        0.324      331.047       -1.190      876.005
12/14/2013  10:38:00       54.902       73.277       94.321       40.609       33.576       23.509     1649.097     1127.339      552.680        1.030        0.166       91.563       18.349        0.040      331.106       -1.092      876.003
12/14/2013  10:39:00       53.398       46.530       60.444       32.995       26.559       19.861     1088.700      705.402      394.470        0.543        0.109       70.827       11.489        0.026      331.099       -1.105      876.002
12/14/2013  10:40:00       32.240       59.710       61.877       41.063       41.829       32.917     1686.166     1749.691     1083.534        0.648        0.226       67.858       30.035        0.196      331.229       -0.889      875.976
12/14/2013  10:41:00        7.970       24.393       65.630       30.828       57.823       35.454      950.391     3343.472     1257.015        0.526        0.278       25.662       37.050        2.085      331.443       -0.538      875.963
12/14/2013  10:42:00       36.568       48.608       45.694       18.376       16.217       20.906      337.690      262.977      437.076        0.341        0.052       60.827        6.300        0.011      331.124       -1.063      875.965
12/14/2013  10:43:00       -4.893       21.709        1.379       17.183       24.854       17.378      295.270      617.732      301.980        0.086        0.061       22.253       12.500        0.316      331.289       -0.792      875.970
12/14/2013  10:44:00      -59.836       30.602       -8.323       33.889       25.462       16.526     1148.469      648.300      273.112        0.333        0.103       67.207       16.331        0.059      331.161       -1.004      875.963
12/14/2013  10:45:00      -69.166      -11.935       -7.228       20.438       26.222       12.700      417.716      687.570      161.284        0.312        0.063       70.188       11.754        0.028      331.007       -1.256      875.956
12/14/2013  10:46:00      -50.945      -51.106       -4.448       36.362       30.767       19.474     1322.192      946.594      379.252        0.394        0.132       72.161       20.061        0.077      331.090       -1.119      875.933
12/14/2013  10:47:00      -27.096      -34.972       -4.409       23.526       28.165       13.551      553.449      793.264      183.617        0.175        0.077       44.240       15.755        0.127      331.361       -0.674      875.912
12/14/2013  10:48:00      -26.616      -43.543        4.860       30.443       31.565       22.485      926.749      996.359      505.597        0.253        0.121       51.033       18.815        0.136      331.445       -0.536      875.873
12/14/2013  10:49:00      -60.669      -55.396       -3.796       44.104       42.886       19.166     1945.126     1839.173      367.322        0.546        0.208       82.155       18.576        0.051      331.239       -0.874      875.838
12/14/2013  10:50:00      -59.087      -43.514       -6.459       17.198       49.342       18.772      295.768     2434.614      352.395        0.425        0.154       73.381       20.488        0.078      331.187       -0.959      875.814
12/14/2013  10:51:00      -14.190      -33.865        9.372       30.286       44.232       17.064      917.246     1956.469      291.188        0.230        0.158       36.718       20.285        0.305      331.726       -0.073      875.787
12/14/2013  10:52:00      -35.463      -25.232        0.520       26.154       34.693       20.721      684.023     1203.594      429.359        0.211        0.116       43.524       20.523        0.222      331.464       -0.504      875.776
12/14/2013  10:53:00      -94.571      -49.171       -6.427       32.600       28.141       18.357     1062.782      791.930      336.990        0.680        0.110      106.590       12.355        0.013      331.368       -0.661      875.755
12/14/2013  10:54:00      -65.834      -64.684        5.658       62.011       33.647       23.341     3845.323     1132.123      544.818        0.704        0.276       92.294       23.510        0.065      331.492       -0.458      875.752
12/14/2013  10:55:00      -65.954      -80.781       -0.657       39.485       27.210       22.674     1559.075      740.358      514.092        0.684        0.141      104.286       23.497        0.051      331.378       -0.646      875.736
12/14/2013  10:56:00      -64.953      -80.392       -5.159       30.973       33.452       27.640      959.342     1119.056      763.957        0.677        0.142      103.353       21.070        0.042      331.323       -0.737      875.725
12/14/2013  10:57:00      -84.918      -46.331      -15.922       18.370       13.790       10.367      337.452      190.171      107.466        0.512        0.032       96.735        9.916        0.011      331.306       -0.763      875.696
12/14/2013  10:58:00      -55.094      -19.091      -15.727       26.674       18.294       16.253      711.512      334.674      264.156        0.248        0.066       58.308       13.690        0.055      331.333       -0.719      875.668
12/14/2013  10:59:00       25.697      -23.625       -7.237       16.803       25.600       24.635      282.329      655.370      606.890        0.141        0.077       34.907       19.361        0.308      331.450       -0.526      875.643
12/14/2013  11:00:00      -22.507        8.196        9.560       29.831       13.504       17.436      889.915      182.357      304.014        0.102        0.069       23.953       18.204        0.578      331.805        0.058      875.631
12/14/2013  11:01:00      -33.900       20.845        4.824       31.376       22.094       16.623      984.482      488.137      276.317        0.168        0.087       39.796       16.212        0.166      331.678       -0.153      875.626
12/14/2013  11:02:00       29.949       21.907       -0.130       35.504       21.617       18.273     1260.500      467.294      333.898        0.172        0.103       37.106       12.231        0.109      331.881        0.183      875.629
12/14/2013  11:03:00      -10.785       32.344       24.886       34.077       21.964       20.281     1161.250      482.429      411.322        0.192        0.103       34.095       21.596        0.401      332.096        0.537      875.615
12/14/2013  11:04:00      -13.112      -22.756        5.371       26.988       18.877       17.231      728.378      356.354      296.898        0.105        0.069       26.263       18.147        0.477      332.073        0.499      875.595
12/14/2013  11:05:00      -17.281      -43.009        3.814       28.105       50.601       22.118      789.906     2560.493      489.213        0.300        0.192       46.351       10.052        0.047      331.964        0.318      875.563
12/14/2013  11:06:00        0.486       24.191       31.931       23.529       53.094       21.704      553.608     2818.968      471.051        0.272        0.192       24.196       13.547        0.313      332.108        0.557      875.526
12/14/2013  11:07:00       77.025       84.737       64.279       61.972       31.614       33.547     3840.497      999.446     1125.371        1.160        0.298      114.513       33.417        0.085      331.919        0.245      875.486
12/14/2013  11:08:00       77.624       70.527       59.300       80.554       56.518       44.818     6488.956     3194.298     2008.691        1.310        0.585      104.879       41.567        0.157      331.854        0.138      875.454
12/14/2013  11:09:00      150.333      109.499       44.216       41.062       37.967       38.108     1686.117     1441.529     1452.217        2.056        0.229      185.984       25.658        0.019      331.628       -0.234      875.420
12/14/2013  11:10:00      119.280       64.566       15.769       45.493       45.557       39.803     2069.589     2075.472     1584.299        1.219        0.286      135.634       14.242        0.011      331.635       -0.224      875.411
12/14/2013  11:11:00       88.295       56.469       34.074       52.205       34.842       37.605     2725.343     1213.946     1414.169        0.875        0.268      104.809       13.029        0.015      331.853        0.136      875.390
12/14/2013  11:12:00      103.474       80.741       57.846       54.719       31.586       32.067     2994.183      997.703     1028.279        1.280        0.251      131.248       24.389        0.035      331.745       -0.043      875.391
12/14/2013  11:13:00       36.310       -8.289       43.336       38.595       30.784       36.244     1489.607      947.649     1313.617        0.351        0.188       37.244       17.436        0.219      332.077        0.506      875.396
12/14/2013  11:14:00       42.102       33.576       31.223       45.968       40.629       30.565     2113.082     1650.683      934.244        0.429        0.235       53.851       28.246        0.275      332.093        0.531      875.387
12/14/2013  11:15:00       80.963       51.715       10.153       39.770       32.045       29.248     1581.682     1026.875      855.430        0.640        0.173       96.070        6.027        0.004      331.905        0.223      875.368
12/14/2013  11:16:00      114.248       86.824       -1.700       29.727       25.000       25.908      883.674      625.007      671.237        1.139        0.109      143.496       16.096        0.013      331.701       -0.116      875.339
12/14/2013  11:17:00      106.960       78.876       19.456       38.296       38.666       34.817     1466.551     1495.092     1212.208        1.111        0.209      132.898       13.531        0.010      331.804        0.056      875.328
12/14/2013  11:18:00      122.357       86.416       26.842       33.752       26.790       38.730     1139.177      717.697     1500.012        1.326        0.168      149.797       17.599        0.014      331.831        0.099      875.300
12/14/2013  11:19:00       47.563       29.980       35.319       39.644       59.734       45.241     1571.683     3568.202     2046.773        0.580        0.359       56.223       44.579        0.629      332.105        0.551      875.286
12/14/2013  11:20:00       38.332       56.856       50.581       43.960       40.422       32.893     1932.520     1633.951     1081.917        0.595        0.232       68.571       20.146        0.086      332.336        0.932      875.260
12/14/2013  11:21:00       99.459       78.368       40.749       44.818       31.512       36.444     2008.618      993.007     1328.164        1.101        0.216      126.624       18.881        0.022      332.000        0.378      875.244
12/14/2013  11:22:00       66.839       61.516       24.026       43.394       32.682       37.765     1883.019     1068.114     1426.178        0.660        0.219       90.839       34.627        0.145      332.037        0.440      875.229
12/14/2013  11:23:00       87.035       62.145       23.965       40.928       29.135       36.017     1675.106      848.822     1297.231        0.792        0.191      106.945       20.213        0.036      332.041        0.447      875.190
12/14/2013  11:24:00       69.151       71.378       12.671       41.154       23.426       24.532     1693.629      548.757      601.814        0.644        0.142       99.381       12.979        0.017      331.642       -0.212      875.167
12/14/2013  11:25:00       23.018       53.654       58.364       37.985       35.977       37.505     1442.866     1294.325     1406.622        0.548        0.207       58.383       25.226        0.187      332.274        0.830      875.159
12/14/2013  11:26:00       56.383       79.525       72.070       55.542       45.878       41.801     3084.937     2104.766     1747.298        1.082        0.347       97.484       35.666        0.134      332.112        0.564      875.139
12/14/2013  11:27:00       87.919       70.485       -4.743       24.761       32.358       30.672      613.086     1047.036      940.758        0.766        0.130      112.685       20.088        0.032      331.740       -0.049      875.142
12/14/2013  11:28:00       41.352       48.558       15.859       39.678       38.545       27.552     1574.334     1485.728      759.101        0.407        0.191       63.780       23.749        0.139      332.146        0.620      875.158
12/14/2013  11:29:00       18.016       21.366        5.129       24.283       28.472       20.086      589.677      810.666      403.450        0.131        0.090       27.948       16.318        0.341      332.218        0.738      875.176
12/14/2013  11:30:00       85.263       78.428       13.081       40.208       31.460       29.856     1616.695      989.754      891.378        0.854        0.175      115.848       22.067        0.036      331.930        0.262      875.189
12/14/2013  11:31:00      107.855       82.090       -1.372       25.401       28.255       21.497      645.220      798.370      462.102        1.014        0.095      135.541       16.232        0.014      331.878        0.176      875.185
12/14/2013  11:32:00      109.069       68.945       14.092       25.192       28.388       25.721      634.638      805.880      661.577        0.947        0.105      129.033       11.671        0.008      331.797        0.044      875.178
12/14/2013  11:33:00       69.555       43.305        1.781       34.785       32.594       22.138     1209.970     1062.368      490.103        0.474        0.138       81.935        2.483        0.001      332.084        0.517      875.173
12/14/2013  11:34:00       53.094       38.838       13.934       25.550       33.932       28.505      652.786     1151.395      812.532        0.357        0.131       65.783       12.833        0.038      332.180        0.675      875.147
12/14/2013  11:35:00       53.878       64.144        3.491       40.191       45.222       33.884     1615.289     2045.018     1148.136        0.592        0.240       83.769       33.342        0.158      332.234        0.765      875.140
12/14/2013  11:36:00       91.560       51.856        1.334       25.098       25.013       24.449      629.903      625.642      597.762        0.646        0.093      105.225        8.246        0.006      332.074        0.499      875.143
12/14/2013  11:37:00       87.216       70.694       -0.690       42.314       32.814       32.791     1790.492     1076.785     1075.224        0.827        0.197      112.269       25.224        0.050      332.077        0.506      875.119
12/14/2013  11:38:00       27.367       91.167       -2.454       43.031       59.913       35.680     1851.705     3589.541     1273.069        0.789        0.336       95.186       31.238        0.108      332.246        0.784      875.128
12/14/2013  11:39:00       91.593      108.292       21.224       72.522       53.346       49.203     5259.509     2845.814     2420.894        1.554        0.526      141.832       35.465        0.063      332.211        0.727      875.116
12/14/2013  11:40:00      178.072       85.821       21.048       52.141       35.094       42.472     2718.728     1231.577     1803.890        2.263        0.288      197.674       26.019        0.017      332.071        0.494      875.101
12/14/2013  11:41:00      142.176       78.357        4.393       45.437       39.780       31.398     2064.547     1582.437      985.864        1.550        0.232      162.339       13.786        0.007      331.929        0.261      875.090
12/14/2013  11:42:00       32.791       11.229        0.313       40.416       26.968       24.977     1633.490      727.289      623.853        0.209        0.149       34.660       19.080        0.303      332.239        0.772      875.059
12/14/2013  11:43:00       99.114       40.610       32.511       44.350       52.654       33.479     1966.894     2772.475     1120.868        0.919        0.293      107.111       26.494        0.061      332.070        0.494      875.046
12/14/2013  11:44:00       -1.033       41.024       64.320       21.971       39.716       47.547      482.738     1577.375     2260.670        0.507        0.216       41.037       33.330        0.660      332.594        1.358      875.006
12/14/2013  11:45:00       53.140       84.373       88.153       28.363       40.802       20.513      804.476     1664.816      420.786        1.030        0.145       99.713       19.717        0.039      332.300        0.873      874.994
12/14/2013  11:46:00       40.300       50.525       59.626       26.686       28.755       16.881      712.129      826.858      284.978        0.478        0.091       64.629       14.276        0.049      332.334        0.930      874.984
12/14/2013  11:47:00       56.982       26.827       29.312       27.442       51.724       35.028      753.040     2675.390     1226.931        0.474        0.233       62.981       37.480        0.354      332.271        0.824      874.971
12/14/2013  11:48:00       59.300       13.586        9.359       40.768       31.816       24.364     1662.050     1012.272      593.580        0.353        0.163       60.837       19.995        0.108      332.335        0.931      874.968
12/14/2013  11:49:00       19.641       77.474       90.189       45.994       37.805       31.103     2115.444     1429.208      967.419        0.952        0.226       79.925       27.230        0.116      332.575        1.326      874.957
12/14/2013  11:50:00       30.238       66.068       24.397       41.188       46.101       35.107     1696.429     2125.271     1232.490        0.546        0.253       72.659       17.620        0.059      332.506        1.212      874.953
12/14/2013  11:51:00       85.928       69.727       44.182       74.089       49.437       40.351     5489.139     2443.974     1628.233        1.188        0.478      110.659       37.160        0.113      332.434        1.094      874.943
12/14/2013  11:52:00       67.390       38.367       32.944       47.038       32.282       31.278     2212.561     1042.151      978.315        0.567        0.212       77.547       26.642        0.118      332.452        1.125      874.912
12/14/2013  11:53:00      106.101       68.363       35.128       53.755       33.030       39.597     2889.569     1090.975     1567.962        1.136        0.277      126.218       22.204        0.031      332.540        1.268      874.883
12/14/2013  11:54:00       86.902       74.224       48.353       52.494       28.413       44.580     2755.648      807.294     1987.355        1.047        0.278      114.285       30.097        0.069      332.494        1.193      874.839
12/14/2013  11:55:00       88.996       81.943       48.255       49.644       43.443       50.556     2464.533     1887.267     2555.912        1.193        0.345      120.975       32.773        0.073      332.436        1.097      874.806
12/14/2013  11:56:00      103.486       43.267       80.770       65.801       55.903       43.441     4329.735     3125.143     1887.091        1.422        0.467      112.166       42.562        0.144      332.478        1.167      874.759
12/14/2013  11:57:00       73.041       70.416      100.716       62.626       55.370       37.438     3922.015     3065.890     1401.572        1.441        0.419      101.456       34.936        0.119      332.479        1.168      874.726
12/14/2013  11:58:00       72.019       81.144       77.821       83.412       46.388       65.373     6957.536     2151.818     4273.602        1.560        0.669      108.495       63.729        0.345      332.620        1.401      874.712
12/14/2013  11:59:00       28.635       -7.427       27.449       42.103       75.429       40.876     1772.634     5689.486     1670.809        0.538        0.457       29.582       21.667        0.536      332.752        1.618      874.685
12/14/2013  12:00:00       -4.022       42.710       83.758       25.336       37.245       21.828      641.937     1387.211      476.453        0.568        0.125       42.899       19.650        0.210      332.903        1.868      874.675
12/14/2013  12:01:00       90.031       80.740       75.011       60.898       51.113       39.606     3708.538     2612.553     1568.599        1.407        0.394      120.932       32.358        0.072      332.503        1.208      874.661
12/14/2013  12:02:00       44.118       83.417      105.132       43.336       43.538       22.476     1878.010     1895.550      505.189        1.212        0.214       94.365       25.833        0.075      332.538        1.266      874.638
12/14/2013  12:03:00       80.598       93.588       96.023       37.932       42.284       37.419     1438.810     1787.919     1400.172        1.455        0.231      123.510       21.435        0.030      332.396        1.031      874.629
12/14/2013  12:04:00       75.548      -33.642       12.797       52.028       55.448       40.928     2706.870     3074.523     1675.134        0.723        0.373       82.700       36.201        0.192      332.549        1.284      874.622
12/14/2013  12:05:00       43.447      -48.815       26.502       49.110       68.672       29.411     2411.829     4715.811      865.034        0.648        0.400       65.349       22.693        0.121      332.848        1.776      874.613
12/14/2013  12:06:00       81.163       -8.629       35.479       49.727       41.305       28.476     2472.810     1706.081      810.881        0.645        0.249       81.620       26.266        0.104      332.758        1.628      874.621
12/14/2013  12:07:00       36.144      -38.049       32.652       47.367       49.814       33.569     2243.599     2481.468     1126.887        0.483        0.293       52.480       29.415        0.314      332.671        1.484      874.641
12/14/2013  12:08:00        5.691       14.465       25.115       47.628       45.221       25.656     2268.427     2044.959      658.229        0.292        0.249       15.544       26.397        2.884      332.879        1.828      874.659
12/14/2013  12:09:00       48.245       31.165       36.531       49.603       31.618       35.608     2460.433      999.676     1267.940        0.468        0.236       57.436       23.515        0.168      332.817        1.727      874.660
12/14/2013  12:10:00       48.156       52.879       21.465       31.557       28.933       23.365      995.828      837.113      545.927        0.398        0.119       71.520       14.726        0.042      332.725        1.575      874.645
12/14/2013  12:11:00       84.534       56.652       25.572       37.272       26.129       29.741     1389.205      682.722      884.533        0.698        0.148      101.762       21.192        0.043      332.626        1.411      874.633
12/14/2013  12:12:00      116.201       74.044       12.953       50.901       40.909       37.946     2590.900     1673.515     1439.884        1.243        0.285      137.787       36.558        0.070      332.546        1.279      874.614
12/14/2013  12:13:00      123.358       80.098       14.154       46.215       47.425       34.710     2135.857     2249.120     1204.799        1.371        0.279      147.081       31.990        0.047      332.457        1.131      874.597
12/14/2013  12:14:00      105.421       75.642        9.522       31.361       32.913       32.205      983.482     1083.272     1037.183        1.001        0.155      129.751        3.658        0.001      332.431        1.089      874.581
12/14/2013  12:15:00      102.426       57.580        7.650       20.980       32.826       21.272      440.143     1077.539      452.515        0.792        0.099      117.501        8.414        0.005      332.430        1.086      874.560
12/14/2013  12:16:00       68.529       46.560        5.032       46.433       26.403       22.921     2155.987      697.093      525.395        0.513        0.169       82.850       16.125        0.038      332.570        1.318      874.544
12/14/2013  12:17:00       88.489       63.855       10.271       35.422       34.783       32.400     1254.687     1209.860     1049.746        0.776        0.176      109.123       15.085        0.019      332.543        1.273      874.525
12/14/2013  12:18:00       70.988       44.349       47.810       41.141       59.560       48.092     1692.543     3547.366     2312.867        0.842        0.378       83.702       23.637        0.080      332.693        1.520      874.502
12/14/2013  12:19:00       45.837       81.387      108.607       61.038       58.155       42.246     3725.645     3382.031     1784.729        1.470        0.445       93.407       38.909        0.174      332.700        1.534      874.477
12/14/2013  12:20:00        7.516       59.089       69.012       31.095       46.740       35.502      966.914     2184.595     1260.388        0.636        0.221       59.565       23.950        0.162      332.777        1.659      874.453
12/14/2013  12:21:00       45.165       21.342       35.284       46.042       56.705       31.702     2119.825     3215.456     1005.048        0.504        0.317       49.954       21.814        0.191      332.842        1.768      874.422
12/14/2013  12:22:00       82.308       17.019       39.749       51.940       69.877       50.725     2697.754     4882.835     2573.028        0.940        0.508       84.049       45.886        0.298      332.669        1.482      874.375
12/14/2013  12:23:00       75.414      103.868       82.808       67.164       45.064       43.788     4511.016     2030.777     1917.421        1.589        0.423      128.359       42.646        0.110      332.705        1.541      874.331
12/14/2013  12:24:00       47.572       65.976       79.853       58.830       48.722       39.644     3461.009     2373.826     1571.636        1.020        0.370       81.338       36.907        0.206      332.819        1.731      874.313
12/14/2013  12:25:00       71.057       93.492       89.575       59.935       51.806       51.805     3592.157     2683.861     2683.794        1.538        0.448      117.430       44.459        0.143      332.669        1.482      874.315
12/14/2013  12:26:00      107.100       72.600       53.173       34.236       29.704       37.071     1172.084      882.329     1374.234        1.150        0.171      129.388       21.897        0.029      332.491        1.189      874.334
12/14/2013  12:27:00       73.248       85.611       61.008       57.722       53.037       53.154     3331.799     2812.927     2825.398        1.269        0.449      112.670       45.274        0.161      332.621        1.402      874.355
12/14/2013  12:28:00       98.939       49.759       10.428       22.707       36.678       26.939      515.588     1345.301      725.724        0.748        0.129      110.746       21.720        0.038      332.428        1.084      874.381
12/14/2013  12:29:00       83.861       65.180        0.548       26.115       23.650       26.968      682.014      559.326      727.263        0.662        0.098      106.213       13.120        0.015      332.568        1.315      874.404
12/14/2013  12:30:00       62.272       69.011       -8.008       30.909       28.826       29.806      955.386      830.944      888.391        0.569        0.134       92.953       22.448        0.058      332.658        1.464      874.404
12/14/2013  12:31:00       97.380       61.608        9.186       51.623       27.166       29.284     2664.933      737.996      857.540        0.881        0.213      115.232       16.634        0.021      332.565        1.310      874.396
12/14/2013  12:32:00       40.148       34.875       20.933       38.411       21.689       32.132     1475.394      470.419     1032.476        0.312        0.149       53.180       22.211        0.174      332.857        1.792      874.379
12/14/2013  12:33:00       67.728       44.398        9.077       44.883       33.265       18.131     2014.520     1106.571      328.738        0.504        0.172       80.983       15.495        0.037      332.812        1.718      874.364
12/14/2013  12:34:00       93.513       49.015       21.515       44.727       40.867       29.453     2000.472     1670.143      867.455        0.807        0.227      105.580       18.971        0.032      332.877        1.826      874.345
12/14/2013  12:35:00       66.631       44.073        0.613       35.348       38.263       27.874     1249.484     1464.053      776.982        0.494        0.175       79.888       15.220        0.036      332.563        1.304      874.338
12/14/2013  12:36:00       71.207       62.072        0.066       27.155       27.613       26.533      737.378      762.494      703.988        0.556        0.110       94.464       19.817        0.044      332.853        1.787      874.338
12/14/2013  12:37:00       83.132       54.350        9.673       27.761       19.620       25.174      770.684      384.959      633.730        0.587        0.089       99.322       15.101        0.023      332.805        1.708      874.346
12/14/2013  12:38:00       45.197       37.565       -8.300       20.048       22.545       22.509      401.906      508.276      506.666        0.247        0.071       58.769       13.976        0.057      332.904        1.870      874.352
12/14/2013  12:39:00       29.585       53.399       30.832       37.718       31.989       38.541     1422.670     1023.321     1485.421        0.430        0.197       61.047       31.532        0.267      333.189        2.342      874.341
12/14/2013  12:40:00       73.456       70.056       33.487       60.273       42.223       34.547     3632.777     1782.748     1193.475        0.902        0.330      101.507       31.598        0.097      333.219        2.391      874.326
12/14/2013  12:41:00       85.161       51.254       23.439       41.734       31.453       27.282     1741.754      989.305      744.281        0.695        0.174       99.395       13.038        0.017      332.866        1.808      874.317
12/14/2013  12:42:00       38.760       23.381       23.393       30.235       38.040       33.949      914.135     1447.016     1152.551        0.305        0.176       45.266       29.544        0.426      333.049        2.110      874.307
12/14/2013  12:43:00        9.457       71.077       78.330       35.184       35.005       27.517     1237.920     1225.366      757.184        0.725        0.161       71.703       22.618        0.099      333.350        2.607      874.293
12/14/2013  12:44:00       68.134       18.959       38.668       34.352       48.423       31.836     1180.060     2344.790     1013.505        0.552        0.227       70.722       26.042        0.136      333.010        2.047      874.292
12/14/2013  12:45:00       30.777       41.677       -3.025       43.820       21.238       29.775     1920.167      451.034      886.527        0.297        0.163       51.810       19.389        0.140      332.949        1.945      874.271
12/14/2013  12:46:00        5.013       41.283       20.858       18.358       24.445       25.841      337.019      597.555      667.770        0.188        0.080       41.586       18.772        0.204      333.279        2.490      874.255
12/14/2013  12:47:00       51.934       45.049       20.758       44.852       27.304       29.353     2011.675      745.511      861.577        0.439        0.181       68.750       19.595        0.081      333.197        2.355      874.242
12/14/2013  12:48:00       30.312       53.749       -5.899       19.313       24.037       18.330      373.002      577.787      335.981        0.256        0.064       61.708       14.034        0.052      333.130        2.242      874.207
12/14/2013  12:49:00       41.779       36.462       19.408       20.530       17.070       26.834      421.471      291.384      720.080        0.244        0.072       55.453       16.283        0.086      333.125        2.236      874.167
12/14/2013  12:50:00      -11.149       77.241      109.077       21.799       53.033       34.424      475.206     2812.536     1185.039        1.123        0.224       78.041       33.664        0.186      333.346        2.600      874.137
12/14/2013  12:51:00       96.369       44.917       56.649       62.139       48.991       45.047     3861.292     2400.076     2029.196        1.140        0.415      106.322       38.907        0.134      333.266        2.468      874.114
12/14/2013  12:52:00       -0.135        7.152       46.795       24.610       38.684       20.001      605.666     1496.415      400.055        0.237        0.125        7.153       15.730        4.836      333.936        3.577      874.108
12/14/2013  12:53:00        7.302       41.946       66.721       33.798       60.630       31.345     1142.304     3676.038      982.512        0.603        0.290       42.577       34.892        0.672      333.440        2.757      874.117
12/14/2013  12:54:00       69.938       77.238       56.354       54.676       40.606       34.483     2989.412     1648.855     1189.070        0.993        0.291      104.197       15.939        0.023      333.317        2.552      874.106
12/14/2013  12:55:00       22.499       74.068       86.496       49.157       41.424       34.438     2416.409     1715.926     1185.962        0.940        0.266       77.410       32.690        0.178      333.283        2.496      874.101
12/14/2013  12:56:00        3.814       24.347       80.087       27.443       25.035       19.024      753.112      626.728      361.898        0.438        0.087       24.644       14.119        0.328      333.355        2.616      874.096
12/14/2013  12:57:00       27.924      -77.309       12.256       47.722       89.676       46.486     2277.405     8041.776     2160.940        0.969        0.624       82.197       58.331        0.504      333.306        2.535      874.077
12/14/2013  12:58:00       42.488      -73.316       -0.283       34.903       45.847       29.252     1218.190     2101.925      855.685        0.568        0.209       84.738       20.366        0.058      333.211        2.377      874.077
12/14/2013  12:59:00       31.577        8.723       34.887       29.590       31.399       18.652      875.542      985.906      347.892        0.225        0.110       32.760       17.362        0.281      333.468        2.802      874.073
12/14/2013  13:00:00       53.722       49.627       55.193       68.544       43.826       45.404     4698.339     1920.726     2061.511        0.854        0.434       73.136       48.091        0.432      333.368        2.636      874.091
12/14/2013  13:01:00       53.049       35.361       45.634       41.888       35.061       35.249     1754.584     1229.277     1242.523        0.519        0.211       63.754       27.365        0.184      333.221        2.393      874.129
12/14/2013  13:02:00       51.824       -4.696       23.230       37.335       24.426       25.483     1393.909      596.616      649.406        0.294        0.132       52.037        9.743        0.035      333.294        2.514      874.156
12/14/2013  13:03:00       29.491       14.318       34.798       33.573       34.994       29.001     1127.122     1224.563      841.067        0.274        0.160       32.783       29.554        0.813      333.594        3.011      874.170
12/14/2013  13:04:00       34.735       -9.523       -3.585       23.573       19.894       30.197      555.685      395.778      911.887        0.159        0.093       36.017       17.875        0.246      333.264        2.466      874.175
12/14/2013  13:05:00       80.767       49.693       28.412       26.569       25.333       31.513      705.917      641.756      993.064        0.607        0.117       94.830       20.629        0.047      333.227        2.404      874.167
12/14/2013  13:06:00       69.934       21.894       -0.445       34.440       57.107       23.664     1186.138     3261.201      559.969        0.519        0.250       73.282       23.019        0.099      333.075        2.154      874.166
12/14/2013  13:07:00       58.527       39.267       23.962       39.250       68.693       25.369     1540.534     4718.728      643.579        0.622        0.345       70.480       18.126        0.066      333.242        2.429      874.135
12/14/2013  13:08:00       60.641       30.920       12.086       38.974       35.936       28.407     1518.953     1291.367      806.943        0.420        0.181       68.069       17.627        0.067      333.292        2.511      874.136
12/14/2013  13:09:00        1.343      -12.446        1.188       12.865       15.915       12.237      165.521      253.287      149.748        0.036        0.028       12.518       12.104        0.935      333.404        2.696      874.120
12/14/2013  13:10:00       58.808       56.733       40.328       36.108       38.518       41.436     1303.768     1483.667     1716.904        0.640        0.225       81.713       28.512        0.122      333.510        2.872      874.108
12/14/2013  13:11:00       74.081       70.152       49.333       54.085       34.367       48.921     2925.156     1181.082     2393.238        0.967        0.325      102.026       38.367        0.141      333.492        2.842      874.105
12/14/2013  13:12:00       31.902       38.849       23.215       49.768       39.703       48.280     2476.841     1576.302     2331.000        0.472        0.319       50.269       38.953        0.600      333.451        2.776      874.083
12/14/2013  13:13:00       72.420       26.672       56.425       47.072       38.664       43.328     2215.753     1494.881     1877.293        0.736        0.279       77.175       34.792        0.203      333.358        2.621      874.068
12/14/2013  13:14:00       26.278       28.135       21.735       30.518       45.522       45.642      931.355     2072.208     2083.148        0.352        0.254       38.498       39.607        1.058      333.458        2.785      874.028
12/14/2013  13:15:00      105.514       56.102       74.734       55.365       53.844       51.021     3065.320     2899.199     2603.126        1.421        0.428      119.501       46.618        0.152      333.467        2.800      873.989
12/14/2013  13:16:00       44.381       31.655       47.059       54.327       37.242       24.629     2951.433     1386.956      606.599        0.506        0.247       54.513       30.340        0.310      333.614        3.044      873.979
12/14/2013  13:17:00       58.437      -48.857       15.318       48.026       62.083       33.736     2306.532     3854.352     1138.149        0.667        0.365       76.170       35.220        0.214      333.648        3.101      873.948
12/14/2013  13:18:00       31.872        7.526       31.783       42.790       39.185       30.638     1830.967     1535.495      938.671        0.319        0.215       32.749       34.715        1.124      333.693        3.175      873.943
12/14/2013  13:19:00       13.006        7.183       45.564       39.639       61.239       33.752     1571.245     3750.276     1139.164        0.438        0.323       14.857       35.510        5.712      333.799        3.351      873.947
12/14/2013  13:20:00       82.453      -39.087       17.202       76.353       61.249       39.152     5829.738     3751.396     1532.898        0.987        0.556       91.249       44.721        0.240      333.581        2.989      873.943
12/14/2013  13:21:00      111.867       54.658       47.295       60.795       56.292       53.662     3695.993     3168.813     2879.602        1.374        0.487      124.506       34.455        0.077      333.472        2.809      873.967
12/14/2013  13:22:00       41.336      -29.036       31.134       52.386       79.017       51.448     2744.309     6243.730     2646.885        0.758        0.582       50.514       39.409        0.609      333.671        3.139      873.959
12/14/2013  13:23:00       41.964        6.875       78.017       66.061       65.437       44.777     4363.997     4281.957     2005.004        0.927        0.533       42.523       42.242        0.987      333.704        3.194      873.945
12/14/2013  13:24:00       27.668       66.438       83.133       44.627       45.880       28.214     1991.586     2105.004      796.022        0.849        0.245       71.969       18.507        0.066      333.614        3.044      873.933
12/14/2013  13:25:00       27.733       27.177       79.803       37.757       65.008       36.497     1425.617     4226.021     1332.060        0.743        0.349       38.830       34.550        0.792      333.734        3.241      873.902
12/14/2013  13:26:00       21.355       41.976       42.900       19.132       33.579       25.319      366.049     1127.516      641.066        0.310        0.107       47.096       17.758        0.142      333.643        3.092      873.881
12/14/2013  13:27:00       55.079      -71.613       17.536       39.833       68.616       36.355     1586.685     4708.133     1321.719        0.804        0.381       90.345       33.943        0.141      333.777        3.316      873.873
12/14/2013  13:28:00       39.035      -24.700       37.169       52.835       71.464       45.437     2791.507     5107.073     2064.515        0.674        0.498       46.193       49.658        1.156      333.865        3.460      873.876
12/14/2013  13:29:00       47.897        0.353       51.618       59.482       45.273       32.176     3538.164     2049.603     1035.306        0.579        0.331       47.898       28.149        0.345      333.843        3.423      873.873
12/14/2013  13:30:00      107.315      -65.161       17.849       70.335       79.906       50.078     4947.022     6385.001     2507.817        1.496        0.692      125.548       56.626        0.203      333.605        3.028      873.856
12/14/2013  13:31:00       90.686      -72.510       11.956       54.938       64.668       48.145     3018.230     4181.948     2317.962        1.157        0.476      116.111       45.440        0.153      333.719        3.219      873.814
12/14/2013  13:32:00       59.750       -2.329       44.742       65.112       57.109       50.610     4239.624     3261.460     2561.342        0.782        0.503       59.796       44.645        0.557      333.755        3.278      873.750
12/14/2013  13:33:00      107.652       42.134       29.642       50.189       42.557       51.617     2518.963     1811.130     2664.281        1.062        0.350      115.604       35.513        0.094      333.454        2.780      873.678
12/14/2013  13:34:00      104.608      109.136       89.661       61.426       60.680       57.741     3773.159     3682.026     3334.053        2.084        0.539      151.174       52.762        0.122      333.489        2.835      873.601
12/14/2013  13:35:00      110.839       92.432       77.582       65.281       43.469       48.758     4261.557     1889.520     2377.369        1.769        0.426      144.322       35.007        0.059      333.579        2.986      873.556
12/14/2013  13:36:00      123.097       78.786       68.628       57.063       47.953       42.213     3256.239     2299.507     1781.907        1.670        0.367      146.151       34.277        0.055      333.517        2.882      873.527
12/14/2013  13:37:00       75.399       57.389       76.971       64.657       91.580       44.399     4180.506     8386.808     1971.265        1.472        0.727       94.756       45.885        0.234      333.734        3.242      873.505
12/14/2013  13:38:00       10.289       27.667       68.551       24.790       41.091       28.404      614.539     1688.436      806.765        0.434        0.155       29.518       19.756        0.448      333.907        3.531      873.518
12/14/2013  13:39:00       31.555       -1.810       23.625       38.617       49.136       27.610     1491.277     2414.381      762.337        0.311        0.233       31.607       30.641        0.940      333.885        3.492      873.517
12/14/2013  13:40:00       28.410       -9.229       30.788       32.590       78.689       35.350     1062.129     6191.889     1249.620        0.517        0.425       29.872       44.668        2.236      333.978        3.648      873.526
12/14/2013  13:41:00       83.454      -41.225       15.376       79.147      108.023       63.341     6264.320    11668.979     4012.102        1.542        1.097       93.081       76.626        0.678      333.776        3.313      873.555
12/14/2013  13:42:00       63.275      -49.923       21.578       66.902       59.842       42.876     4475.931     3581.015     1838.340        0.843        0.495       80.598       44.371        0.303      333.773        3.308      873.589
12/14/2013  13:43:00       87.421       65.525       19.732       46.092       35.750       33.084     2124.462     1278.029     1094.559        0.841        0.225      109.252       20.872        0.036      333.619        3.053      873.627
12/14/2013  13:44:00       10.864       59.676        4.500       19.641       29.085       22.098      385.769      845.943      488.331        0.271        0.086       60.657       19.452        0.103      333.757        3.283      873.662
12/14/2013  13:45:00       33.682       49.883        8.372       35.637       32.057       26.860     1270.008     1027.683      721.482        0.336        0.151       60.190       22.158        0.136      333.829        3.401      873.702
12/14/2013  13:46:00       49.306       28.271       11.890       63.655       54.783       29.013     4051.904     3001.231      841.738        0.563        0.395       56.836       34.200        0.362      333.856        3.446      873.723
12/14/2013  13:47:00       99.898       55.344       23.774       54.086       30.111       25.043     2925.306      906.680      627.140        0.903        0.223      114.204       17.005        0.022      333.724        3.227      873.738
12/14/2013  13:48:00      104.583       78.647       16.601       34.755       27.381       32.102     1207.888      749.724     1030.552        1.019        0.149      130.855       14.915        0.013      333.602        3.023      873.740
12/14/2013  13:49:00       81.427       54.726       15.489       52.293       36.169       30.877     2734.517     1308.165      953.415        0.743        0.250       98.109       25.788        0.069      333.718        3.216      873.736
12/14/2013  13:50:00      112.696       77.007       48.388       76.403       59.595       50.131     5837.448     3551.601     2513.119        1.643        0.595      136.493       32.556        0.057      333.689        3.167      873.718
12/14/2013  13:51:00      101.538      102.607       51.623       71.977       35.391       48.506     5180.711     1252.505     2352.807        1.614        0.439      144.354       45.504        0.099      333.851        3.436      873.716
12/14/2013  13:52:00       17.144       42.582       -1.802       39.493       30.310       26.304     1559.666      918.676      691.908        0.264        0.159       45.904       18.640        0.165      333.978        3.648      873.711
12/14/2013  13:53:00       20.048       66.762       -5.546       24.877       37.797       23.564      618.874     1428.611      555.247        0.375        0.130       69.707       19.173        0.076      334.033        3.740      873.711
12/14/2013  13:54:00       42.214       15.040       18.449       33.035       46.046       26.147     1091.305     2120.275      683.664        0.312        0.195       44.813       20.864        0.217      334.001        3.687      873.686
12/14/2013  13:55:00        6.601       79.696       99.333       31.906       55.191       42.860     1018.023     3046.031     1836.982        1.108        0.295       79.969       41.699        0.272      334.040        3.750      873.644
12/14/2013  13:56:00       77.310       75.057       63.622       59.782       52.679       47.081     3573.848     2775.129     2216.581        1.211        0.428      107.752       27.029        0.063      333.767        3.297      873.604
12/14/2013  13:57:00      101.304       99.409       59.774       69.303       55.371       54.822     4802.839     3065.984     3005.466        1.729        0.544      141.932       51.142        0.130      333.691        3.171      873.580
12/14/2013  13:58:00       51.202       37.801       46.013       45.549       40.451       39.902     2074.684     1636.248     1592.130        0.573        0.265       63.644       38.131        0.359      333.827        3.398      873.558
12/14/2013  13:59:00       38.753       28.107       48.658       25.510       42.815       27.112      650.765     1833.105      735.081        0.394        0.161       47.873       29.883        0.390      333.847        3.430      873.545
12/14/2013  14:00:00       -3.398        2.128       15.012        6.504       10.616       10.067       42.302      112.708      101.351        0.025        0.013        4.010        4.990        1.549      334.364        4.288      873.527
12/14/2013  14:01:00       10.779       26.454        2.009       19.583       23.094       20.208      383.501      533.335      408.364        0.107        0.066       28.566       17.593        0.379      334.029        3.733      873.514
12/14/2013  14:02:00       67.893       51.150       34.422       38.220       35.263       24.068     1460.731     1243.478      579.253        0.585        0.164       85.004       12.979        0.023      334.038        3.747      873.508
12/14/2013  14:03:00       95.321       73.349       29.967       50.515       49.986       40.344     2551.787     2498.592     1627.628        1.102        0.334      120.275       23.939        0.040      333.940        3.582      873.512
12/14/2013  14:04:00       25.505       22.526       31.453       32.440       28.516       19.056     1052.322      813.169      363.145        0.219        0.111       34.028       16.710        0.241      334.087        3.828      873.514
12/14/2013  14:05:00       34.262       41.021       31.780       45.598       27.745       22.525     2079.151      769.810      507.364        0.361        0.168       53.448       12.462        0.054      333.996        3.677      873.507
12/14/2013  14:06:00       82.273       50.280        0.889       49.827       32.066       26.217     2482.701     1028.247      687.336        0.675        0.210       96.420        7.466        0.006      333.928        3.565      873.493
12/14/2013  14:07:00       58.214       41.262       25.917       34.871       39.755       30.636     1216.004     1580.496      938.545        0.475        0.187       71.354       22.952        0.103      334.078        3.813      873.488
12/14/2013  14:08:00       11.025       19.128       45.136       19.991       29.591       16.560      399.643      875.606      274.229        0.204        0.077       22.078        7.408        0.113      334.263        4.120      873.469
12/14/2013  14:09:00        7.093       14.890       32.665       18.898       22.979       21.204      357.122      528.015      449.612        0.134        0.067       16.492       13.634        0.683      334.252        4.102      873.454
12/14/2013  14:10:00       38.958       47.578       40.499       64.055       35.225       23.113     4103.070     1240.804      534.201        0.565        0.294       61.493       30.721        0.250      334.117        3.878      873.434
12/14/2013  14:11:00      103.049       55.626        3.680       31.431       36.631       23.802      987.900     1341.794      566.557        0.831        0.145      117.104       13.554        0.013      333.833        3.406      873.422
12/14/2013  14:12:00       66.454       55.477       49.042       48.626       32.271       31.632     2364.473     1041.407     1000.597        0.715        0.220       86.567       24.155        0.078      333.936        3.577      873.436
12/14/2013  14:13:00       58.747       28.660       17.964       33.085       34.960       24.306     1094.591     1222.235      590.789        0.375        0.145       65.365       17.385        0.071      333.944        3.592      873.458
12/14/2013  14:14:00      100.521       61.306       30.649       42.128       27.559       34.923     1774.809      759.492     1219.599        0.928        0.188      117.741       18.989        0.026      333.924        3.558      873.479
12/14/2013  14:15:00       58.511       73.604       54.536       56.679       32.895       49.513     3212.543     1082.056     2451.558        0.928        0.337       94.027       45.784        0.237      334.076        3.811      873.487
12/14/2013  14:16:00        9.583       71.678       88.220       28.689       40.830       25.742      823.061     1667.071      662.670        0.808        0.158       72.316       26.288        0.132      334.002        3.687      873.492
12/14/2013  14:17:00       10.732       42.590       70.935       25.024       35.125       23.497      626.201     1233.774      552.130        0.469        0.121       43.921       26.428        0.362      334.139        3.915      873.491
12/14/2013  14:18:00       20.339       61.924       87.055       41.876       46.795       28.849     1753.592     2189.729      832.272        0.830        0.239       65.178       29.349        0.203      334.204        4.021      873.482
12/14/2013  14:19:00       53.461       86.934       78.663       51.595       33.913       29.644     2662.005     1150.106      878.741        1.065        0.235      102.057       30.553        0.090      334.059        3.781      873.477
12/14/2013  14:20:00      111.071       76.759       13.750       33.155       31.095       29.421     1099.234      966.916      865.599        1.067        0.147      135.013       21.617        0.026      333.801        3.353      873.477
12/14/2013  14:21:00       58.405       55.774       17.454       49.607       42.368       28.211     2460.875     1795.078      795.858        0.594        0.253       80.758       24.675        0.093      333.974        3.641      873.485
12/14/2013  14:22:00       52.195       70.452        7.620       41.089       36.556       23.286     1688.302     1336.351      542.245        0.566        0.178       87.680       16.982        0.038      333.976        3.645      873.511
12/14/2013  14:23:00       55.819       42.003        2.619       32.962       23.543       22.296     1086.522      554.289      497.125        0.351        0.107       69.858        6.051        0.008      334.004        3.690      873.542
12/14/2013  14:24:00      113.931       77.519       17.578       47.735       30.593       39.580     2278.609      935.936     1566.604        1.204        0.239      137.802       27.721        0.040      333.959        3.615      873.554
12/14/2013  14:25:00       93.718       60.624        6.346       47.766       38.378       39.802     2281.606     1472.854     1584.187        0.892        0.267      111.617       17.375        0.024      334.040        3.751      873.550
12/14/2013  14:26:00       35.458       35.199       -1.764       31.127       32.075       23.959      968.863     1028.835      574.034        0.254        0.129       49.963       11.973        0.057      334.085        3.825      873.541
12/14/2013  14:27:00       18.870       35.523       10.996       25.180       19.083       17.256      634.053      364.149      297.779        0.152        0.065       40.224       10.899        0.073      334.113        3.872      873.527
12/14/2013  14:28:00       19.423       54.078       67.924       29.175       39.610       34.283      851.157     1568.969     1175.291        0.575        0.180       57.460       16.988        0.087      334.209        4.030      873.494
12/14/2013  14:29:00       21.611       50.532       83.164       44.859       65.809       35.963     2012.298     4330.873     1293.371        0.879        0.382       54.959       37.558        0.467      334.122        3.886      873.465
12/14/2013  14:30:00       20.206       60.400       84.343       28.868       36.655       23.560      833.357     1343.575      555.070        0.695        0.137       63.690       21.202        0.111      334.117        3.877      873.429
12/14/2013  14:31:00        3.872       39.402       75.149       26.483       35.627       17.855      701.371     1269.299      318.804        0.475        0.114       39.591       19.363        0.239      334.154        3.940      873.399
12/14/2013  14:32:00       71.212       54.030       56.509       37.869       36.762       31.555     1434.090     1351.441      995.744        0.748        0.189       89.389       22.758        0.065      334.026        3.726      873.369
12/14/2013  14:33:00       57.028       88.711       80.124       64.651       40.790       40.517     4179.721     1663.830     1641.652        1.251        0.374      105.460       40.744        0.149      334.103        3.855      873.355
12/14/2013  14:34:00      129.691       83.364       35.629       45.560       30.631       29.266     2075.709      938.244      856.486        1.445        0.194      154.173       17.821        0.013      333.919        3.548      873.355
12/14/2013  14:35:00       49.114       36.795       34.820       41.561       32.983       26.822     1727.335     1087.850      719.395        0.426        0.177       61.368       19.878        0.105      334.188        3.996      873.352
12/14/2013  14:36:00       46.852       29.598       30.863       44.468       24.574       22.206     1977.383      603.874      493.125        0.355        0.154       55.418       18.158        0.107      334.286        4.160      873.357
12/14/2013  14:37:00       93.483       95.291       49.909       47.187       31.964       40.611     2226.588     1021.695     1649.279        1.260        0.245      133.490       32.838        0.061      334.114        3.873      873.385
12/14/2013  14:38:00       76.927       62.523       50.900       48.369       43.027       36.834     2339.549     1851.312     1356.764        0.898        0.277       99.131       28.495        0.083      334.158        3.945      873.423
12/14/2013  14:39:00       67.745       69.880        2.080       47.990       34.997       33.713     2303.016     1224.760     1136.578        0.707        0.233       97.327       21.860        0.050      334.161        3.951      873.469
12/14/2013  14:40:00        2.032       44.417       33.840       29.344       26.433       33.543      861.046      698.693     1125.133        0.290        0.134       44.464       16.497        0.138      334.354        4.271      873.503
12/14/2013  14:41:00       72.856       67.820       37.189       43.220       27.101       38.567     1867.952      734.475     1487.420        0.769        0.204       99.537       28.090        0.080      334.098        3.847      873.530
12/14/2013  14:42:00       64.373       90.200       15.170       49.248       40.798       46.385     2425.411     1664.493     2151.594        0.937        0.312      110.815       28.622        0.067      334.131        3.903      873.540
12/14/2013  14:43:00       42.919       68.033       59.306       66.083       41.141       40.043     4366.942     1692.586     1603.452        0.882        0.383       80.439       43.016        0.286      334.161        3.951      873.535
12/14/2013  14:44:00       90.032       89.689       70.644       66.673       44.976       43.871     4445.351     2022.821     1924.678        1.476        0.420      127.082       41.578        0.107      334.052        3.769      873.524
12/14/2013  14:45:00        6.049       70.477       75.392       26.501       47.694       25.119      702.296     2274.688      630.977        0.715        0.180       70.736       21.790        0.095      334.182        3.986      873.513
12/14/2013  14:46:00       51.713       81.346       80.020       66.231       41.863       32.849     4386.601     1752.477     1079.056        1.145        0.361       96.392       29.708        0.095      334.153        3.938      873.498
12/14/2013  14:47:00       55.281       59.244       67.154       52.803       49.864       30.707     2788.189     2486.462      942.911        0.865        0.311       81.030       26.992        0.111      334.056        3.778      873.488
12/14/2013  14:48:00       66.309      105.525       89.278       59.193       48.579       34.484     3503.778     2359.960     1189.153        1.528        0.353      124.629       27.824        0.050      334.045        3.757      873.479
12/14/2013  14:49:00       91.608       72.424       54.852       46.133       48.765       36.102     2128.287     2377.977     1303.381        1.123        0.290      116.778       21.026        0.032      334.071        3.802      873.484
12/14/2013  14:50:00      143.270       82.717       12.624       36.840       36.388       35.738     1357.217     1324.090     1277.203        1.574        0.198      165.434       20.559        0.015      334.001        3.686      873.498
12/14/2013  14:51:00      125.549       62.954       17.341       55.121       31.937       28.157     3038.331     1019.991      792.807        1.244        0.243      140.449       19.846        0.020      334.037        3.744      873.513
12/14/2013  14:52:00       96.836       54.152       21.131       40.281       38.754       36.409     1622.546     1501.878     1325.582        0.860        0.223      110.949       16.331        0.022      334.066        3.793      873.533
12/14/2013  14:53:00       45.398       54.141        7.223       33.420       24.747       27.028     1116.913      612.435      730.515        0.375        0.123       70.656       17.294        0.060      334.118        3.878      873.557
12/14/2013  14:54:00       44.461       48.648        9.740       46.736       26.904       28.766     2184.249      723.800      827.487        0.409        0.187       65.905       13.446        0.042      334.094        3.839      873.570
12/14/2013  14:55:00       62.047       79.817        5.038       50.535       51.802       39.466     2553.806     2683.462     1557.533        0.852        0.340      101.097       36.619        0.131      334.038        3.748      873.574
12/14/2013  14:56:00       89.902       63.628       11.394       54.559       36.139       26.543     2976.635     1306.056      704.520        0.862        0.249      110.140       24.647        0.050      334.059        3.782      873.581
12/14/2013  14:57:00       61.362       60.675       -2.760       66.612       35.127       30.703     4437.214     1233.890      942.650        0.703        0.331       86.295       22.592        0.069      334.077        3.810      873.590
12/14/2013  14:58:00       30.179      119.387      -14.192       32.705       73.617       33.447     1069.603     5419.471     1118.674        1.149        0.380      123.143       41.526        0.114      334.037        3.746      873.598
12/14/2013  14:59:00       49.691      103.068      -11.944       34.236       47.657       33.171     1172.072     2271.165     1100.282        0.889        0.227      114.421       26.570        0.054      334.072        3.802      873.605
12/14/2013  15:00:00       58.352       70.435        5.881       52.014       39.409       29.365     2705.467     1553.073      862.294        0.676        0.256       91.466       22.054        0.058      334.076        3.810      873.621
12/14/2013  15:01:00       42.514      105.189       -8.793       26.647       55.360       26.843      710.082     3064.680      720.549        0.872        0.225      113.456       28.741        0.064      334.046        3.763      873.624
12/14/2013  15:02:00       55.502       70.615       -4.914       45.194       43.373       34.650     2042.505     1881.232     1200.611        0.661        0.256       89.816       32.332        0.130      334.042        3.754      873.626
12/14/2013  15:03:00       92.481       69.258        3.702       38.461       29.712       25.704     1479.270      882.782      660.699        0.819        0.151      115.540       16.975        0.022      334.041        3.751      873.633
12/14/2013  15:04:00       77.626       59.737        9.102       27.454       26.270       19.498      753.702      690.106      380.172        0.575        0.091       97.950       14.178        0.021      334.057        3.778      873.636
12/14/2013  15:05:00       56.817       59.584        2.590       36.101       34.365       25.495     1303.252     1180.986      649.993        0.496        0.157       82.331       16.711        0.041      334.107        3.860      873.628
12/14/2013  15:06:00       57.955       67.330        3.098       39.633       40.954       42.689     1570.759     1677.228     1822.344        0.649        0.254       88.837       24.434        0.076      334.155        3.940      873.628
12/14/2013  15:07:00      107.688       75.107       14.483       41.682       32.070       27.637     1737.408     1028.504      763.825        1.049        0.176      131.293       16.037        0.015      334.116        3.876      873.632
12/14/2013  15:08:00       82.806       70.002       -2.552       38.811       32.132       25.012     1506.325     1032.463      625.580        0.746        0.158      108.430       14.904        0.019      334.163        3.955      873.618
12/14/2013  15:09:00       68.330       47.765       -3.086       23.147       25.772       17.986      535.800      664.172      323.504        0.424        0.076       83.369       13.995        0.028      334.200        4.015      873.607
12/14/2013  15:10:00       58.898       34.004       16.745       37.136       24.665       30.692     1379.054      608.362      941.985        0.392        0.146       68.009       23.117        0.116      334.337        4.243      873.602
12/14/2013  15:11:00       45.254       38.974        0.645       38.639       36.904       18.830     1492.959     1361.887      354.560        0.339        0.160       59.723       11.714        0.038      334.284        4.154      873.584
12/14/2013  15:12:00       52.853       32.594       19.042       53.800       41.115       28.837     2894.453     1690.476      831.594        0.482        0.271       62.096       12.577        0.041      334.345        4.256      873.572
12/14/2013  15:13:00       83.572       48.076        6.022       28.033       20.626       23.977      785.855      425.452      574.908        0.556        0.089       96.413       14.573        0.023      334.231        4.068      873.576
12/14/2013  15:14:00       91.315       72.904       11.297       41.528       35.771       29.414     1724.533     1279.592      865.169        0.882        0.193      116.848       26.782        0.053      334.225        4.056      873.586
12/14/2013  15:15:00       43.032       42.354       -0.358       33.286       29.240       25.220     1107.955      854.950      636.045        0.312        0.130       60.379       20.260        0.113      334.225        4.058      873.593
12/14/2013  15:16:00       41.247       28.825       -7.152       21.154       19.464       16.521      447.483      378.860      272.956        0.184        0.055       50.321       13.361        0.071      334.309        4.198      873.597
12/14/2013  15:17:00        6.862       28.645       19.802       32.325       20.954       14.802     1044.904      439.062      219.101        0.148        0.085       29.455        4.237        0.021      334.417        4.378      873.610
12/14/2013  15:18:00       16.410      131.480      -24.787       30.380       47.669       16.032      922.951     2272.367      257.027        1.081        0.173      132.500       20.044        0.023      334.215        4.040      873.623
12/14/2013  15:19:00       43.180       60.992       -6.569       50.143       37.078       31.420     2514.367     1374.760      987.198        0.525        0.244       74.729       27.468        0.135      334.250        4.099      873.630
12/14/2013  15:20:00       37.229       66.976       -4.790       31.526       42.014       27.894      993.911     1765.139      778.073        0.472        0.177       76.628       25.077        0.107      334.206        4.025      873.638
12/14/2013  15:21:00       33.370      110.968       -2.255       36.297       53.230       42.165     1317.478     2833.411     1777.863        0.968        0.296      115.877       36.920        0.102      334.171        3.968      873.651
12/14/2013  15:22:00       47.261       58.676        3.407       31.224       21.448       23.797      974.913      460.030      566.290        0.384        0.100       75.342       18.250        0.059      334.212        4.036      873.666
12/14/2013  15:23:00       27.465      102.772       -5.453       39.230       50.222       27.179     1539.004     2522.271      738.685        0.807        0.240      106.378       27.592        0.067      334.236        4.076      873.682
12/14/2013  15:24:00       52.209       22.579        7.279       50.365       32.340       29.306     2536.682     1045.849      858.822        0.386        0.222       56.883       24.534        0.186      334.374        4.304      873.685
12/14/2013  15:25:00       72.247       32.844       24.514       43.945       26.711       30.077     1931.134      713.497      904.650        0.522        0.177       79.362       26.376        0.110      334.278        4.146      873.681
12/14/2013  15:26:00       63.270       37.270       18.055       24.849       24.277       26.675      617.496      589.379      711.560        0.382        0.096       73.431       13.110        0.032      334.286        4.160      873.674
12/14/2013  15:27:00       52.168       31.411       22.742       31.812       17.761       19.207     1012.007      315.437      368.911        0.296        0.085       60.894       13.600        0.050      334.336        4.242      873.663
12/14/2013  15:28:00       48.905       39.952        1.249       32.532       34.509       27.088     1058.357     1190.853      733.768        0.349        0.149       63.149       23.629        0.140      334.330        4.231      873.649
12/14/2013  15:29:00       32.019       43.871      -19.888       23.557       37.809       18.510      554.952     1429.522      342.607        0.284        0.116       54.313       16.785        0.096      334.280        4.148      873.628
12/14/2013  15:30:00       -2.061       15.657        3.483       11.374       16.314       14.707      129.373      266.145      216.307        0.044        0.031       15.792       13.460        0.726      334.532        4.567      873.622
12/14/2013  15:31:00        5.290       13.900        1.557       11.657        6.918       10.203      135.881       47.857      104.101        0.026        0.014       14.872        6.253        0.177      334.409        4.363      873.635
12/14/2013  15:32:00       63.915       31.036       12.273       61.923       31.130       24.153     3834.510      969.067      583.382        0.529        0.269       71.051       20.574        0.084      334.386        4.325      873.649
12/14/2013  15:33:00       91.760       47.295        1.974       37.642       35.337       26.198     1416.955     1248.678      686.358        0.701        0.168      103.231       18.035        0.031      334.226        4.059      873.672
12/14/2013  15:34:00       72.816       60.496        1.327       23.604       23.276       18.682      557.142      541.755      349.015        0.521        0.072       94.668       18.186        0.037      334.180        3.985      873.695
12/14/2013  15:35:00       42.671       19.113        0.234        9.218        9.300        6.172       84.979       86.496       38.096        0.120        0.010       46.756        4.741        0.010      334.183        3.987      873.712
12/14/2013  15:36:00       32.478       54.992       -2.334       30.308       45.838       14.918      918.577     2101.168      222.533        0.366        0.162       63.866       18.319        0.082      334.260        4.115      873.720
12/14/2013  15:37:00       12.864      103.094      -21.741       23.263       36.474       18.623      541.149     1330.331      346.827        0.674        0.111      103.894        4.861        0.002      334.254        4.104      873.725
12/14/2013  15:38:00       13.968       94.634      -17.282       18.415       25.269       14.206      339.106      638.538      201.802        0.531        0.059       95.659        8.203        0.007      334.284        4.155      873.731
12/14/2013  15:39:00       19.518       74.418       -1.952       23.110       29.872       18.252      534.078      892.314      333.119        0.384        0.088       76.935       16.001        0.043      334.337        4.244      873.745
12/14/2013  15:40:00       24.980       80.780       -6.659       18.704       35.611       22.145      349.840     1268.118      490.389        0.465        0.105       84.554       23.719        0.079      334.332        4.236      873.758
12/14/2013  15:41:00       22.225       70.365       -7.427       29.980       44.471       21.667      898.818     1977.647      469.449        0.442        0.167       73.792       22.891        0.096      334.370        4.299      873.764
12/14/2013  15:42:00       57.903       62.357       -8.576       38.135       49.088       28.138     1454.314     2409.676      791.771        0.598        0.233       85.095       26.088        0.094      334.308        4.196      873.766
12/14/2013  15:43:00      119.335       80.578       15.524       27.445       28.188       28.167      753.249      794.578      793.366        1.166        0.117      143.992       12.210        0.007      334.277        4.144      873.777
12/14/2013  15:44:00       78.959       62.056       32.792       54.733       31.253       29.623     2995.669      976.722      877.524        0.800        0.242      100.427       26.578        0.070      334.277        4.143      873.789
12/14/2013  15:45:00      101.661       42.689       26.695       36.899       35.001       27.160     1361.521     1225.052      737.653        0.810        0.166      110.260        7.485        0.005      334.276        4.144      873.801
12/14/2013  15:46:00       89.037       70.878        5.149       32.210       32.402       24.532     1037.497     1049.863      601.810        0.783        0.134      113.804       18.488        0.026      334.243        4.089      873.814
12/14/2013  15:47:00       75.646       48.225       22.669       28.363       18.513       26.025      804.470      342.714      677.292        0.519        0.091       89.710        8.948        0.010      334.241        4.083      873.826
12/14/2013  15:48:00       74.119       59.037        7.940       33.641       29.852       28.156     1131.708      891.128      792.758        0.593        0.141       94.758       20.352        0.046      334.245        4.090      873.828
12/14/2013  15:49:00       67.768       44.732        6.178       26.531       21.643       21.730      703.875      468.439      472.205        0.414        0.082       81.200       15.800        0.038      334.245        4.090      873.824
12/14/2013  15:50:00       41.208       28.526       10.846       33.530       22.318       20.541     1124.282      498.077      421.918        0.234        0.102       50.119       17.813        0.126      334.283        4.154      873.809
12/14/2013  15:51:00       33.450       30.410       13.651       28.160       16.581       18.164      792.961      274.929      329.936        0.181        0.070       45.207       12.882        0.081      334.260        4.116      873.802
12/14/2013  15:52:00       61.113       37.275       24.699       25.878       19.643       18.737      669.646      385.857      351.092        0.357        0.070       71.584       13.690        0.037      334.281        4.150      873.789
12/14/2013  15:53:00       69.796       40.417       25.846       31.110       33.391       21.310      967.801     1114.945      454.135        0.485        0.127       80.654       15.658        0.038      334.262        4.119      873.778
12/14/2013  15:54:00       82.774       48.927       18.881       25.829       17.211       18.616      667.158      296.214      346.563        0.546        0.065       96.152       15.674        0.027      334.232        4.068      873.778
12/14/2013  15:55:00       73.679       53.742       14.789       27.406       18.885       22.733      751.075      356.628      516.787        0.508        0.081       91.197       11.563        0.016      334.290        4.164      873.773
12/14/2013  15:56:00       54.187       41.732        7.807       36.619       21.657       21.097     1340.924      469.015      445.096        0.350        0.113       68.394       15.611        0.052      334.253        4.103      873.760
12/14/2013  15:57:00       81.804       61.657       10.004       37.982       34.426       24.060     1442.653     1185.165      578.904        0.690        0.160      102.437       15.383        0.023      334.227        4.060      873.756
12/14/2013  15:58:00       52.165       51.493        4.494       25.674       25.899       19.636      659.165      670.738      385.581        0.355        0.086       73.299       17.629        0.058      334.221        4.050      873.747
12/14/2013  15:59:00       86.168       48.447        9.897       20.176       19.055       21.874      407.068      363.107      478.464        0.556        0.062       98.854       13.707        0.019      334.258        4.113      873.745
12/14/2013  16:00:00       65.813       27.139        3.476       26.423       31.094       17.678      698.167      966.861      312.506        0.353        0.099       71.189        8.105        0.013      334.221        4.051      873.756
12/14/2013  16:01:00       79.566       54.822       11.578       31.525       30.526       27.881      993.841      931.836      777.337        0.609        0.135       96.624       18.622        0.037      334.190        4.000      873.754
12/14/2013  16:02:00       82.774       47.099       14.365       35.617       27.482       22.239     1268.548      755.268      494.576        0.590        0.126       95.235       11.347        0.014      334.169        3.963      873.755
12/14/2013  16:03:00       73.592        5.848        8.015       33.214       26.636       24.585     1103.157      709.482      604.442        0.397        0.121       73.824       17.233        0.054      334.135        3.908      873.752
12/14/2013  16:04:00       62.135       33.378       29.110       27.595       22.580       26.108      761.497      509.848      681.643        0.389        0.098       70.532       11.631        0.027      334.147        3.927      873.755
12/14/2013  16:05:00       66.484       46.656       33.442       27.966       26.351       27.939      782.103      694.363      780.573        0.499        0.113       81.222       18.701        0.053      334.126        3.893      873.760
12/14/2013  16:06:00       29.027       27.406       39.964       23.053       21.796       16.111      531.421      475.057      259.580        0.223        0.063       39.921       15.560        0.152      334.137        3.911      873.770
12/14/2013  16:07:00       35.154       35.190       31.994       25.807       20.042       15.228      665.999      401.700      231.890        0.240        0.065       49.740        9.093        0.033      334.069        3.799      873.775
12/14/2013  16:08:00       63.672       31.460       17.048       21.284       12.668       15.906      453.024      160.488      253.012        0.310        0.043       71.020        9.428        0.018      334.137        3.911      873.771
12/14/2013  16:09:00       22.710       20.631       17.331       10.535       12.551        9.993      110.978      157.533       99.861        0.080        0.018       30.682        6.729        0.048      334.117        3.877      873.766
12/14/2013  16:10:00       10.890        8.716       14.468       13.316       15.740       11.716      177.312      247.753      137.267        0.048        0.028       13.949       11.835        0.720      334.115        3.874      873.756
12/14/2013  16:11:00       18.688       31.344       30.693       26.916       17.147       20.396      724.447      294.037      415.992        0.185        0.072       36.492       15.109        0.171      334.037        3.745      873.741
12/14/2013  16:12:00       20.187       31.270       37.410       16.260       19.021       11.542      264.374      361.797      133.211        0.177        0.038       37.220        8.935        0.058      334.142        3.920      873.724
12/14/2013  16:13:00       30.969       32.345       25.574       17.493       16.133       16.707      305.994      260.279      279.117        0.175        0.042       44.781       13.079        0.085      334.210        4.033      873.722
12/14/2013  16:14:00       39.778       29.643       35.267       19.834       17.407       15.261      393.402      303.000      232.886        0.232        0.046       49.609       11.579        0.054      334.181        3.985      873.712
12/14/2013  16:15:00       49.085       44.052       41.063       17.357       15.831       17.874      301.272      250.614      319.471        0.345        0.044       65.954       11.534        0.031      334.233        4.071      873.714
12/14/2013  16:16:00       51.779       32.151       17.068       20.295       20.173       18.640      411.890      406.942      347.463        0.259        0.058       60.949       14.876        0.060      334.172        3.970      873.710
12/14/2013  16:17:00        1.477       19.449       29.358       17.461       23.555       15.433      304.903      554.854      238.184        0.117        0.055       19.505       14.036        0.518      334.065        3.793      873.722
12/14/2013  16:18:00       27.906       21.022       20.373       22.600       15.533       21.200      510.777      241.274      449.428        0.142        0.060       34.938       11.638        0.111      334.016        3.709      873.718
12/14/2013  16:19:00       11.198        7.454       30.179       24.136       19.028       20.087      582.555      362.070      403.475        0.122        0.067       13.452       10.284        0.584      334.077        3.812      873.710
12/14/2013  16:20:00        8.549       51.129       55.008       25.932       32.506       18.971      672.483     1056.648      359.908        0.390        0.104       51.839       13.815        0.071      334.077        3.812      873.698
12/14/2013  16:21:00       64.351       48.194       48.122       38.557       34.933       35.727     1486.619     1220.284     1276.385        0.638        0.199       80.397       19.786        0.061      334.037        3.745      873.690
12/14/2013  16:22:00       23.470       70.800       68.390       29.560       29.910       21.093      873.779      894.593      444.903        0.623        0.111       74.588       16.707        0.050      334.022        3.721      873.695
12/14/2013  16:23:00       24.982       57.654       60.898       41.009       34.370       29.809     1681.713     1181.325      888.566        0.570        0.188       62.833       33.188        0.279      334.097        3.844      873.697
12/14/2013  16:24:00       34.514       57.629       58.859       37.304       29.799       22.629     1391.568      887.993      512.088        0.538        0.140       67.174       17.482        0.068      334.124        3.890      873.720
12/14/2013  16:25:00       57.740       53.260       37.717       18.151       16.482       17.149      329.467      271.646      294.084        0.424        0.045       78.552       13.238        0.028      333.988        3.664      873.737
12/14/2013  16:26:00       66.250       39.813       35.521       23.403       17.358       19.381      547.688      301.286      375.622        0.423        0.061       77.292       14.154        0.034      333.972        3.637      873.755
12/14/2013  16:27:00       84.667       38.332        9.397       21.722       17.188       13.687      471.844      295.441      187.337        0.484        0.048       92.940       10.760        0.013      333.972        3.637      873.759
12/14/2013  16:28:00       86.055       35.755        5.491       23.933       18.704       16.160      572.791      349.833      261.160        0.495        0.059       93.188       11.919        0.016      333.991        3.670      873.769
12/14/2013  16:29:00       82.607       47.024       15.367       18.731       11.458       15.936      350.841      131.281      253.970        0.500        0.037       95.054       13.949        0.022      333.955        3.612      873.772
12/14/2013  16:30:00       80.848       35.852       10.414       23.550       16.804       18.359      554.605      282.366      337.045        0.455        0.059       88.441       14.501        0.027      333.960        3.618      873.768
12/14/2013  16:31:00       65.864       27.201        7.762       24.079       17.500       16.066      579.792      306.258      258.109        0.314        0.057       71.259       11.086        0.024      333.928        3.566      873.773
12/14/2013  16:32:00       59.308       46.581       11.699       15.815       12.395       13.566      250.126      153.631      184.035        0.321        0.029       75.414        9.908        0.017      333.891        3.504      873.784
12/14/2013  16:33:00       67.515       35.209       11.186       21.636       16.184       15.419      468.115      261.929      237.751        0.345        0.048       76.144       11.777        0.024      333.888        3.499      873.790
12/14/2013  16:34:00       76.902       46.524        5.535       16.484       12.347       13.911      271.720      152.444      193.509        0.436        0.031       89.880       10.302        0.013      333.850        3.436      873.799
12/14/2013  16:35:00       68.638       48.711       12.704       21.604       15.648       19.215      466.727      244.846      369.218        0.416        0.054       84.166       14.779        0.031      333.772        3.305      873.807
12/14/2013  16:36:00       68.638       49.040        6.742       23.303       18.393       12.274      543.023      338.284      150.659        0.410        0.052       84.357        7.825        0.009      333.778        3.316      873.804
12/14/2013  16:37:00       57.258       48.012       11.790       21.662       12.737       14.285      469.223      162.233      204.070        0.328        0.042       74.724       12.164        0.026      333.800        3.352      873.798
12/14/2013  16:38:00       34.650       23.913       -0.578       23.613       16.044        6.298      557.556      257.410       39.666        0.131        0.043       42.101        3.731        0.008      333.765        3.295      873.799
12/14/2013  16:39:00       33.407       25.187        0.110       18.346       15.330       13.686      336.561      235.013      187.296        0.125        0.038       41.838       10.287        0.060      333.769        3.301      873.797
12/14/2013  16:40:00       23.742       30.851       -2.069       17.139       21.146       13.538      293.741      447.139      183.269        0.122        0.046       38.929       12.014        0.095      333.765        3.295      873.805
12/14/2013  16:41:00       20.512       34.061       -4.428       13.786       21.134       12.531      190.057      446.629      157.034        0.120        0.040       39.760       10.930        0.076      333.777        3.315      873.811
12/14/2013  16:42:00       13.500       77.668      -10.830       11.676       24.715        9.716      136.340      610.835       94.401        0.359        0.042       78.832       12.032        0.023      333.837        3.412      873.815
12/14/2013  16:43:00       -7.320       95.967       -9.290       23.791       31.764       16.151      566.007     1008.939      260.870        0.559        0.092       96.246       11.971        0.015      333.875        3.476      873.829
12/14/2013  16:44:00      -15.795       86.396      -10.962       25.747       29.114       16.444      662.894      847.597      270.400        0.481        0.089       87.828       12.864        0.021      333.877        3.479      873.832
12/14/2013  16:45:00       -2.440       96.187      -10.905       15.126       18.927       10.765      228.806      358.244      115.884        0.504        0.035       96.218       10.232        0.011      333.889        3.499      873.837
12/14/2013  16:46:00       10.443       77.252       -9.785       13.354       17.928       13.482      178.321      321.400      181.761        0.343        0.034       77.955       11.971        0.024      333.809        3.367      873.838
12/14/2013  16:47:00       15.025       79.801      -11.237       14.266       14.112        7.909      203.508      199.144       62.551        0.359        0.023       81.203        8.034        0.010      333.777        3.315      873.857
12/14/2013  16:48:00       24.886       42.140       -1.063       18.364       31.235       16.891      337.226      975.612      285.298        0.200        0.080       48.940       18.020        0.136      333.639        3.085      873.868
12/14/2013  16:49:00       18.707       40.153       -2.381       24.737       25.774       19.179      611.910      664.307      367.848        0.181        0.082       44.297       12.319        0.077      333.584        2.993      873.868
12/14/2013  16:50:00       17.069       66.674       -8.200       22.889       26.539       17.194      523.891      704.309      295.636        0.316        0.076       68.824       15.660        0.052      333.621        3.056      873.869
12/14/2013  16:51:00       36.137       41.145       -1.293       23.247       21.058       20.212      540.403      443.447      408.545        0.220        0.070       54.762       12.045        0.048      333.598        3.017      873.862
12/14/2013  16:52:00       53.253       35.940        8.270       23.866       21.034       18.090      569.596      442.446      327.260        0.277        0.067       64.246       12.845        0.040      333.568        2.968      873.866
12/14/2013  16:53:00       35.812       38.227       -0.816       24.836       18.633       20.116      616.829      347.200      404.642        0.206        0.068       52.381       12.340        0.056      333.523        2.893      873.873
12/14/2013  16:54:00       52.777       39.718        0.977       29.985       18.234       16.819      899.089      332.462      282.866        0.294        0.076       66.052       11.196        0.029      333.516        2.882      873.871
12/14/2013  16:55:00       72.638       45.993        4.182       15.759       14.456       11.277      248.346      208.983      127.174        0.400        0.029       85.975        7.156        0.007      333.496        2.848      873.869
12/14/2013  16:56:00       60.276       43.225       10.018       29.488       19.500       18.372      869.520      380.244      337.537        0.359        0.079       74.173       13.133        0.031      333.435        2.748      873.879
12/14/2013  16:57:00       31.049       36.075       -1.726       21.208       24.058       16.705      449.790      578.791      279.059        0.179        0.065       47.597       15.218        0.102      333.435        2.748      873.885
12/14/2013  16:58:00       59.085       33.057        8.445       23.098       18.366       15.978      533.520      337.297      255.297        0.289        0.056       67.703       10.888        0.026      333.489        2.837      873.891
12/14/2013  16:59:00       68.901       40.250       12.824       23.447       12.882       14.739      549.776      165.941      217.233        0.373        0.047       79.796       12.585        0.025      333.455        2.780      873.898
12/14/2013  17:00:00       34.473       24.161        3.420       15.506       15.874       15.088      240.438      251.984      227.644        0.125        0.036       42.097       12.134        0.083      333.416        2.717      873.914
12/14/2013  17:01:00       30.586       41.243        2.087       21.563       22.113       13.822      464.952      488.966      191.058        0.189        0.057       51.346       12.330        0.058      333.431        2.740      873.939
12/14/2013  17:02:00       29.689       41.765       -6.932       14.521       26.851       13.159      210.851      720.995      173.158        0.189        0.055       51.242        9.107        0.032      333.445        2.763      873.962
12/14/2013  17:03:00        6.210       45.087       -4.173       15.213       27.050       10.959      231.432      731.707      120.098        0.159        0.054       45.513       14.737        0.105      333.401        2.691      873.973
12/14/2013  17:04:00       24.975       75.224      -10.825       12.236       17.672        7.864      149.711      312.295       61.841        0.346        0.026       79.262        4.578        0.003      333.411        2.708      873.981
12/14/2013  17:05:00        8.556       67.454      -11.227       22.001       23.990        9.898      484.035      575.531       97.968        0.295        0.058       67.995        7.827        0.013      333.375        2.648      873.984
12/14/2013  17:06:00       14.624       60.490       -4.705       25.522       37.079       18.306      651.384     1374.872      335.102        0.313        0.118       62.233       19.427        0.097      333.301        2.526      873.971
12/14/2013  17:07:00       17.648       74.554       -3.521       25.000       22.157       19.677      624.983      490.947      387.186        0.369        0.075       76.615       15.246        0.040      333.336        2.584      873.956
12/14/2013  17:08:00       18.433       75.684       -9.400       15.770       11.252       11.135      248.685      126.613      123.982        0.333        0.025       77.896        9.291        0.014      333.354        2.616      873.936
12/14/2013  17:09:00       23.892       46.129       -0.988       20.023       24.866       15.596      400.910      618.323      243.244        0.198        0.063       51.949       15.902        0.094      333.266        2.465      873.944
12/14/2013  17:10:00       26.507       59.615       -6.342       18.600       24.749       16.058      345.945      612.525      257.858        0.276        0.061       65.243       13.781        0.045      333.229        2.405      873.936
12/14/2013  17:11:00       14.443       51.064       -3.621       24.818       25.398       17.809      615.953      645.050      317.166        0.220        0.079       53.067       18.493        0.121      333.168        2.305      873.946
12/14/2013  17:12:00       23.833       57.902       -4.660       14.611       22.268       15.617      213.485      495.852      243.890        0.245        0.048       62.615       12.686        0.041      333.168        2.305      873.953
12/14/2013  17:13:00        9.918       66.377       -8.025       13.719       14.613        9.359      188.217      213.535       87.587        0.253        0.024       67.114        6.167        0.008      333.221        2.392      873.958
12/14/2013  17:14:00       19.589       93.499      -11.672       18.059       20.759       11.891      326.111      430.937      141.387        0.508        0.045       95.529       10.534        0.012      333.246        2.436      873.966
12/14/2013  17:15:00       16.573       82.977       -7.654       17.456       25.114       15.916      304.714      630.723      253.318        0.420        0.059       84.616       10.472        0.015      333.141        2.259      873.970
12/14/2013  17:16:00       20.855       86.873       -7.722       16.560       29.563       15.768      274.228      873.986      248.633        0.472        0.070       89.342       13.139        0.022      333.100        2.194      873.980
12/14/2013  17:17:00       17.372      118.235      -12.931       25.176       20.045       19.004      633.847      401.788      361.168        0.792        0.070      119.504       11.785        0.010      333.158        2.289      873.988
12/14/2013  17:18:00       23.796       79.854       -6.164       22.159       31.023       21.062      490.999      962.456      443.610        0.444        0.095       83.324       17.470        0.044      333.104        2.201      873.996
12/14/2013  17:19:00       18.574      106.933       -8.964       29.607       33.902       17.023      876.574     1149.361      289.776        0.709        0.116      108.534       17.892        0.027      333.112        2.213      874.009
12/14/2013  17:20:00       18.988      106.778      -12.977       24.727       24.559       17.465      611.404      603.125      305.038        0.672        0.076      108.453       11.698        0.012      333.085        2.170      874.027
12/14/2013  17:21:00       -0.777      116.128      -15.977       15.262       14.382        9.096      232.926      206.845       82.745        0.713        0.026      116.131        5.481        0.002      333.052        2.115      874.033
12/14/2013  17:22:00       15.857      124.643      -17.065       19.064       20.084       11.438      363.422      403.368      130.835        0.849        0.045      125.648        9.096        0.005      333.004        2.035      874.038
12/14/2013  17:23:00       -8.795      135.430      -20.071       15.733       18.672       10.951      247.537      348.639      119.935        0.977        0.036      135.715        8.507        0.004      333.003        2.034      874.035
12/14/2013  17:24:00       -3.728      130.591      -20.026       23.900       21.043       12.752      571.187      442.823      162.612        0.932        0.059      130.644        9.072        0.005      333.012        2.050      874.036
12/14/2013  17:25:00       -6.364      109.737      -15.376       22.766       25.959       12.888      518.299      673.875      166.105        0.684        0.068      109.922       10.587        0.009      333.014        2.052      874.033
12/14/2013  17:26:00      -15.415      117.322      -15.697       19.668       19.360       14.239      386.822      374.803      202.752        0.761        0.048      118.331       10.906        0.008      332.953        1.951      874.027
12/14/2013  17:27:00       -0.622      130.294      -16.275       28.374       23.426       17.217      805.064      548.796      296.425        0.945        0.083      130.295       11.737        0.008      332.922        1.902      874.038
12/14/2013  17:28:00       -0.973      134.120      -16.926       21.669       18.513       14.131      469.549      342.715      199.675        0.964        0.051      134.123        9.797        0.005      332.914        1.888      874.038
12/14/2013  17:29:00       14.434      123.502      -14.304       25.962       20.387       13.634      674.006      415.635      185.896        0.847        0.064      124.342       11.970        0.009      332.924        1.903      874.043
12/14/2013  17:30:00        8.889      125.737      -17.209       22.173       23.257       12.194      491.655      540.879      148.705        0.868        0.059      126.051        8.880        0.005      332.930        1.913      874.046
12/14/2013  17:31:00       21.889      107.030      -15.517       23.255       46.307       20.130      540.781     2144.304      405.232        0.763        0.155      109.245       23.073        0.045      332.886        1.841      874.046
12/14/2013  17:32:00       23.994       69.261       -1.215       26.273       33.587       21.120      690.279     1128.070      446.040        0.382        0.113       73.300       19.730        0.072      332.900        1.864      874.041
12/14/2013  17:33:00       30.500       48.554        7.337       31.064       38.889       27.629      964.949     1512.344      763.383        0.329        0.162       57.339       25.909        0.204      332.931        1.914      874.028
12/14/2013  17:34:00       13.427       60.084       -6.524       16.342       19.807       13.537      267.056      392.334      183.261        0.234        0.042       61.566        6.069        0.010      332.913        1.886      874.042
12/14/2013  17:35:00       16.149       38.387       -3.835       15.613       18.262        9.034      243.779      333.487       81.621        0.120        0.033       41.646        7.247        0.030      332.955        1.955      874.039
12/14/2013  17:36:00       -7.056       43.783       -8.940       16.089       18.203        7.919      258.844      331.332       62.712        0.135        0.033       44.348        8.052        0.033      332.948        1.943      874.037
12/14/2013  17:37:00        0.257        6.911        5.934       18.613       16.280        7.280      346.426      265.025       53.004        0.037        0.033        6.915        7.145        1.068      332.785        1.674      874.025
12/14/2013  17:38:00        9.374        3.227       -0.128        7.963        6.159        4.413       63.409       37.936       19.473        0.011        0.006        9.914        2.969        0.090      332.933        1.916      874.004
12/14/2013  17:39:00       16.922        6.611        0.193       12.217       10.718        7.534      149.253      114.882       56.755        0.033        0.016       18.168        6.584        0.131      332.934        1.921      873.991
12/14/2013  17:40:00       15.019       12.363       11.812       16.287       15.428       10.913      265.265      238.010      119.100        0.057        0.031       19.453        7.230        0.138      332.976        1.988      873.980
12/14/2013  17:41:00       -8.849        3.835       13.598       16.979       13.242        5.780      288.280      175.350       33.404        0.039        0.025        9.644        6.965        0.522      332.832        1.753      873.990
12/14/2013  17:42:00      -33.071       -3.115        7.917        8.098       12.034       11.175       65.583      144.815      124.877        0.075        0.017       33.217        9.111        0.075      332.603        1.373      874.003
12/14/2013  17:43:00      -30.104       -1.425       -0.186       10.672        7.644       10.890      113.896       58.437      118.590        0.060        0.015       30.138        6.474        0.046      332.644        1.442      874.027
12/14/2013  17:44:00      -49.389      -15.692       -9.642       11.718        8.858        7.235      137.318       78.457       52.349        0.152        0.013       51.822        5.895        0.013      332.504        1.210      874.033
12/14/2013  17:45:00      -61.424      -17.982       -0.795       10.753       11.876        9.260      115.630      141.050       85.755        0.222        0.017       64.002        5.541        0.007      332.410        1.053      874.036
12/14/2013  17:46:00      -62.430      -17.911      -11.451       13.746       15.131        7.656      188.955      228.959       58.619        0.241        0.024       64.949        8.091        0.016      332.151        0.628      874.031
12/14/2013  17:47:00      -64.184        9.183      -15.685       18.567       15.055       13.203      344.738      226.658      174.307        0.260        0.037       64.838        6.327        0.010      332.116        0.570      874.027
12/14/2013  17:48:00      -45.976       -1.940       -7.618       14.861       19.123       14.706      220.852      365.700      216.267        0.149        0.040       46.017        8.904        0.037      332.078        0.507      874.013
12/14/2013  17:49:00      -60.911      -18.090      -14.840       13.305        8.871       10.209      177.028       78.693      104.233        0.231        0.018       63.540        8.386        0.017      331.853        0.136      874.018
12/14/2013  17:50:00      -64.970      -20.211      -14.110       11.396        7.959        5.699      129.869       63.353       32.483        0.253        0.011       68.042        2.054        0.001      331.838        0.113      874.006
12/14/2013  17:51:00      -84.782       -0.197      -12.497       22.280       21.507       19.393      496.386      462.553      376.080        0.434        0.067       84.782       14.317        0.029      331.748       -0.036      874.019
12/14/2013  17:52:00      -94.044       -3.147      -16.723       15.835       15.037       11.960      250.762      226.100      143.047        0.488        0.031       94.097        2.542        0.001      331.746       -0.040      874.023
12/14/2013  17:53:00      -98.744       -3.016      -12.136       19.807       17.628       13.733      392.308      310.748      188.591        0.540        0.045       98.790       10.455        0.011      331.751       -0.032      874.036
12/14/2013  17:54:00      -89.128      -10.893      -16.280       23.067       15.109       11.844      532.107      228.294      140.284        0.461        0.045       89.792        8.212        0.008      331.729       -0.067      874.031
12/14/2013  17:55:00      -92.250       -9.247      -12.587       13.649       11.807       11.068      186.294      139.413      122.503        0.460        0.022       92.713        7.788        0.007      331.778        0.013      874.040
12/14/2013  17:56:00      -73.879       -6.784      -16.782       12.128       10.426        8.316      147.096      108.710       69.151        0.306        0.016       74.190        4.086        0.003      331.781        0.019      874.043
12/14/2013  17:57:00      -62.023      -17.257      -10.694       13.476       16.239       10.354      181.596      263.704      107.205        0.241        0.028       64.379        7.262        0.013      331.789        0.029      874.039
12/14/2013  17:58:00      -62.761      -11.057      -12.726       10.532       10.909        7.658      110.917      118.998       58.649        0.226        0.014       63.728        4.813        0.006      331.751       -0.031      874.040
12/14/2013  17:59:00      -52.824      -14.211      -11.169       15.782       14.438        9.290      249.073      208.451       86.313        0.183        0.027       54.702        6.259        0.013      331.763       -0.012      874.038
12/14/2013  18:00:00      -38.337      -28.771       -5.075       12.875       10.868       10.320      165.772      118.111      106.496        0.136        0.020       47.932        5.002        0.011      331.832        0.103      874.044
12/14/2013  18:01:00      -33.606      -15.591       -6.082       20.628       12.222        8.362      425.530      149.387       69.925        0.103        0.032       37.047        8.339        0.051      331.794        0.039      874.042
12/14/2013  18:02:00      -28.331      -12.509       -3.875       15.567       13.357        6.387      242.337      178.414       40.796        0.072        0.023       30.969        3.921        0.016      331.880        0.179      874.045
12/14/2013  18:03:00      -47.815      -21.628      -10.469       16.337       11.158        7.442      266.895      124.507       55.377        0.166        0.022       52.479        5.128        0.010      331.749       -0.034      874.047
12/14/2013  18:04:00      -66.507      -26.044      -13.785       16.592       10.886        8.816      275.298      118.496       77.717        0.288        0.024       71.425        1.314        0.000      331.741       -0.048      874.038
12/14/2013  18:05:00     -102.118       -6.744      -15.129       15.970       11.114       11.908      255.031      123.511      141.789        0.561        0.026      102.340        7.272        0.005      331.644       -0.208      874.033
12/14/2013  18:06:00      -88.234        3.107      -19.104       11.187       11.386        6.961      125.146      129.639       48.449        0.423        0.015       88.289        5.297        0.004      331.656       -0.187      874.028
12/14/2013  18:07:00      -83.337      -13.387      -19.134       12.374        9.502        8.445      153.123       90.287       71.321        0.390        0.016       84.405        4.350        0.003      331.743       -0.044      874.024
12/14/2013  18:08:00      -85.271      -17.337      -12.806       11.135       11.703        9.103      123.997      136.955       82.868        0.404        0.017       87.016        5.995        0.005      331.650       -0.198      874.028
12/14/2013  18:09:00      -82.750      -12.928      -12.504       10.970       17.073        9.841      120.350      291.475       96.843        0.384        0.025       83.754        5.919        0.005      331.597       -0.286      874.027
12/14/2013  18:10:00      -74.375      -10.545      -12.785       17.598       18.013       10.695      309.681      324.476      114.386        0.328        0.037       75.119        8.792        0.014      331.631       -0.230      874.037
12/14/2013  18:11:00      -85.997       -5.438      -12.587       12.114        9.613       10.810      146.752       92.404      116.851        0.397        0.018       86.169        7.079        0.007      331.629       -0.232      874.045
12/14/2013  18:12:00      -92.405      -12.977      -11.586       16.124       14.191       12.002      259.974      201.394      144.046        0.472        0.030       93.311        7.305        0.006      331.596       -0.286      874.061
12/14/2013  18:13:00      -67.138      -15.705      -14.870        7.864       10.939        8.497       61.850      119.667       72.199        0.261        0.013       68.951        4.001        0.003      331.580       -0.314      874.067
12/14/2013  18:14:00      -94.230       -5.963      -15.893       17.129       13.510       10.354      293.395      182.529      107.203        0.488        0.029       94.418        6.863        0.005      331.565       -0.338      874.085
12/14/2013  18:15:00      -90.698       -6.156      -17.814       10.472       11.088        9.163      109.662      122.948       83.964        0.445        0.016       90.907        5.177        0.003      331.661       -0.180      874.084
12/14/2013  18:16:00      -70.004      -12.042      -14.670       17.833       13.834        9.562      318.016      191.374       91.434        0.293        0.030       71.032        4.742        0.004      331.674       -0.160      874.101
12/14/2013  18:17:00      -56.239      -17.136       -6.277       12.999       12.876        9.701      168.962      165.797       94.108        0.196        0.021       58.792        8.042        0.019      331.765       -0.009      874.102
12/14/2013  18:18:00      -44.541      -11.693      -11.790        7.534        8.210        9.178       56.766       67.404       84.231        0.123        0.010       46.050        3.698        0.006      331.771       -0.001      874.114
12/14/2013  18:19:00      -46.173       -6.120      -11.662       10.397        9.378       10.852      108.096       87.956      117.760        0.131        0.016       46.577        5.663        0.015      331.860        0.148      874.107
12/14/2013  18:20:00      -16.367      -29.264       -7.270       16.107       14.230        8.467      259.434      202.479       71.686        0.086        0.027       33.530        5.633        0.028      332.019        0.410      874.100
12/14/2013  18:21:00      -28.615      -20.458       -4.042       17.707       12.861       12.690      313.547      165.410      161.030        0.095        0.032       35.176        9.768        0.077      331.803        0.054      874.092
12/14/2013  18:22:00      -44.267      -16.504       -8.754       10.890       10.848        8.502      118.594      117.682       72.280        0.131        0.015       47.244        3.522        0.006      331.696       -0.121      874.075
12/14/2013  18:23:00      -58.875      -10.779      -11.694        9.106        9.820        6.519       82.917       96.435       42.491        0.197        0.011       59.854        3.626        0.004      331.591       -0.294      874.074
12/14/2013  18:24:00      -71.706      -14.481      -16.988       10.010        9.128        7.406      100.201       83.312       54.854        0.294        0.012       73.154        2.746        0.001      331.484       -0.472      874.073
12/14/2013  18:25:00      -71.452       -7.186      -15.048        9.156       12.071        7.946       83.838      145.703       63.146        0.284        0.015       71.812        4.371        0.004      331.387       -0.632      874.086
12/14/2013  18:26:00      -79.484       -2.679      -11.391       10.237       12.579       10.371      104.803      158.243      107.562        0.341        0.019       79.530        4.601        0.003      331.321       -0.738      874.090
12/14/2013  18:27:00      -79.390       -3.281      -17.042       15.806        8.996       11.102      249.820       80.925      123.262        0.353        0.023       79.458        8.072        0.010      331.346       -0.698      874.109
12/14/2013  18:28:00      -80.920        4.696      -13.794       21.103       13.778       10.946      445.358      189.840      119.815        0.376        0.038       81.056        8.885        0.012      331.417       -0.583      874.120
12/14/2013  18:29:00      -89.587        5.358      -13.516       14.566       11.850       10.491      212.174      140.424      110.058        0.435        0.023       89.748        6.816        0.006      331.393       -0.620      874.117
12/14/2013  18:30:00     -103.371        0.790      -16.103       14.971       11.890       10.498      224.138      141.368      110.207        0.571        0.024      103.374        7.171        0.005      331.278       -0.809      874.140
12/14/2013  18:31:00      -91.528       -4.197      -19.608       12.646       14.413        9.958      159.922      207.748       99.160        0.462        0.023       91.625        8.601        0.009      331.300       -0.773      874.141
12/14/2013  18:32:00      -91.313       -2.734      -19.593       13.629       15.617       11.276      185.751      243.876      127.147        0.464        0.028       91.354        8.882        0.009      331.378       -0.646      874.139
12/14/2013  18:33:00      -97.332       -8.434      -18.209       10.419       11.153       11.274      108.551      124.394      127.103        0.512        0.018       97.697        5.252        0.003      331.202       -0.933      874.152
12/14/2013  18:34:00      -95.828       -3.769      -20.077       11.971       13.747       11.832      143.311      188.971      139.999        0.504        0.024       95.903        4.605        0.002      331.212       -0.919      874.155
12/14/2013  18:35:00      -96.332       -9.667      -12.218       20.033       14.855       16.944      401.324      220.674      287.088        0.522        0.045       96.816       12.569        0.017      331.240       -0.872      874.151
12/14/2013  18:36:00      -97.909       -5.797      -13.066       16.061       12.615       10.872      257.953      159.129      118.208        0.516        0.027       98.080        8.341        0.007      331.172       -0.984      874.151
12/14/2013  18:37:00      -71.072      -12.648      -13.143       18.461       13.400       10.534      340.821      179.550      110.974        0.301        0.032       72.188        6.411        0.008      331.192       -0.951      874.134
12/14/2013  18:38:00      -80.405      -13.884      -11.536       11.637       11.448        9.636      135.416      131.052       92.850        0.358        0.018       81.595        4.497        0.003      331.262       -0.835      874.125
12/14/2013  18:39:00      -88.545      -22.234      -14.989       20.318       14.067       12.162      412.813      197.883      147.922        0.466        0.038       91.294        9.923        0.012      331.303       -0.768      874.122
12/14/2013  18:40:00      -72.957      -12.960      -14.941       11.824       10.933       10.674      139.807      119.539      113.938        0.304        0.019       74.099        6.618        0.008      331.290       -0.790      874.133
12/14/2013  18:41:00      -55.506      -12.240      -12.204       13.914       12.247        8.904      193.587      149.997       79.287        0.190        0.021       56.839        5.606        0.010      331.345       -0.699      874.147
12/14/2013  18:42:00      -64.816      -12.913       -7.898       15.735       15.328       13.008      247.594      234.954      169.218        0.254        0.033       66.089        8.537        0.017      331.527       -0.400      874.162
12/14/2013  18:43:00      -63.912      -13.312       -9.238       11.515        8.831        7.575      132.589       77.980       57.384        0.231        0.013       65.284        5.372        0.007      331.455       -0.519      874.183
12/14/2013  18:44:00      -48.532      -30.943       -9.553       15.749       12.357       10.181      248.034      152.686      103.652        0.195        0.025       57.557        8.238        0.020      331.539       -0.381      874.188
12/14/2013  18:45:00      -42.816      -21.659       -9.727       11.193       11.665       11.887      125.291      136.075      141.312        0.140        0.020       47.982        4.511        0.009      331.480       -0.478      874.187
12/14/2013  18:46:00       21.095       50.283       -6.070       46.052       46.644       22.972     2120.805     2175.678      527.714        0.392        0.241       54.529       26.612        0.238      331.913        0.236      874.191
12/14/2013  18:47:00       33.406       15.284        2.696       18.962       22.345       10.948      359.573      499.307      119.863        0.117        0.049       36.736        7.784        0.045      332.054        0.467      874.180
12/14/2013  18:48:00       31.065       26.206        1.300       20.715       19.405       23.537      429.121      376.558      554.013        0.151        0.068       40.642       15.929        0.154      332.014        0.400      874.191
12/14/2013  18:49:00       41.486       33.272        8.660       35.473       25.285       23.508     1258.322      639.319      552.618        0.268        0.123       53.181       16.481        0.096      332.162        0.646      874.191
12/14/2013  18:50:00        1.565       37.028        2.192       29.903       14.912       15.421      894.173      222.376      237.796        0.137        0.068       37.061       17.918        0.234      332.159        0.640      874.203
12/14/2013  18:51:00        5.019        4.925        9.878       28.343       20.917        9.934      803.324      437.519       98.688        0.074        0.067        7.032       10.755        2.339      331.896        0.207      874.229
12/14/2013  18:52:00      -72.056      -24.635       -6.073       20.683       16.079       15.025      427.774      258.542      225.762        0.337        0.046       76.151       13.350        0.031      331.403       -0.604      874.233
12/14/2013  18:53:00      -73.871      -13.281      -12.907       13.287       11.969       10.902      176.550      143.249      118.851        0.312        0.022       75.055        8.986        0.014      331.257       -0.844      874.237
12/14/2013  18:54:00      -72.373      -13.114       -2.382       19.115       12.864       10.577      365.365      165.470      111.872        0.303        0.032       73.552        8.033        0.012      331.302       -0.770      874.238
12/14/2013  18:55:00      -69.330       -5.268       -5.540       15.324        9.895       12.313      234.817       97.915      151.614        0.267        0.024       69.530        6.421        0.009      331.325       -0.731      874.234
12/14/2013  18:56:00      -61.583       -8.039       -8.172       10.215        8.201        7.440      104.352       67.258       55.348        0.208        0.011       62.105        1.922        0.001      331.288       -0.793      874.233
12/14/2013  18:57:00      -46.128      -15.582       -8.836        9.920        8.089        8.797       98.404       65.433       77.380        0.134        0.012       48.688        4.766        0.010      331.322       -0.738      874.236
12/14/2013  18:58:00      -48.357      -21.284      -12.029        8.764       10.324        7.327       76.810      106.587       53.682        0.159        0.012       52.834        1.669        0.001      331.402       -0.607      874.245
12/14/2013  18:59:00      -51.571      -22.629      -12.338        8.400        9.975        7.554       70.566       99.505       57.066        0.178        0.011       56.317        5.355        0.009      331.364       -0.667      874.248
12/14/2013  19:00:00      -58.587      -15.868      -11.794        8.308        9.918        7.652       69.015       98.376       58.549        0.202        0.011       60.697        4.832        0.006      331.328       -0.727      874.244
12/14/2013  19:01:00      -49.432      -18.795      -14.627       10.804       13.124        7.828      116.725      172.234       61.276        0.168        0.018       52.884        3.692        0.005      331.420       -0.577      874.243
12/14/2013  19:02:00      -53.873      -21.908      -19.738       10.629       11.665        5.895      112.975      136.081       34.756        0.203        0.014       58.158        4.373        0.006      331.416       -0.583      874.238
12/14/2013  19:03:00      -60.205      -30.359       -9.000       14.650       14.980        7.885      214.613      224.391       62.174        0.256        0.025       67.426        5.192        0.006      331.250       -0.855      874.232
12/14/2013  19:04:00      -52.835      -22.026       -7.149       12.327       12.525        7.836      151.950      156.883       61.404        0.185        0.019       57.242        3.930        0.005      331.140       -1.037      874.223
12/14/2013  19:05:00      -65.511      -27.638      -10.446       13.536        9.579        8.912      183.210       91.754       79.418        0.276        0.018       71.103        5.517        0.006      331.167       -0.992      874.223
12/14/2013  19:06:00      -72.323      -17.725      -11.025        9.891       11.652        8.125       97.835      135.775       66.018        0.298        0.015       74.464        2.114        0.001      331.108       -1.088      874.225
12/14/2013  19:07:00      -79.887      -11.225      -14.733        7.319        8.313        6.268       53.563       69.107       39.288        0.344        0.008       80.672        3.220        0.002      331.082       -1.131      874.226
12/14/2013  19:08:00      -81.691       -7.810      -16.960        8.919       11.690        8.310       79.552      136.666       69.057        0.365        0.014       82.063        3.209        0.002      330.992       -1.278      874.233
12/14/2013  19:09:00      -83.688       -8.108      -13.163       12.325       11.848        9.093      151.908      140.385       82.689        0.381        0.019       84.080        4.346        0.003      330.948       -1.351      874.254
12/14/2013  19:10:00      -75.453        1.434      -14.315       12.844       16.785       10.576      164.967      281.723      111.854        0.323        0.028       75.467        7.747        0.011      331.221       -0.903      874.262
12/14/2013  19:11:00      -71.163       -4.257      -12.280        7.981        8.551        8.716       63.694       73.128       75.971        0.272        0.011       71.290        4.857        0.005      330.910       -1.415      874.265
12/14/2013  19:12:00      -54.889      -14.277      -13.064       10.463        9.663        8.758      109.467       93.375       76.697        0.183        0.014       56.715        6.210        0.012      331.042       -1.199      874.278
12/14/2013  19:13:00      -53.812      -17.771       -5.800        9.920       11.611        7.304       98.402      134.820       53.349        0.177        0.014       56.671        3.594        0.004      331.101       -1.101      874.292
12/14/2013  19:14:00      -51.970       -6.838       -8.003       10.051        9.863        7.882      101.025       97.275       62.130        0.154        0.013       52.418        3.438        0.004      331.022       -1.231      874.302
12/14/2013  19:15:00      -44.553      -12.544       -4.587        8.874        8.637        7.483       78.743       74.594       55.991        0.119        0.010       46.286        5.035        0.012      331.150       -1.022      874.305
12/14/2013  19:16:00      -31.573      -16.463       -7.160       11.239       13.817        9.329      126.322      190.903       87.031        0.086        0.020       35.608        9.214        0.067      331.178       -0.975      874.303
12/14/2013  19:17:00        0.239       28.823       -4.468       16.744       24.563       14.775      280.371      603.343      218.304        0.098        0.055       28.824       12.705        0.194      331.836        0.109      874.287
12/14/2013  19:18:00       -9.029       17.359       -4.947       25.941       17.849       11.643      672.945      318.573      135.550        0.077        0.056       19.567        5.685        0.084      331.534       -0.388      874.277
12/14/2013  19:19:00       20.609       50.037       -8.289       18.512       16.526        9.232      342.702      273.097       85.235        0.185        0.035       54.115        8.715        0.026      331.961        0.316      874.274
12/14/2013  19:20:00       -0.869       52.606       -5.591       16.099       17.899       11.076      259.178      320.377      122.678        0.175        0.035       52.614        3.729        0.005      331.956        0.305      874.289
12/14/2013  19:21:00      -35.066       -4.271       -0.595       15.218       12.239       10.930      231.598      149.782      119.471        0.087        0.025       35.325        5.638        0.025      331.371       -0.657      874.289
12/14/2013  19:22:00      -35.985      -25.167      -13.969       18.451       10.958       10.096      340.447      120.087      101.934        0.134        0.028       43.912        6.097        0.019      331.153       -1.015      874.286
12/14/2013  19:23:00      -56.879      -28.556      -12.828       17.889       10.768        7.074      320.024      115.956       50.042        0.235        0.024       63.645        5.568        0.008      331.080       -1.135      874.294
12/14/2013  19:24:00      -69.822      -12.157      -12.389       23.144       12.606       16.763      535.644      158.909      280.986        0.308        0.049       70.873        9.416        0.018      331.294       -0.783      874.297
12/14/2013  19:25:00      -66.920       -9.466      -10.736       20.704       10.847       10.147      428.651      117.654      102.954        0.267        0.032       67.586        5.195        0.006      331.130       -1.055      874.297
12/14/2013  19:26:00      -83.393      -11.725      -12.241        7.360       10.246        6.863       54.170      104.990       47.106        0.372        0.010       84.213        3.264        0.002      330.955       -1.341      874.309
12/14/2013  19:27:00      -87.289      -18.163      -12.823       14.120       12.339       10.009      199.379      152.250      100.180        0.428        0.023       89.159        6.291        0.005      330.943       -1.359      874.328
12/14/2013  19:28:00     -103.504       -6.491      -18.218       19.514       16.515       11.311      380.787      272.747      127.948        0.593        0.039      103.707       10.469        0.010      330.820       -1.563      874.339
12/14/2013  19:29:00     -107.920       -2.397      -16.785       21.553       15.161       14.399      464.530      229.842      207.338        0.642        0.045      107.947        9.775        0.008      330.823       -1.558      874.349
12/14/2013  19:30:00     -131.994       -4.745      -17.823       25.857       19.755       18.636      668.588      390.249      347.302        0.958        0.070      132.079        9.153        0.005      330.791       -1.610      874.363
12/14/2013  19:31:00     -107.072       -7.876      -14.307       28.880       27.540       19.604      834.026      758.440      384.300        0.685        0.099      107.361       13.559        0.016      330.771       -1.644      874.380
12/14/2013  19:32:00      -65.095       -4.563       -6.664       43.587       27.128       21.429     1899.862      735.940      459.193        0.370        0.155       65.255       19.488        0.089      330.735       -1.702      874.395
12/14/2013  19:33:00     -124.096      -21.899       -2.025       39.785       32.308       22.015     1582.874     1043.785      484.650        0.950        0.156      126.013       21.179        0.028      330.683       -1.788      874.382
12/14/2013  19:34:00     -103.264      -35.831       -3.813       26.743       38.076       22.617      715.197     1449.776      511.538        0.732        0.134      109.304       13.213        0.015      330.690       -1.775      874.361
12/14/2013  19:35:00      -84.190      -10.227       -2.646       50.570       37.919       30.095     2557.325     1437.871      905.717        0.605        0.245       84.808       28.057        0.109      330.649       -1.843      874.359
12/14/2013  19:36:00     -129.451      -42.629       -8.929       36.338       35.603       24.618     1320.416     1267.591      606.021        1.092        0.160      136.290       18.074        0.018      330.639       -1.860      874.343
12/14/2013  19:37:00     -139.107      -17.746      -11.610       34.398       28.502       21.472     1183.244      812.378      461.060        1.113        0.123      140.234       15.569        0.012      330.636       -1.864      874.338
12/14/2013  19:38:00      -82.505      -30.540      -17.617       39.974       26.704       24.041     1597.909      713.123      577.955        0.547        0.144       87.976       15.240        0.030      330.707       -1.749      874.346
12/14/2013  19:39:00      -74.866       -0.802      -15.355       25.169       27.890       15.733      633.473      777.863      247.514        0.375        0.083       74.870        8.081        0.012      330.716       -1.732      874.357
12/14/2013  19:40:00     -101.644       -5.423      -16.731       34.646       19.573       13.675     1200.339      383.090      187.007        0.621        0.089      101.789        7.387        0.005      330.691       -1.774      874.374
12/14/2013  19:41:00     -104.958       -9.990      -17.373       15.101       22.657       10.672      228.055      513.326      113.883        0.614        0.043      105.433        7.322        0.005      330.709       -1.744      874.383
12/14/2013  19:42:00      -67.938      -19.230       -8.821       13.300       17.777       17.997      176.877      316.030      323.885        0.294        0.041       70.607        9.523        0.018      330.805       -1.589      874.394
12/14/2013  19:43:00      -63.373       -6.436      -11.415       13.670       16.712       13.298      186.856      279.292      176.824        0.242        0.032       63.699        9.953        0.024      330.866       -1.485      874.382
12/14/2013  19:44:00      -78.842        2.559       -7.923       11.153       11.144       10.762      124.387      124.178      115.817        0.332        0.018       78.883        2.838        0.001      330.865       -1.489      874.376
12/14/2013  19:45:00      -84.890      -10.670       -9.859       18.047       19.470       12.243      325.679      379.065      149.895        0.414        0.043       85.558        7.075        0.007      330.958       -1.335      874.377
12/14/2013  19:46:00      -68.750      -21.466       -9.882       15.152       11.892       13.712      229.574      141.408      188.027        0.292        0.028       72.024        1.691        0.001      330.931       -1.381      874.376
12/14/2013  19:47:00      -71.645      -13.730       -8.953       17.819       10.792       11.020      317.528      116.463      121.431        0.298        0.028       72.948        5.762        0.006      330.863       -1.492      874.384
12/14/2013  19:48:00      -90.898      -28.720      -17.032       18.015       12.265       12.342      324.537      150.430      152.327        0.500        0.031       95.327       10.811        0.013      330.914       -1.408      874.399
12/14/2013  19:49:00     -105.122      -24.010      -14.950       12.728       11.481       12.960      162.002      131.811      167.955        0.616        0.023      107.830        2.990        0.001      330.904       -1.424      874.403
12/14/2013  19:50:00      -91.299       -6.167      -12.020       14.533       11.406       10.409      211.221      130.107      108.346        0.448        0.022       91.507        3.786        0.002      330.877       -1.469      874.404
12/14/2013  19:51:00      -85.693      -14.980       -5.565       16.908       21.077       16.113      285.895      444.228      259.620        0.429        0.049       86.993       10.552        0.015      330.817       -1.567      874.405
12/14/2013  19:52:00      -84.197      -12.868       -5.795       16.759       16.402       12.115      280.863      269.036      146.779        0.399        0.035       85.175        5.186        0.004      330.843       -1.526      874.397
12/14/2013  19:53:00     -107.383        5.503      -10.038       21.620       18.001       13.058      467.423      324.024      170.519        0.631        0.048      107.524        8.800        0.007      330.794       -1.607      874.385
12/14/2013  19:54:00     -117.139      -14.908      -13.135       17.486       16.999       13.204      305.765      288.960      174.347        0.744        0.038      118.084        8.402        0.005      330.790       -1.613      874.381
12/14/2013  19:55:00      -96.745      -17.350       -9.195       22.758       20.507       12.941      517.935      420.548      167.463        0.543        0.055       98.288        9.223        0.009      330.843       -1.525      874.384
12/14/2013  19:56:00     -114.919        1.961       -9.180       23.078       14.471       16.961      532.614      209.408      287.670        0.716        0.051      114.936       14.976        0.017      330.787       -1.616      874.379
12/14/2013  19:57:00     -106.360      -10.658      -16.479       15.980       18.505       14.176      255.353      342.451      200.946        0.625        0.040      106.893        6.822        0.004      330.838       -1.533      874.374
12/14/2013  19:58:00      -95.946      -15.482      -10.609       34.690       23.019       15.861     1203.409      529.859      251.555        0.577        0.099       97.187       15.019        0.024      330.833       -1.539      874.380
12/14/2013  19:59:00     -115.849       -1.027       -6.751       18.380       16.921       13.749      337.824      286.317      189.040        0.714        0.041      115.854        9.249        0.006      330.783       -1.623      874.398
12/14/2013  20:00:00      -84.519       -8.096       -9.974       13.588       13.204       10.627      184.632      174.345      112.930        0.389        0.024       84.906        4.229        0.002      330.797       -1.602      874.416
12/14/2013  20:01:00      -84.126       -1.633      -17.184       15.333       12.987        9.654      235.106      168.664       93.198        0.394        0.025       84.142        3.788        0.002      330.783       -1.624      874.434
12/14/2013  20:02:00     -110.107      -14.243      -16.615       12.521       14.600       11.897      156.778      213.162      141.527        0.656        0.026      111.024        4.857        0.002      330.763       -1.655      874.464
12/14/2013  20:03:00     -119.044      -19.368       -9.499       20.605       19.865       15.561      424.551      394.616      242.157        0.785        0.053      120.609        9.023        0.006      330.744       -1.686      874.487
12/14/2013  20:04:00      -91.099      -17.337      -10.098       18.492       19.622       15.515      341.970      385.032      240.703        0.483        0.048       92.734        9.419        0.010      330.719       -1.729      874.507
12/14/2013  20:05:00     -111.520        6.889      -12.208       17.783       16.352       13.884      316.244      267.404      192.753        0.670        0.039      111.732        5.786        0.003      330.657       -1.830      874.522
12/14/2013  20:06:00     -112.473       -6.002      -17.344       13.837       14.841        9.579      191.449      220.268       91.764        0.675        0.025      112.633        3.843        0.001      330.704       -1.752      874.542
12/14/2013  20:07:00      -87.503      -27.985      -11.275       15.249       18.451       11.314      232.526      340.434      127.999        0.463        0.035       91.869        5.446        0.004      330.712       -1.740      874.568
12/14/2013  20:08:00      -84.564      -28.535      -17.436       10.784       12.227        9.756      116.286      149.488       95.174        0.432        0.018       89.249        4.491        0.003      330.768       -1.647      874.586
12/14/2013  20:09:00      -85.793      -15.810      -16.069       13.106       23.111       12.457      171.768      534.104      155.181        0.436        0.043       87.238        9.821        0.013      330.776       -1.635      874.590
12/14/2013  20:10:00      -78.042      -18.445      -21.387       15.166       16.654        9.742      230.009      277.361       94.906        0.375        0.030       80.192        2.337        0.001      330.741       -1.692      874.598
12/14/2013  20:11:00      -96.067      -23.417      -12.412       16.170       11.855       13.476      261.461      140.544      181.608        0.526        0.029       98.880        5.113        0.003      330.766       -1.654      874.607
12/14/2013  20:12:00      -76.080      -30.500      -10.228       13.700       11.106        9.934      187.700      123.341       98.692        0.362        0.020       81.966        3.279        0.002      330.835       -1.538      874.620
12/14/2013  20:13:00      -92.881      -26.599      -13.843       20.710       20.077       17.054      428.901      403.082      290.845        0.532        0.056       96.615       12.632        0.017      330.801       -1.595      874.618
12/14/2013  20:14:00      -85.036      -16.232      -15.321       13.507       17.840       10.840      182.441      318.282      117.504        0.417        0.031       86.571        6.710        0.006      330.774       -1.640      874.620
12/14/2013  20:15:00     -118.297        0.497      -13.847       12.025       13.441        9.757      144.595      180.672       95.200        0.730        0.021      118.298        6.173        0.003      330.764       -1.657      874.618
12/14/2013  20:16:00     -106.425       -9.343      -13.692       17.681       11.567       12.209      312.634      133.791      149.052        0.610        0.030      106.834        7.106        0.004      330.711       -1.741      874.624
12/14/2013  20:17:00      -70.784      -19.198       -6.915       16.589       20.352       14.356      275.179      414.213      206.107        0.316        0.045       73.342        9.585        0.017      330.730       -1.710      874.629
12/14/2013  20:18:00      -69.605      -16.304      -12.249       11.198       14.179       10.769      125.385      201.051      115.969        0.285        0.022       71.489        4.263        0.004      330.751       -1.676      874.632
12/14/2013  20:19:00      -67.031      -19.695       -6.212       14.472       14.741       13.185      209.429      217.290      173.832        0.276        0.030       69.864       11.121        0.025      330.743       -1.689      874.638
12/14/2013  20:20:00      -72.408      -20.401      -15.297       10.588       13.193       12.531      112.107      174.058      157.019        0.317        0.022       75.227        5.079        0.005      330.706       -1.749      874.633
12/14/2013  20:21:00      -83.351      -13.401      -17.839       22.399       13.195       15.253      501.699      174.103      232.647        0.418        0.045       84.421       12.144        0.021      330.621       -1.887      874.633
12/14/2013  20:22:00      -87.109      -11.175       -9.276       26.720       13.933       12.618      713.969      194.124      159.205        0.443        0.053       87.823       11.128        0.016      330.623       -1.885      874.632
12/14/2013  20:23:00      -73.227      -25.344      -12.185       22.834       18.116       11.799      521.395      328.197      139.208        0.357        0.049       77.488       12.492        0.026      330.620       -1.890      874.650
12/14/2013  20:24:00      -71.060      -10.438       -6.621       30.556       15.225       14.210      933.677      231.798      201.916        0.328        0.068       71.822       13.539        0.036      330.576       -1.962      874.660
12/14/2013  20:25:00      -98.871      -14.931      -13.049       19.312       18.488       12.614      372.967      341.790      159.124        0.552        0.044       99.993        9.913        0.010      330.565       -1.980      874.654
12/14/2013  20:26:00      -87.032       -6.910      -14.419       20.481       17.115       12.606      419.466      292.926      158.920        0.435        0.044       87.306        7.272        0.007      330.562       -1.987      874.651
12/14/2013  20:27:00      -88.663       -2.072      -11.013       17.232       20.221       12.307      296.946      408.869      151.452        0.442        0.043       88.687        6.421        0.005      330.578       -1.959      874.650
12/14/2013  20:28:00      -97.373       -1.301      -15.488       18.755       14.928       13.848      351.753      222.845      191.771        0.524        0.038       97.382        8.843        0.008      330.546       -2.012      874.652
12/14/2013  20:29:00      -91.445       -6.350      -15.998       17.296       14.877       11.592      299.162      221.322      134.378        0.466        0.033       91.665        7.113        0.006      330.596       -1.931      874.652
12/14/2013  20:30:00      -93.269       -5.192       -9.810       25.287       21.110       15.399      639.456      445.629      237.133        0.507        0.066       93.413       12.255        0.017      330.553       -2.001      874.663
12/14/2013  20:31:00     -113.246        0.325      -15.678       25.462       19.737       15.188      648.336      389.537      230.684        0.717        0.063      113.247       11.107        0.010      330.518       -2.059      874.668
12/14/2013  20:32:00     -126.532       -6.025      -12.237       28.897       14.757       15.250      835.029      217.763      232.575        0.874        0.064      126.676       11.476        0.008      330.527       -2.044      874.669
12/14/2013  20:33:00     -142.969       -2.071      -13.314       27.375       22.107       20.654      749.393      488.719      426.576        1.114        0.083      142.984       14.604        0.010      330.527       -2.044      874.684
12/14/2013  20:34:00     -145.041       -5.917      -13.058       27.352       21.563       19.510      748.142      464.965      380.623        1.142        0.080      145.161       17.384        0.014      330.485       -2.112      874.702
12/14/2013  20:35:00     -148.625       -4.971      -14.185       32.816       20.809       18.351     1076.912      432.999      336.775        1.208        0.092      148.708       14.048        0.009      330.491       -2.103      874.716
12/14/2013  20:36:00     -128.531       -5.564      -12.250       30.050       23.377       16.450      903.017      546.486      270.606        0.921        0.086      128.651       11.674        0.008      330.495       -2.096      874.718
12/14/2013  20:37:00     -105.992      -21.822      -11.753       21.303       17.891       16.759      453.826      320.105      280.864        0.645        0.053      108.215       11.974        0.012      330.538       -2.024      874.718
12/14/2013  20:38:00      -83.816       -6.789       -7.562       25.051       15.379       12.814      627.546      236.518      164.208        0.408        0.051       84.090       11.541        0.019      330.516       -2.062      874.724
12/14/2013  20:39:00      -88.499      -21.177      -11.126       19.677       18.665       12.846      387.196      348.390      165.022        0.465        0.045       90.998        7.725        0.007      330.519       -2.057      874.722
12/14/2013  20:40:00     -103.210      -18.115      -16.610       18.495       13.911       11.437      342.076      193.519      130.801        0.596        0.033      104.788        4.366        0.002      330.537       -2.026      874.732
12/14/2013  20:41:00      -95.723       -8.543      -15.105       20.907       18.149       13.256      437.095      329.378      175.723        0.520        0.047       96.104        8.781        0.008      330.511       -2.071      874.738
12/14/2013  20:42:00     -108.290       -4.741      -16.137       23.761       16.362       12.159      564.590      267.701      147.837        0.649        0.049      108.394        5.032        0.002      330.560       -1.991      874.756
12/14/2013  20:43:00     -113.172       -7.775      -21.191       18.004       15.232       10.638      324.140      232.020      113.174        0.699        0.033      113.439        2.776        0.001      330.554       -1.999      874.784
12/14/2013  20:44:00      -96.551       -4.659      -16.499       16.162       11.586       11.381      261.218      134.230      129.517        0.507        0.026       96.664        6.064        0.004      330.559       -1.990      874.799
12/14/2013  20:45:00      -97.816      -12.995      -13.175       18.608       22.997       14.601      346.242      528.867      213.191        0.550        0.054       98.676        7.710        0.006      330.541       -2.020      874.813
12/14/2013  20:46:00      -89.158      -16.019      -14.005       14.288       23.560       14.623      204.140      555.056      213.834        0.469        0.049       90.586        3.232        0.001      330.533       -2.032      874.823
12/14/2013  20:47:00      -98.556       -9.208      -12.800       21.486       20.939       15.299      461.637      438.429      234.051        0.555        0.057       98.985       11.239        0.013      330.590       -1.940      874.824
12/14/2013  20:48:00      -86.047       -3.674       -9.763       19.358       18.869       10.802      374.715      356.040      116.689        0.418        0.042       86.125        2.521        0.001      330.557       -1.993      874.838
12/14/2013  20:49:00      -92.397       -7.078      -20.179       14.999       12.364       10.205      224.967      152.878      104.141        0.474        0.024       92.668        7.483        0.007      330.585       -1.948      874.836
12/14/2013  20:50:00     -107.247       -3.476      -20.886       17.123       15.370       16.968      293.213      236.230      287.930        0.638        0.041      107.303       11.384        0.011      330.644       -1.851      874.842
12/14/2013  20:51:00     -110.552      -11.361      -13.722       21.902       23.606       15.030      479.702      557.254      225.896        0.690        0.063      111.134        8.300        0.006      330.645       -1.850      874.849
12/14/2013  20:52:00     -111.445      -25.546      -17.901       17.267       15.529       14.257      298.142      241.148      203.252        0.707        0.037      114.335        5.856        0.003      330.544       -2.014      874.865
12/14/2013  20:53:00     -128.806      -14.132      -11.905       34.063       27.823       23.303     1160.254      774.119      543.009        0.970        0.124      129.579       16.383        0.016      330.504       -2.082      874.873
12/14/2013  20:54:00     -123.809      -20.869       -9.737       37.439       27.645       20.123     1401.690      764.224      404.952        0.921        0.129      125.555       16.010        0.016      330.436       -2.193      874.864
12/14/2013  20:55:00     -134.605      -28.493      -17.438       24.884       23.100       18.962      619.190      533.602      359.566        1.037        0.076      137.587       14.182        0.011      330.426       -2.210      874.855
12/14/2013  20:56:00     -134.274      -11.306      -17.354       35.007       25.006       22.655     1225.469      625.325      513.229        1.041        0.118      134.749       17.489        0.017      330.436       -2.193      874.855
12/14/2013  20:57:00     -133.594      -18.371       -8.637       31.634       25.812       21.705     1000.708      666.261      471.120        1.020        0.107      134.851       18.328        0.018      330.406       -2.241      874.850
12/14/2013  20:58:00     -120.489      -12.538      -12.244       28.853       24.657       20.959      832.494      607.981      439.294        0.835        0.094      121.139       16.914        0.019      330.394       -2.262      874.850
12/14/2013  20:59:00     -105.076      -10.924       -4.724       28.290       31.445       20.711      800.303      988.801      428.940        0.670        0.111      105.642       17.200        0.027      330.371       -2.301      874.852
12/14/2013  21:00:00     -122.805       -7.781      -10.800       30.049       28.417       19.598      902.962      807.553      384.093        0.868        0.105      123.051       15.484        0.016      330.348       -2.338      874.855
12/14/2013  21:01:00     -115.779      -17.897       -6.638       24.851       33.829       21.705      617.582     1144.404      471.088        0.800        0.112      117.154       10.471        0.008      330.359       -2.319      874.853
12/14/2013  21:02:00     -121.085      -29.340       -7.004       32.583       22.698       15.097     1061.667      515.194      227.913        0.869        0.090      124.589       13.100        0.011      330.377       -2.289      874.852
12/14/2013  21:03:00     -107.767      -37.095       -2.549       35.499       26.183       18.980     1260.146      685.572      360.241        0.765        0.115      113.973       19.233        0.028      330.399       -2.253      874.854
12/14/2013  21:04:00     -142.930       -0.919      -21.387       28.639       27.656       21.062      820.177      764.840      443.626        1.146        0.101      142.933       17.031        0.014      330.303       -2.410      874.852
12/14/2013  21:05:00     -139.203      -10.646      -18.262       33.790       32.434       22.273     1141.771     1051.954      496.090        1.126        0.134      139.610       16.396        0.014      330.273       -2.460      874.845
12/14/2013  21:06:00     -144.132      -12.822      -13.314       45.875       37.327       28.544     2104.538     1393.325      814.785        1.271        0.216      144.702       25.631        0.031      330.269       -2.467      874.846
12/14/2013  21:07:00     -151.751       -7.357      -20.757       24.994       25.144       20.488      624.695      632.227      419.776        1.259        0.084      151.929       11.567        0.006      330.260       -2.480      874.845
12/14/2013  21:08:00     -147.474      -14.194       -4.408       44.413       35.781       26.717     1972.546     1280.285      713.783        1.297        0.198      148.156       27.307        0.034      330.259       -2.482      874.849
12/14/2013  21:09:00     -127.282      -18.996       -4.893       52.743       35.285       25.286     2781.776     1245.000      639.381        1.062        0.233      128.691       27.830        0.047      330.269       -2.467      874.854
12/14/2013  21:10:00     -140.082       -8.037      -16.739       34.817       32.194       24.805     1212.243     1036.428      615.308        1.142        0.143      140.312       14.264        0.010      330.243       -2.509      874.854
12/14/2013  21:11:00     -147.358      -13.325      -11.259       39.235       35.965       26.121     1539.391     1293.458      682.313        1.277        0.176      147.959       24.966        0.028      330.239       -2.515      874.850
12/14/2013  21:12:00     -140.198      -34.294      -16.725       29.639       32.010       17.868      878.494     1024.629      319.259        1.167        0.111      144.331       12.081        0.007      330.306       -2.405      874.849
12/14/2013  21:13:00      -95.496      -27.643       -2.182       30.980       35.360       21.087      959.756     1250.348      444.653        0.627        0.133       99.417       15.581        0.025      330.311       -2.397      874.846
12/14/2013  21:14:00     -129.045      -56.533      -12.260       37.136       28.911       18.979     1379.112      835.857      360.196        1.129        0.129      140.885       18.197        0.017      330.357       -2.321      874.849
12/14/2013  21:15:00     -105.059      -45.924       -5.171       28.106       35.962       18.417      789.944     1293.266      339.203        0.780        0.121      114.657       13.531        0.014      330.353       -2.328      874.845
12/14/2013  21:16:00     -112.207      -16.600       -4.848       37.235       26.427       20.024     1386.457      698.373      400.943        0.769        0.124      113.428       22.768        0.040      330.316       -2.390      874.842
12/14/2013  21:17:00     -110.762      -38.819       -1.450       38.531       31.381       22.205     1484.644      984.745      493.066        0.837        0.148      117.367       19.264        0.027      330.381       -2.282      874.838
12/14/2013  21:18:00      -81.377      -50.632        4.331       37.991       26.895       21.949     1443.352      723.361      481.754        0.593        0.132       95.842       22.096        0.053      330.383       -2.281      874.840
12/14/2013  21:19:00      -76.691      -37.270        0.878       35.921       26.002       16.153     1290.349      676.125      260.919        0.475        0.111       85.268       17.821        0.044      330.442       -2.183      874.836
12/14/2013  21:20:00      -69.690      -39.684        3.438       42.088       24.280       18.087     1771.373      589.541      327.135        0.457        0.134       80.197       22.438        0.078      330.439       -2.188      874.849
12/14/2013  21:21:00      -88.836      -29.675      -13.636       25.312       21.388       14.187      640.691      457.462      201.281        0.513        0.065       93.661        8.954        0.009      330.469       -2.140      874.863
12/14/2013  21:22:00      -61.419      -29.018       -0.406       48.153       25.105       17.577     2318.718      630.284      308.967        0.394        0.163       67.929       22.574        0.110      330.383       -2.280      874.881
12/14/2013  21:23:00      -78.683      -43.851       -8.992       40.884       37.669       16.495     1671.483     1418.977      272.075        0.578        0.168       90.077       19.955        0.049      330.396       -2.258      874.898
12/14/2013  21:24:00      -42.162        2.390       -0.452       40.286       16.474       13.770     1622.973      271.407      189.617        0.193        0.104       42.230       15.215        0.130      330.370       -2.302      874.909
12/14/2013  21:25:00      -84.260      -30.083       -9.273       33.305       23.275       15.486     1109.194      541.723      239.822        0.499        0.095       89.469       14.266        0.025      330.375       -2.293      874.918
12/14/2013  21:26:00     -108.597       -2.538      -13.085       19.401       26.084       17.695      376.415      680.358      313.119        0.667        0.068      108.627       14.724        0.018      330.315       -2.392      874.923
12/14/2013  21:27:00     -102.851        2.684      -10.685       29.531       24.586       19.449      872.078      604.475      378.277        0.628        0.093      102.886       16.165        0.025      330.308       -2.403      874.928
12/14/2013  21:28:00      -84.293      -15.074      -19.507       22.149       31.781       16.348      490.574     1010.031      267.249        0.474        0.088       85.631       12.107        0.020      330.335       -2.358      874.926
12/14/2013  21:29:00     -118.743       -8.755      -16.164       30.102       26.081       18.750      906.141      680.214      351.564        0.819        0.097      119.065       13.983        0.014      330.258       -2.482      874.924
12/14/2013  21:30:00     -108.523        2.700       -6.763       37.430       29.597       24.068     1400.991      875.980      579.246        0.734        0.143      108.556       19.771        0.033      330.234       -2.523      874.928
12/14/2013  21:31:00     -167.855       11.303      -11.674       30.543       28.036       19.922      932.863      786.003      396.873        1.528        0.106      168.235       13.982        0.007      330.207       -2.568      874.939
12/14/2013  21:32:00     -177.299       18.668      -14.039       43.485       31.622       26.079     1890.975      999.927      680.140        1.778        0.179      178.279       22.033        0.015      330.197       -2.585      874.944
12/14/2013  21:33:00     -140.340        6.677      -11.086       63.516       36.963       23.789     4034.324     1366.269      565.909        1.291        0.298      140.499       29.047        0.043      330.174       -2.622      874.953
12/14/2013  21:34:00      -85.814        8.418       -5.303       51.570       28.067       20.176     2659.497      787.732      407.088        0.566        0.193       86.226       18.065        0.044      330.145       -2.672      874.971
12/14/2013  21:35:00      -99.755       15.711      -12.979       49.425       27.783       19.047     2442.838      771.903      362.801        0.697        0.179      100.984       22.163        0.048      330.142       -2.676      874.984
12/14/2013  21:36:00      -60.197       -6.527       -6.037       26.860       22.427       14.028      721.440      502.969      196.772        0.256        0.071       60.550       10.640        0.031      330.181       -2.613      874.986
12/14/2013  21:37:00      -84.129      -23.157       -6.711       27.849       26.454       19.647      775.580      699.804      386.010        0.476        0.093       87.258       13.965        0.026      330.198       -2.582      874.990
12/14/2013  21:38:00      -72.474      -17.405       -8.443       23.674       30.065       16.321      560.451      903.916      266.373        0.368        0.087       74.534       14.244        0.037      330.213       -2.558      874.997
12/14/2013  21:39:00      -64.375       -4.285       -0.233       41.200       34.754       21.893     1697.463     1207.853      479.293        0.377        0.169       64.518       18.820        0.085      330.159       -2.646      875.005
12/14/2013  21:40:00      -67.597        0.314       -3.536       41.486       24.248       21.740     1721.049      587.953      472.634        0.368        0.139       67.597       24.914        0.136      330.188       -2.600      875.016
12/14/2013  21:41:00      -80.888      -28.598       -7.654       20.139       21.424       15.544      405.570      458.976      241.616        0.426        0.055       85.794       11.799        0.019      330.192       -2.594      875.024
12/14/2013  21:42:00      -89.921      -30.527       -9.009       20.912       17.484       15.322      437.332      305.692      234.766        0.504        0.049       94.962       12.573        0.018      330.136       -2.686      875.027
12/14/2013  21:43:00      -61.488      -27.528       -6.681       15.819       16.545        9.503      250.228      273.729       90.304        0.260        0.031       67.369        3.930        0.003      330.148       -2.667      875.021
12/14/2013  21:44:00      -86.299      -19.809      -10.636       17.346       20.243       11.788      300.900      409.797      138.952        0.440        0.042       88.543        8.232        0.009      330.195       -2.587      875.016
12/14/2013  21:45:00      -98.324      -23.613      -12.141       25.074       21.709       12.996      628.714      471.294      168.898        0.582        0.063      101.119       11.510        0.013      330.132       -2.693      875.008
12/14/2013  21:46:00     -115.062       -5.065      -12.617       23.027       14.062       13.167      530.251      197.742      173.374        0.716        0.045      115.174       13.286        0.013      330.103       -2.738      875.010
12/14/2013  21:47:00     -126.946       -7.271      -17.801       14.285       12.987       11.020      204.047      168.665      121.446        0.849        0.025      127.154        5.374        0.002      330.084       -2.769      875.018
12/14/2013  21:48:00     -107.643      -15.855      -10.339       17.997       16.216       13.004      323.886      262.959      169.094        0.635        0.038      108.804        9.522        0.008      330.046       -2.832      875.027
12/14/2013  21:49:00      -93.627      -13.996      -12.382       22.730       24.093       18.413      516.675      580.491      339.053        0.528        0.072       94.667       14.624        0.024      330.043       -2.836      875.034
12/14/2013  21:50:00      -88.336      -10.327      -16.195       16.082       18.432       12.169      258.620      339.753      148.089        0.446        0.037       88.938        7.219        0.007      330.092       -2.756      875.034
12/14/2013  21:51:00      -94.665       -0.867      -11.032       15.317       12.911       15.179      234.612      166.700      230.396        0.486        0.032       94.669        9.844        0.011      329.996       -2.912      875.049
12/14/2013  21:52:00     -116.387       -7.352      -17.922       20.672       17.023       13.367      427.347      289.767      178.682        0.741        0.045      116.619        7.904        0.005      329.959       -2.974      875.059
12/14/2013  21:53:00     -117.250       -5.753      -10.563       27.532       15.161       18.403      758.013      229.859      338.686        0.761        0.066      117.391       14.946        0.016      329.916       -3.045      875.062
12/14/2013  21:54:00     -139.292       -0.775      -13.747       26.317       15.109       20.217      692.570      228.293      408.727        1.046        0.066      139.294       16.681        0.014      329.973       -2.950      875.065
12/14/2013  21:55:00     -143.290      -24.014      -14.908       24.419       23.688       19.916      596.274      561.100      396.638        1.144        0.078      145.289       14.111        0.009      330.008       -2.893      875.068
12/14/2013  21:56:00     -121.055      -23.324      -15.266       25.577       22.348       14.600      654.171      499.438      213.158        0.840        0.068      123.281        7.929        0.004      330.030       -2.857      875.065
12/14/2013  21:57:00     -116.430      -31.538      -15.748       17.894       19.480       12.518      320.201      379.481      156.691        0.783        0.043      120.626       12.409        0.011      330.029       -2.859      875.067
12/14/2013  21:58:00     -110.838      -25.266      -12.439       23.154       21.587       15.585      536.103      465.996      242.878        0.716        0.062      113.681        9.723        0.007      330.007       -2.895      875.077
12/14/2013  21:59:00     -114.950       -7.324       -9.831       32.264       27.771       16.936     1040.988      771.213      286.842        0.773        0.105      115.183       13.525        0.014      330.018       -2.879      875.084
12/14/2013  22:00:00      -92.440      -21.799       -5.004       30.215       23.898       18.992      912.933      571.091      360.705        0.544        0.092       94.976       16.555        0.030      330.006       -2.897      875.089
12/14/2013  22:01:00     -111.890      -25.975       -4.568       26.445       36.290       17.652      699.343     1316.937      311.601        0.777        0.116      114.865       11.147        0.009      329.959       -2.976      875.101
12/14/2013  22:02:00     -112.612      -45.505      -10.775       23.966       18.479       11.048      574.385      341.467      122.064        0.795        0.052      121.459        7.646        0.004      330.012       -2.885      875.105
12/14/2013  22:03:00     -122.733      -42.419      -17.797       18.254       14.660        9.665      333.221      214.905       93.412        0.891        0.032      129.857        3.572        0.001      330.118       -2.715      875.106
12/14/2013  22:04:00      -97.273      -51.350      -11.813       12.768       13.145        9.313      163.034      172.788       86.726        0.633        0.021      109.995        4.671        0.002      330.120       -2.713      875.113
12/14/2013  22:05:00      -88.174      -53.999      -10.341       11.539       10.267        7.651      133.157      105.412       58.545        0.555        0.015      103.395        5.916        0.003      330.131       -2.696      875.115
12/14/2013  22:06:00     -100.384      -31.781      -13.736       13.649       13.882       10.938      186.284      192.703      119.640        0.589        0.025      105.295        5.936        0.003      330.232       -2.528      875.127
12/14/2013  22:07:00      -99.196      -16.204      -10.343       28.871       25.016       17.656      833.522      625.784      311.734        0.599        0.089      100.511       16.663        0.027      330.215       -2.553      875.139
12/14/2013  22:08:00      -71.294       -7.159       -3.846       44.621       23.446       15.275     1991.032      549.693      233.338        0.396        0.139       71.652       19.055        0.071      330.198       -2.584      875.153
12/14/2013  22:09:00      -72.174      -17.041       -4.871       23.524       16.981       13.312      553.397      288.352      177.205        0.327        0.051       74.159       12.990        0.031      330.164       -2.638      875.160
12/14/2013  22:10:00     -108.519      -14.574      -11.162       12.334        9.457       10.704      152.135       89.441      114.566        0.623        0.018      109.493        8.695        0.006      330.201       -2.578      875.170
12/14/2013  22:11:00     -106.327      -35.242      -14.725       20.433       20.836       13.357      417.503      434.146      178.410        0.690        0.052      112.015        9.728        0.008      330.259       -2.482      875.179
12/14/2013  22:12:00      -94.964       -7.368       -4.539       33.646       21.102       19.442     1132.046      445.295      377.999        0.552        0.098       95.249       16.448        0.030      330.191       -2.594      875.198
12/14/2013  22:13:00      -79.962      -26.500       -3.305       30.163       21.098       13.672      909.815      445.120      186.937        0.432        0.077       84.239       13.663        0.026      330.176       -2.619      875.210
12/14/2013  22:14:00      -92.765      -10.725      -13.723       31.976       16.847       13.735     1022.478      283.810      188.659        0.520        0.075       93.383       15.052        0.026      330.045       -2.831      875.227
12/14/2013  22:15:00      -86.635       -6.082       -8.990       15.060       26.035       17.213      226.810      677.802      296.296        0.441        0.060       86.848       11.413        0.017      330.026       -2.864      875.227
12/14/2013  22:16:00      -88.055      -14.660      -20.244       15.032       13.028       14.282      225.972      169.739      203.976        0.449        0.030       89.267        7.919        0.008      330.037       -2.846      875.227
12/14/2013  22:17:00      -92.901        5.114      -10.411       16.412       11.875       13.716      269.355      141.027      188.140        0.468        0.030       93.042        8.309        0.008      330.003       -2.902      875.224
12/14/2013  22:18:00      -88.004       -5.851      -13.610       16.779       15.839       13.665      281.551      250.862      186.719        0.434        0.036       88.198        4.525        0.003      329.957       -2.980      875.223
12/14/2013  22:19:00     -106.032        2.828      -17.167       16.595       17.369       11.943      275.411      301.670      142.644        0.613        0.036      106.070        8.021        0.006      329.873       -3.116      875.221
12/14/2013  22:20:00     -105.458       -8.045      -13.863       15.020       17.077       11.118      225.603      291.633      123.607        0.601        0.032      105.765        7.971        0.006      329.864       -3.130      875.215
12/14/2013  22:21:00      -96.716       -9.835      -20.118       15.229       28.639       14.662      231.929      820.168      214.987        0.556        0.063       97.215        7.756        0.006      329.874       -3.114      875.209
12/14/2013  22:22:00      -94.304       -6.776      -10.864       18.129       25.971       16.688      328.646      674.514      278.490        0.517        0.064       94.547       11.556        0.015      329.849       -3.154      875.207
12/14/2013  22:23:00     -100.334      -19.279      -13.972       19.607       18.834       19.468      384.440      354.704      379.000        0.588        0.056      102.169       13.979        0.019      329.829       -3.187      875.205
12/14/2013  22:24:00     -112.624      -24.529      -10.306       21.030       16.914       17.051      442.265      286.084      290.745        0.721        0.051      115.265       14.606        0.016      329.853       -3.147      875.207
12/14/2013  22:25:00     -114.163      -25.426      -11.032       24.079       18.583       15.292      579.795      345.315      233.833        0.748        0.058      116.960       12.333        0.011      329.883       -3.101      875.210
12/14/2013  22:26:00     -133.226      -21.496      -17.548       10.681       11.827        9.181      114.087      139.867       84.290        0.943        0.017      134.949        2.456        0.000      329.870       -3.120      875.219
12/14/2013  22:27:00     -122.471      -28.332      -20.608       18.308       16.049       11.865      335.189      257.586      140.769        0.848        0.037      125.705       10.897        0.008      329.880       -3.106      875.219
12/14/2013  22:28:00     -117.530      -10.654      -14.405       25.690       24.754       18.608      659.984      612.753      346.268        0.788        0.081      118.012       13.893        0.014      329.782       -3.264      875.222
12/14/2013  22:29:00     -103.139       -7.532      -17.594       24.826       22.378       15.201      616.326      500.788      231.079        0.618        0.067      103.414       10.063        0.009      329.881       -3.101      875.237
12/14/2013  22:30:00     -111.578      -12.878      -14.768       24.489       16.152       13.371      599.710      260.877      178.771        0.694        0.052      112.319       10.969        0.010      329.805       -3.226      875.248
12/14/2013  22:31:00      -95.082      -32.184      -10.595       23.672       20.393       12.697      560.357      415.874      161.210        0.566        0.057      100.381        4.993        0.002      329.779       -3.268      875.259
12/14/2013  22:32:00     -117.435      -17.082      -17.847       33.047       21.100       15.074     1092.123      445.215      227.219        0.808        0.088      118.670       14.283        0.014      329.766       -3.290      875.262
12/14/2013  22:33:00     -108.029      -28.096       -9.781       27.223       25.191       17.440      741.079      634.608      304.137        0.712        0.084      111.623       16.217        0.021      329.748       -3.321      875.268
12/14/2013  22:34:00     -112.053      -29.252      -16.476       23.951       20.555       13.492      573.656      422.526      182.025        0.743        0.059      115.808       11.199        0.009      329.686       -3.421      875.274
12/14/2013  22:35:00      -98.516      -18.347      -11.137       22.574       14.618       12.396      509.600      213.698      153.671        0.552        0.044      100.210        8.557        0.007      329.694       -3.408      875.289
12/14/2013  22:36:00      -92.577      -29.436      -11.641       17.857       15.905       12.199      318.864      252.964      148.817        0.515        0.036       97.144        7.403        0.006      329.722       -3.363      875.301
12/14/2013  22:37:00      -98.490      -16.179      -13.212       18.244       17.605       16.452      332.831      309.933      270.680        0.552        0.046       99.810       10.980        0.012      329.635       -3.505      875.324
12/14/2013  22:38:00      -99.824      -23.178      -11.855       22.685       21.765       12.630      514.593      473.706      159.522        0.589        0.057      102.479        7.830        0.006      329.619       -3.531      875.338
12/14/2013  22:39:00     -100.969      -19.995      -16.569       13.674       17.017       12.965      186.966      289.591      168.085        0.576        0.032      102.929        5.941        0.003      329.610       -3.544      875.353
12/14/2013  22:40:00     -109.748      -13.538      -14.165       18.225       19.326       10.456      332.144      373.484      109.325        0.662        0.041      110.580        9.481        0.007      329.572       -3.608      875.362
12/14/2013  22:41:00     -106.667       -8.383      -17.200       14.453       14.093       10.814      208.884      198.601      116.932        0.613        0.026      106.996        3.630        0.001      329.583       -3.591      875.365
12/14/2013  22:42:00     -113.684      -13.137      -13.129       18.538       15.118       13.176      343.663      228.561      173.596        0.701        0.037      114.441        4.852        0.002      329.591       -3.577      875.370
12/14/2013  22:43:00     -100.305       -6.051      -13.689       17.552       12.267       11.772      308.084      150.484      138.570        0.544        0.030      100.488        6.396        0.004      329.590       -3.577      875.382
12/14/2013  22:44:00      -82.810       -8.730      -10.396       12.364        9.605       11.479      152.874       92.264      131.759        0.371        0.019       83.269        6.954        0.007      329.567       -3.615      875.400
12/14/2013  22:45:00      -71.904      -11.952       -6.141       12.972       15.614       11.846      168.265      243.800      140.321        0.295        0.028       72.891        5.627        0.006      329.629       -3.514      875.410
12/14/2013  22:46:00      -80.656      -13.796      -13.404        9.815       11.060        9.821       96.340      122.318       96.443        0.360        0.016       81.827        2.463        0.001      329.604       -3.556      875.422
12/14/2013  22:47:00      -86.101      -12.914      -14.599       14.439       15.888       12.359      208.481      252.426      152.751        0.420        0.031       87.064        6.774        0.006      329.620       -3.530      875.430
12/14/2013  22:48:00     -108.512       -9.305      -12.971       21.187       13.958       13.522      448.907      194.812      182.838        0.643        0.041      108.911       10.628        0.010      329.567       -3.616      875.435
12/14/2013  22:49:00     -131.371      -18.855      -16.227       18.725       18.656       13.715      350.620      348.034      188.114        0.938        0.044      132.717        4.317        0.001      329.561       -3.628      875.437
12/14/2013  22:50:00     -111.556       -9.874      -13.887       21.214       13.283       15.109      450.031      176.426      228.297        0.679        0.043      111.992        6.367        0.003      329.557       -3.632      875.438
12/14/2013  22:51:00     -104.911      -26.869      -17.052       17.586       18.672       13.565      309.256      348.627      184.016        0.643        0.042      108.297        8.885        0.007      329.575       -3.604      875.436
12/14/2013  22:52:00     -102.474      -19.979      -13.409       17.209       20.141       12.657      296.137      405.673      160.198        0.597        0.043      104.403        6.375        0.004      329.536       -3.665      875.431
12/14/2013  22:53:00      -84.812      -13.712      -12.735       13.525       20.260        9.101      182.937      410.477       82.828        0.411        0.034       85.913        5.327        0.004      329.595       -3.570      875.431
12/14/2013  22:54:00      -85.669       -9.408      -13.994       14.881       13.937       11.094      221.447      194.230      123.077        0.408        0.027       86.184        5.471        0.004      329.552       -3.641      875.441
12/14/2013  22:55:00      -78.300      -13.525      -13.845       13.596        9.917        8.575      184.848       98.347       73.531        0.343        0.018       79.460        6.915        0.008      329.485       -3.750      875.449
12/14/2013  22:56:00      -77.398      -16.293      -14.409       10.938       12.367        6.733      119.635      152.941       45.329        0.339        0.016       79.094        3.768        0.002      329.541       -3.658      875.464
12/14/2013  22:57:00      -88.237      -13.508      -14.983       13.663       14.256       10.234      186.688      203.227      104.727        0.434        0.025       89.265        5.929        0.004      329.467       -3.780      875.467
12/14/2013  22:58:00      -91.973      -12.116      -17.157       13.485       12.897       10.426      181.856      166.324      108.702        0.468        0.023       92.768        6.244        0.005      329.464       -3.783      875.475
12/14/2013  22:59:00     -119.918      -10.231      -14.077       24.589       13.206       14.542      604.633      174.401      211.466        0.784        0.050      120.353        8.079        0.005      329.469       -3.777      875.477
12/14/2013  23:00:00     -136.118      -16.460      -15.575       24.681       22.593       14.192      609.171      510.439      201.423        1.018        0.066      137.109        8.409        0.004      329.480       -3.757      875.480
12/14/2013  23:01:00     -127.797       -5.308      -12.401       20.036       16.896       19.939      401.441      285.464      397.561        0.880        0.054      127.907       12.848        0.010      329.466       -3.781      875.489
12/14/2013  23:02:00     -100.738      -25.659      -10.179       21.584       24.756       15.430      465.884      612.860      238.071        0.611        0.066      103.954        8.774        0.007      329.522       -3.688      875.496
12/14/2013  23:03:00     -118.931      -12.777      -11.521       22.664       20.279       18.202      513.676      411.233      331.330        0.785        0.063      119.616       10.962        0.008      329.516       -3.698      875.498
12/14/2013  23:04:00     -117.343      -20.923      -16.205       22.787       20.162       15.664      519.254      406.498      245.354        0.782        0.059      119.194        8.086        0.005      329.528       -3.678      875.502
12/14/2013  23:05:00      -96.528      -27.674      -11.291       17.931       23.773       17.347      321.537      565.148      300.921        0.570        0.059      100.417        7.943        0.006      329.555       -3.635      875.510
12/14/2013  23:06:00     -116.715      -24.223      -14.793       22.975       25.443       15.491      527.831      647.367      239.974        0.792        0.071      119.202       11.705        0.010      329.490       -3.740      875.518
12/14/2013  23:07:00     -124.895      -15.988       -9.402       27.969       23.485       21.303      782.264      551.526      453.817        0.886        0.089      125.915       18.218        0.021      329.482       -3.755      875.527
12/14/2013  23:08:00     -117.445      -10.100      -17.482       25.912       21.212       17.248      671.429      449.937      297.477        0.781        0.071      117.878        9.058        0.006      329.492       -3.740      875.531
12/14/2013  23:09:00     -102.703      -21.158      -14.026       20.300       21.429       18.528      412.073      459.186      343.272        0.620        0.061      104.859       11.630        0.012      329.472       -3.769      875.531
12/14/2013  23:10:00     -117.641      -11.992      -13.848       22.745       29.506       18.862      517.357      870.602      355.768        0.796        0.087      118.251        9.724        0.007      329.469       -3.775      875.540
12/14/2013  23:11:00     -149.141      -20.069      -19.739       21.436       18.047       14.688      459.517      325.703      215.748        1.202        0.050      150.485        4.583        0.001      329.447       -3.811      875.542
12/14/2013  23:12:00     -145.080      -16.768      -19.242       23.098       19.573       15.247      533.540      383.096      232.470        1.142        0.057      146.046        6.796        0.002      329.465       -3.783      875.549
12/14/2013  23:13:00     -122.368      -11.474      -16.701       30.740       21.952       14.395      944.970      481.896      207.225        0.851        0.082      122.905       12.372        0.010      329.476       -3.764      875.554
12/14/2013  23:14:00      -94.838      -21.043      -14.714       20.174       23.124       17.306      406.979      534.738      299.487        0.545        0.062       97.145       10.875        0.013      329.445       -3.815      875.550
12/14/2013  23:15:00     -122.656      -10.912      -17.510       21.297       18.401       14.816      453.552      338.603      219.509        0.824        0.051      123.140        9.008        0.005      329.415       -3.864      875.552
12/14/2013  23:16:00     -102.787      -20.367      -17.961       14.847       20.262       11.658      220.434      410.556      135.910        0.603        0.038      104.785        5.812        0.003      329.395       -3.897      875.565
12/14/2013  23:17:00      -95.911      -16.404      -13.837       14.895       22.854       13.443      221.868      522.302      180.708        0.529        0.046       97.303        7.268        0.006      329.385       -3.913      875.582
12/14/2013  23:18:00      -96.567      -12.865      -10.648       25.719       15.970       15.267      661.468      255.033      233.078        0.538        0.057       97.420       11.872        0.015      329.410       -3.872      875.592
12/14/2013  23:19:00      -91.994      -13.153       -8.768       19.165       16.821       13.722      367.316      282.953      188.291        0.478        0.042       92.929        6.161        0.004      329.389       -3.908      875.605
12/14/2013  23:20:00      -93.994      -13.947       -8.043       18.554       16.483       16.042      344.260      271.688      257.351        0.498        0.044       95.024        7.995        0.007      329.353       -3.968      875.601
12/14/2013  23:21:00     -101.497      -16.958      -12.877       19.122       15.793       14.171      365.652      249.422      200.814        0.579        0.041      102.904       10.563        0.011      329.397       -3.894      875.602
12/14/2013  23:22:00     -112.711      -11.143      -13.307       18.423       16.489       15.020      339.411      271.887      225.597        0.692        0.042      113.260       10.105        0.008      329.387       -3.910      875.604
12/14/2013  23:23:00      -88.263      -17.129       -6.454       14.033       18.469       14.273      196.925      341.097      203.724        0.443        0.037       89.909        8.601        0.009      329.386       -3.912      875.608
12/14/2013  23:24:00      -93.207      -11.294       -7.461       15.465       17.548       15.560      239.161      307.918      242.110        0.483        0.039       93.889        9.776        0.011      329.369       -3.940      875.611
12/14/2013  23:25:00      -69.371      -14.697       -4.263       12.868       18.341       16.804      165.582      336.386      282.361        0.292        0.039       70.911       10.158        0.021      329.451       -3.804      875.618
12/14/2013  23:26:00      -85.331      -28.649      -18.280       17.848       12.423       13.098      318.553      154.336      171.558        0.454        0.032       90.012        8.601        0.009      329.450       -3.805      875.619
12/14/2013  23:27:00      -58.353      -28.530       -7.161       22.533       15.285       15.612      507.729      233.627      243.750        0.263        0.049       64.954        9.465        0.021      329.475       -3.766      875.630
12/14/2013  23:28:00      -72.570      -25.499       -8.550       20.572       16.909       14.084      423.217      285.929      198.371        0.345        0.045       76.919        6.752        0.008      329.475       -3.766      875.635
12/14/2013  23:29:00      -62.358      -12.268      -13.379       14.873       15.003       11.411      221.216      225.103      130.212        0.240        0.029       63.553        9.112        0.021      329.500       -3.725      875.630
12/14/2013  23:30:00     -100.265       -4.910       -8.216       23.607       15.288       14.298      557.296      233.724      204.442        0.557        0.050      100.385       12.481        0.015      329.467       -3.777      875.616
12/14/2013  23:31:00     -121.359       -6.312       -6.794       19.904       16.230       15.863      396.167      263.404      251.647        0.786        0.046      121.523       12.275        0.010      329.471       -3.771      875.619
12/14/2013  23:32:00     -102.843       -8.519       -5.271       29.805       21.045       17.987      888.365      442.872      323.539        0.617        0.083      103.196       18.151        0.031      329.464       -3.783      875.626
12/14/2013  23:33:00      -84.613      -26.276       -3.720       19.757       19.021       14.599      390.334      361.794      213.137        0.441        0.048       88.599       13.095        0.022      329.559       -3.629      875.630
12/14/2013  23:34:00      -81.261      -19.710       -6.392       24.339       16.039       13.950      592.406      257.250      194.615        0.404        0.052       83.617       11.418        0.019      329.629       -3.514      875.640
12/14/2013  23:35:00     -118.529      -15.351       -6.109       19.693       20.493       14.763      387.804      419.976      217.942        0.767        0.051      119.519       10.751        0.008      329.587       -3.583      875.650
12/14/2013  23:36:00      -84.003      -17.034       -0.435       28.249       17.622       15.986      797.981      310.550      255.552        0.436        0.068       85.713       15.259        0.032      329.584       -3.587      875.648
12/14/2013  23:37:00      -86.090      -26.657       -8.352       25.979       17.897       13.316      674.887      320.298      177.303        0.468        0.059       90.122       12.346        0.019      329.576       -3.601      875.644
12/14/2013  23:38:00      -92.172      -27.608       -2.234       21.001       19.556       13.861      441.030      382.427      192.122        0.514        0.051       96.218        5.040        0.003      329.622       -3.526      875.638
12/14/2013  23:39:00      -75.259      -35.847       -1.118       37.458       30.307       15.352     1403.115      918.491      235.673        0.475        0.128       83.360       15.407        0.034      329.575       -3.601      875.634
12/14/2013  23:40:00     -101.939      -24.499       -4.231       29.818       23.884       17.434      889.141      570.442      303.944        0.639        0.088      104.842       15.006        0.020      329.518       -3.698      875.629
12/14/2013  23:41:00      -90.221      -20.202        0.442       30.611       19.010       17.987      937.029      361.373      323.515        0.508        0.081       92.455       18.646        0.041      329.508       -3.712      875.629
12/14/2013  23:42:00      -84.753      -53.609       -0.497       29.601       23.067       16.089      876.234      532.094      258.856        0.586        0.083      100.285       14.975        0.022      329.506       -3.716      875.635
12/14/2013  23:43:00     -100.301      -40.970       -9.200       15.315       16.260       11.372      234.542      264.373      129.322        0.623        0.031      108.346        8.795        0.007      329.444       -3.815      875.636
12/14/2013  23:44:00     -104.830      -37.872       -8.830       13.438       22.919       13.304      180.567      525.280      176.999        0.669        0.044      111.461        6.884        0.004      329.503       -3.720      875.634
12/14/2013  23:45:00     -105.224      -52.945       -3.439       24.319       21.032       14.026      591.391      442.324      196.734        0.756        0.062      117.793       11.113        0.009      329.495       -3.733      875.628
12/14/2013  23:46:00      -93.600      -28.551        0.075       27.156       27.671       16.720      737.463      765.702      279.571        0.568        0.089       97.858       15.377        0.025      329.518       -3.696      875.619
12/14/2013  23:47:00      -96.202      -19.433       -5.644       25.239       23.729       16.146      637.032      563.049      260.681        0.556        0.073       98.145       13.346        0.018      329.525       -3.684      875.613
12/14/2013  23:48:00      -99.450       -4.554        0.356       36.586       26.466       23.558     1338.553      700.436      554.980        0.625        0.130       99.554       22.747        0.052      329.466       -3.781      875.598
12/14/2013  23:49:00      -91.365      -22.083        2.364       33.746       25.499       20.102     1138.782      650.217      404.079        0.552        0.110       93.996       17.972        0.037      329.515       -3.701      875.573
12/14/2013  23:50:00      -77.448      -22.317       -3.727       26.209       23.296       12.358      686.915      542.705      152.711        0.395        0.069       80.600       11.633        0.021      329.500       -3.724      875.557
12/14/2013  23:51:00      -88.501      -38.909       -4.555       18.862       20.664       15.975      355.756      426.997      255.206        0.520        0.052       96.676       13.160        0.019      329.558       -3.632      875.547
12/14/2013  23:52:00      -88.526      -18.913       -6.795       16.979       15.582       10.722      288.274      242.796      114.953        0.444        0.032       90.524        6.909        0.006      329.534       -3.670      875.550
12/14/2013  23:53:00      -89.508      -36.519      -11.726       10.289       16.794        8.865      105.863      282.037       78.591        0.497        0.023       96.671        7.304        0.006      329.509       -3.712      875.572
12/14/2013  23:54:00      -87.564      -10.918       -2.139       23.676       21.319       16.435      560.531      454.495      270.112        0.454        0.064       88.242       14.981        0.029      329.458       -3.793      875.569
12/14/2013  23:55:00     -101.954      -15.003       -6.241       26.025       18.446       14.613      677.308      340.254      213.527        0.594        0.062      103.052       11.506        0.012      329.430       -3.840      875.562
12/14/2013  23:56:00     -109.655       -7.791      -16.131       19.408       14.123       11.551      376.659      199.466      133.429        0.653        0.035      109.932        7.663        0.005      329.398       -3.892      875.552
12/14/2013  23:57:00      -99.183      -21.040       -9.222       15.945       19.760       14.939      254.244      390.440      223.173        0.562        0.043      101.390        8.693        0.007      329.396       -3.896      875.540
12/14/2013  23:58:00      -93.248      -19.312       -5.794       18.472       17.411       17.207      341.217      303.134      296.098        0.502        0.047       95.227       13.592        0.020      329.369       -3.942      875.529
12/14/2013  23:59:00     -120.173      -22.147      -17.020       18.833       19.688       16.478      354.672      387.608      271.536        0.812        0.051      122.197       12.074        0.010      329.308       -4.039      875.524
